<?xml version="1.0" encoding="UTF-8" standalone="no" ?>
<gpx xmlns="http://www.topografix.com/GPX/1/1" xmlns:xsi="http://www.w3.org/2001/XMLSchema-instance" xsi:schemaLocation="http://www.topografix.com/GPX/1/1 http://www.topografix.com/GPX/1/1/gpx.xsd" version="1.1" creator="VisuGPX - https://www.visugpx.com">
  <metadata>
    <name>Parcours Terres noires</name>
  </metadata>
  <trk>
    <name><![CDATA[Parcours du 2021-03-02 11:11]]></name>
    <extensions>
      <line xmlns="http://www.topografix.com/GPX/gpx_style/0/2">
        <color>0000FF</color>
        <width>4</width>
      </line>
    </extensions>
    <trkseg>
      <trkpt lat="44.1318" lon="6.28518">
        <ele>745.1</ele>
        <time>2021-03-02T10:12:51.000Z</time>
      </trkpt>
      <trkpt lat="44.1318" lon="6.28524">
        <ele>745.3</ele>
        <time>2021-03-02T10:14:06.000Z</time>
      </trkpt>
      <trkpt lat="44.13176" lon="6.28517">
        <ele>745.4</ele>
        <time>2021-03-02T10:14:15.000Z</time>
      </trkpt>
      <trkpt lat="44.13189" lon="6.28513">
        <ele>745.4</ele>
        <time>2021-03-02T10:14:21.000Z</time>
      </trkpt>
      <trkpt lat="44.13187" lon="6.28521">
        <ele>745.5</ele>
        <time>2021-03-02T10:14:26.044Z</time>
      </trkpt>
      <trkpt lat="44.13177" lon="6.2851">
        <ele>745.1</ele>
        <time>2021-03-02T10:21:15.000Z</time>
      </trkpt>
      <trkpt lat="44.13171" lon="6.28505">
        <ele>745.1</ele>
        <time>2021-03-02T10:21:18.000Z</time>
      </trkpt>
      <trkpt lat="44.13159" lon="6.28497">
        <ele>744.7</ele>
        <time>2021-03-02T10:21:24.000Z</time>
      </trkpt>
      <trkpt lat="44.13147" lon="6.2849">
        <ele>744.7</ele>
        <time>2021-03-02T10:21:30.000Z</time>
      </trkpt>
      <trkpt lat="44.1314" lon="6.28487">
        <ele>744.8</ele>
        <time>2021-03-02T10:21:33.000Z</time>
      </trkpt>
      <trkpt lat="44.13129" lon="6.28497">
        <ele>744.8</ele>
        <time>2021-03-02T10:21:39.000Z</time>
      </trkpt>
      <trkpt lat="44.1313" lon="6.28518">
        <ele>745.2</ele>
        <time>2021-03-02T10:21:45.000Z</time>
      </trkpt>
      <trkpt lat="44.13132" lon="6.28526">
        <ele>745.2</ele>
        <time>2021-03-02T10:21:48.000Z</time>
      </trkpt>
      <trkpt lat="44.13133" lon="6.28533">
        <ele>745.3</ele>
        <time>2021-03-02T10:21:51.000Z</time>
      </trkpt>
      <trkpt lat="44.13135" lon="6.28546">
        <ele>745.3</ele>
        <time>2021-03-02T10:21:53.038Z</time>
      </trkpt>
      <trkpt lat="44.13137" lon="6.28569">
        <ele>745.3</ele>
        <time>2021-03-02T10:22:00.000Z</time>
      </trkpt>
      <trkpt lat="44.13137" lon="6.28581">
        <ele>745.5</ele>
        <time>2021-03-02T10:22:03.000Z</time>
      </trkpt>
      <trkpt lat="44.13137" lon="6.28592">
        <ele>745.6</ele>
        <time>2021-03-02T10:22:05.146Z</time>
      </trkpt>
      <trkpt lat="44.13137" lon="6.28608">
        <ele>745.7</ele>
        <time>2021-03-02T10:22:12.000Z</time>
      </trkpt>
      <trkpt lat="44.13136" lon="6.28634">
        <ele>745.7</ele>
        <time>2021-03-02T10:22:18.000Z</time>
      </trkpt>
      <trkpt lat="44.13135" lon="6.28644">
        <ele>746.5</ele>
        <time>2021-03-02T10:22:21.000Z</time>
      </trkpt>
      <trkpt lat="44.13134" lon="6.28658">
        <ele>746.5</ele>
        <time>2021-03-02T10:22:24.000Z</time>
      </trkpt>
      <trkpt lat="44.13134" lon="6.28678">
        <ele>747</ele>
        <time>2021-03-02T10:22:30.000Z</time>
      </trkpt>
      <trkpt lat="44.13135" lon="6.28694">
        <ele>747.2</ele>
        <time>2021-03-02T10:22:31.978Z</time>
      </trkpt>
      <trkpt lat="44.13134" lon="6.28713">
        <ele>747.2</ele>
        <time>2021-03-02T10:22:35.956Z</time>
      </trkpt>
      <trkpt lat="44.13134" lon="6.28731">
        <ele>747.6</ele>
        <time>2021-03-02T10:22:39.835Z</time>
      </trkpt>
      <trkpt lat="44.13134" lon="6.28746">
        <ele>747.6</ele>
        <time>2021-03-02T10:22:43.015Z</time>
      </trkpt>
      <trkpt lat="44.13135" lon="6.28762">
        <ele>747.7</ele>
        <time>2021-03-02T10:22:46.745Z</time>
      </trkpt>
      <trkpt lat="44.13135" lon="6.28776">
        <ele>747.6</ele>
        <time>2021-03-02T10:22:51.000Z</time>
      </trkpt>
      <trkpt lat="44.13133" lon="6.28789">
        <ele>748.2</ele>
        <time>2021-03-02T10:22:53.014Z</time>
      </trkpt>
      <trkpt lat="44.13131" lon="6.28807">
        <ele>748.4</ele>
        <time>2021-03-02T10:22:56.562Z</time>
      </trkpt>
      <trkpt lat="44.13129" lon="6.28825">
        <ele>748.4</ele>
        <time>2021-03-02T10:22:59.973Z</time>
      </trkpt>
      <trkpt lat="44.13126" lon="6.28841">
        <ele>748.4</ele>
        <time>2021-03-02T10:23:02.976Z</time>
      </trkpt>
      <trkpt lat="44.13122" lon="6.28859">
        <ele>748.4</ele>
        <time>2021-03-02T10:23:06.960Z</time>
      </trkpt>
      <trkpt lat="44.13119" lon="6.28872">
        <ele>748.3</ele>
        <time>2021-03-02T10:23:09.976Z</time>
      </trkpt>
      <trkpt lat="44.13118" lon="6.28888">
        <ele>749.2</ele>
        <time>2021-03-02T10:23:13.731Z</time>
      </trkpt>
      <trkpt lat="44.13117" lon="6.28903">
        <ele>749.2</ele>
        <time>2021-03-02T10:23:18.000Z</time>
      </trkpt>
      <trkpt lat="44.13116" lon="6.2892">
        <ele>749</ele>
        <time>2021-03-02T10:23:20.958Z</time>
      </trkpt>
      <trkpt lat="44.13115" lon="6.28936">
        <ele>749</ele>
        <time>2021-03-02T10:23:24.714Z</time>
      </trkpt>
      <trkpt lat="44.13114" lon="6.28954">
        <ele>749</ele>
        <time>2021-03-02T10:23:28.293Z</time>
      </trkpt>
      <trkpt lat="44.13112" lon="6.28973">
        <ele>749</ele>
        <time>2021-03-02T10:23:31.981Z</time>
      </trkpt>
      <trkpt lat="44.1311" lon="6.28986">
        <ele>749</ele>
        <time>2021-03-02T10:23:34.985Z</time>
      </trkpt>
      <trkpt lat="44.13107" lon="6.29003">
        <ele>749.8</ele>
        <time>2021-03-02T10:23:38.973Z</time>
      </trkpt>
      <trkpt lat="44.13105" lon="6.29018">
        <ele>750</ele>
        <time>2021-03-02T10:23:42.794Z</time>
      </trkpt>
      <trkpt lat="44.13103" lon="6.29031">
        <ele>750</ele>
        <time>2021-03-02T10:23:45.959Z</time>
      </trkpt>
      <trkpt lat="44.131" lon="6.29044">
        <ele>750</ele>
        <time>2021-03-02T10:23:48.973Z</time>
      </trkpt>
      <trkpt lat="44.13097" lon="6.2906">
        <ele>755.1</ele>
        <time>2021-03-02T10:23:52.704Z</time>
      </trkpt>
      <trkpt lat="44.13095" lon="6.29074">
        <ele>755.1</ele>
        <time>2021-03-02T10:23:55.962Z</time>
      </trkpt>
      <trkpt lat="44.13097" lon="6.29088">
        <ele>755.7</ele>
        <time>2021-03-02T10:23:58.970Z</time>
      </trkpt>
      <trkpt lat="44.13101" lon="6.29101">
        <ele>755.4</ele>
        <time>2021-03-02T10:24:02.112Z</time>
      </trkpt>
      <trkpt lat="44.13107" lon="6.29116">
        <ele>755.5</ele>
        <time>2021-03-02T10:24:05.962Z</time>
      </trkpt>
      <trkpt lat="44.13113" lon="6.29129">
        <ele>755.5</ele>
        <time>2021-03-02T10:24:08.970Z</time>
      </trkpt>
      <trkpt lat="44.13116" lon="6.29142">
        <ele>755.6</ele>
        <time>2021-03-02T10:24:12.098Z</time>
      </trkpt>
      <trkpt lat="44.13122" lon="6.29163">
        <ele>755.7</ele>
        <time>2021-03-02T10:24:16.973Z</time>
      </trkpt>
      <trkpt lat="44.13125" lon="6.29175">
        <ele>756.2</ele>
        <time>2021-03-02T10:24:20.202Z</time>
      </trkpt>
      <trkpt lat="44.13128" lon="6.29189">
        <ele>756.7</ele>
        <time>2021-03-02T10:24:24.034Z</time>
      </trkpt>
      <trkpt lat="44.13134" lon="6.29207">
        <ele>756.7</ele>
        <time>2021-03-02T10:24:27.934Z</time>
      </trkpt>
      <trkpt lat="44.13135" lon="6.29222">
        <ele>752</ele>
        <time>2021-03-02T10:24:30.993Z</time>
      </trkpt>
      <trkpt lat="44.13136" lon="6.29243">
        <ele>752</ele>
        <time>2021-03-02T10:24:34.966Z</time>
      </trkpt>
      <trkpt lat="44.13139" lon="6.29256">
        <ele>755.1</ele>
        <time>2021-03-02T10:24:37.968Z</time>
      </trkpt>
      <trkpt lat="44.13141" lon="6.29268">
        <ele>755.2</ele>
        <time>2021-03-02T10:24:40.973Z</time>
      </trkpt>
      <trkpt lat="44.13145" lon="6.29284">
        <ele>755.3</ele>
        <time>2021-03-02T10:24:44.960Z</time>
      </trkpt>
      <trkpt lat="44.13148" lon="6.29299">
        <ele>755.5</ele>
        <time>2021-03-02T10:24:48.614Z</time>
      </trkpt>
      <trkpt lat="44.13151" lon="6.29315">
        <ele>755.6</ele>
        <time>2021-03-02T10:24:51.977Z</time>
      </trkpt>
      <trkpt lat="44.13155" lon="6.29333">
        <ele>755.5</ele>
        <time>2021-03-02T10:24:55.968Z</time>
      </trkpt>
      <trkpt lat="44.13158" lon="6.29346">
        <ele>755.3</ele>
        <time>2021-03-02T10:24:59.025Z</time>
      </trkpt>
      <trkpt lat="44.13161" lon="6.29359">
        <ele>755.4</ele>
        <time>2021-03-02T10:25:02.420Z</time>
      </trkpt>
      <trkpt lat="44.13164" lon="6.29377">
        <ele>755.7</ele>
        <time>2021-03-02T10:25:06.421Z</time>
      </trkpt>
      <trkpt lat="44.13167" lon="6.29391">
        <ele>755.8</ele>
        <time>2021-03-02T10:25:09.719Z</time>
      </trkpt>
      <trkpt lat="44.13171" lon="6.29407">
        <ele>756.2</ele>
        <time>2021-03-02T10:25:13.966Z</time>
      </trkpt>
      <trkpt lat="44.13176" lon="6.29417">
        <ele>756.2</ele>
        <time>2021-03-02T10:25:18.000Z</time>
      </trkpt>
      <trkpt lat="44.13177" lon="6.29428">
        <ele>754.3</ele>
        <time>2021-03-02T10:25:20.762Z</time>
      </trkpt>
      <trkpt lat="44.13179" lon="6.29441">
        <ele>754.3</ele>
        <time>2021-03-02T10:25:23.966Z</time>
      </trkpt>
      <trkpt lat="44.13182" lon="6.29454">
        <ele>754.1</ele>
        <time>2021-03-02T10:25:27.232Z</time>
      </trkpt>
      <trkpt lat="44.13186" lon="6.29471">
        <ele>754.2</ele>
        <time>2021-03-02T10:25:30.740Z</time>
      </trkpt>
      <trkpt lat="44.13188" lon="6.29487">
        <ele>754.5</ele>
        <time>2021-03-02T10:25:34.201Z</time>
      </trkpt>
      <trkpt lat="44.13193" lon="6.29507">
        <ele>754.5</ele>
        <time>2021-03-02T10:25:37.960Z</time>
      </trkpt>
      <trkpt lat="44.13196" lon="6.2952">
        <ele>754.5</ele>
        <time>2021-03-02T10:25:41.001Z</time>
      </trkpt>
      <trkpt lat="44.132" lon="6.29536">
        <ele>754.7</ele>
        <time>2021-03-02T10:25:44.979Z</time>
      </trkpt>
      <trkpt lat="44.13206" lon="6.29551">
        <ele>755.1</ele>
        <time>2021-03-02T10:25:48.463Z</time>
      </trkpt>
      <trkpt lat="44.13217" lon="6.29563">
        <ele>755</ele>
        <time>2021-03-02T10:25:52.356Z</time>
      </trkpt>
      <trkpt lat="44.13228" lon="6.29571">
        <ele>755.3</ele>
        <time>2021-03-02T10:25:56.000Z</time>
      </trkpt>
      <trkpt lat="44.13242" lon="6.29582">
        <ele>755.3</ele>
        <time>2021-03-02T10:26:00.026Z</time>
      </trkpt>
      <trkpt lat="44.13254" lon="6.29589">
        <ele>755.5</ele>
        <time>2021-03-02T10:26:03.058Z</time>
      </trkpt>
      <trkpt lat="44.13268" lon="6.29594">
        <ele>755.6</ele>
        <time>2021-03-02T10:26:06.983Z</time>
      </trkpt>
      <trkpt lat="44.13275" lon="6.29597">
        <ele>755.8</ele>
        <time>2021-03-02T10:26:12.000Z</time>
      </trkpt>
      <trkpt lat="44.13285" lon="6.29605">
        <ele>755.9</ele>
        <time>2021-03-02T10:26:14.012Z</time>
      </trkpt>
      <trkpt lat="44.13302" lon="6.29615">
        <ele>755.9</ele>
        <time>2021-03-02T10:26:17.928Z</time>
      </trkpt>
      <trkpt lat="44.13313" lon="6.29623">
        <ele>755.8</ele>
        <time>2021-03-02T10:26:20.971Z</time>
      </trkpt>
      <trkpt lat="44.13321" lon="6.29629">
        <ele>755.9</ele>
        <time>2021-03-02T10:26:23.975Z</time>
      </trkpt>
      <trkpt lat="44.13332" lon="6.29638">
        <ele>755.9</ele>
        <time>2021-03-02T10:26:27.959Z</time>
      </trkpt>
      <trkpt lat="44.13338" lon="6.29653">
        <ele>756</ele>
        <time>2021-03-02T10:26:31.970Z</time>
      </trkpt>
      <trkpt lat="44.13341" lon="6.29665">
        <ele>756.2</ele>
        <time>2021-03-02T10:26:35.018Z</time>
      </trkpt>
      <trkpt lat="44.13346" lon="6.29682">
        <ele>756.2</ele>
        <time>2021-03-02T10:26:38.967Z</time>
      </trkpt>
      <trkpt lat="44.13351" lon="6.29697">
        <ele>756.3</ele>
        <time>2021-03-02T10:26:41.969Z</time>
      </trkpt>
      <trkpt lat="44.13354" lon="6.29713">
        <ele>756.3</ele>
        <time>2021-03-02T10:26:44.972Z</time>
      </trkpt>
      <trkpt lat="44.13355" lon="6.29736">
        <ele>756.4</ele>
        <time>2021-03-02T10:26:49.100Z</time>
      </trkpt>
      <trkpt lat="44.13351" lon="6.29757">
        <ele>756.5</ele>
        <time>2021-03-02T10:26:54.000Z</time>
      </trkpt>
      <trkpt lat="44.13353" lon="6.29771">
        <ele>756.5</ele>
        <time>2021-03-02T10:26:55.992Z</time>
      </trkpt>
      <trkpt lat="44.13369" lon="6.2978">
        <ele>756.5</ele>
        <time>2021-03-02T10:26:59.967Z</time>
      </trkpt>
      <trkpt lat="44.13377" lon="6.29784">
        <ele>756.1</ele>
        <time>2021-03-02T10:27:03.461Z</time>
      </trkpt>
      <trkpt lat="44.13391" lon="6.29787">
        <ele>756.1</ele>
        <time>2021-03-02T10:27:06.965Z</time>
      </trkpt>
      <trkpt lat="44.13401" lon="6.29791">
        <ele>756.2</ele>
        <time>2021-03-02T10:27:09.975Z</time>
      </trkpt>
      <trkpt lat="44.13407" lon="6.29785">
        <ele>756.1</ele>
        <time>2021-03-02T10:27:13.974Z</time>
      </trkpt>
      <trkpt lat="44.13412" lon="6.29788">
        <ele>756.2</ele>
        <time>2021-03-02T10:27:24.960Z</time>
      </trkpt>
      <trkpt lat="44.1342" lon="6.29801">
        <ele>756.2</ele>
        <time>2021-03-02T10:27:28.203Z</time>
      </trkpt>
      <trkpt lat="44.13425" lon="6.29822">
        <ele>756.3</ele>
        <time>2021-03-02T10:27:31.963Z</time>
      </trkpt>
      <trkpt lat="44.13425" lon="6.29844">
        <ele>756.2</ele>
        <time>2021-03-02T10:27:36.039Z</time>
      </trkpt>
      <trkpt lat="44.13429" lon="6.29858">
        <ele>756</ele>
        <time>2021-03-02T10:27:39.264Z</time>
      </trkpt>
      <trkpt lat="44.1343" lon="6.2987">
        <ele>755.9</ele>
        <time>2021-03-02T10:27:42.546Z</time>
      </trkpt>
      <trkpt lat="44.13438" lon="6.29872">
        <ele>755.6</ele>
        <time>2021-03-02T10:27:45.961Z</time>
      </trkpt>
      <trkpt lat="44.13446" lon="6.29871">
        <ele>755.6</ele>
        <time>2021-03-02T10:27:48.969Z</time>
      </trkpt>
      <trkpt lat="44.13453" lon="6.2987">
        <ele>755.6</ele>
        <time>2021-03-02T10:27:52.038Z</time>
      </trkpt>
      <trkpt lat="44.13462" lon="6.29874">
        <ele>755.6</ele>
        <time>2021-03-02T10:27:55.970Z</time>
      </trkpt>
      <trkpt lat="44.13467" lon="6.29894">
        <ele>754.4</ele>
        <time>2021-03-02T10:27:59.970Z</time>
      </trkpt>
      <trkpt lat="44.13471" lon="6.29906">
        <ele>754.4</ele>
        <time>2021-03-02T10:28:03.393Z</time>
      </trkpt>
      <trkpt lat="44.13478" lon="6.29913">
        <ele>754.4</ele>
        <time>2021-03-02T10:28:07.972Z</time>
      </trkpt>
      <trkpt lat="44.13483" lon="6.29913">
        <ele>754.5</ele>
        <time>2021-03-02T10:28:15.345Z</time>
      </trkpt>
      <trkpt lat="44.13484" lon="6.29921">
        <ele>754.2</ele>
        <time>2021-03-02T10:28:24.000Z</time>
      </trkpt>
      <trkpt lat="44.13492" lon="6.2993">
        <ele>754.2</ele>
        <time>2021-03-02T10:28:29.976Z</time>
      </trkpt>
      <trkpt lat="44.13498" lon="6.29927">
        <ele>754</ele>
        <time>2021-03-02T10:28:33.678Z</time>
      </trkpt>
      <trkpt lat="44.13501" lon="6.29916">
        <ele>754</ele>
        <time>2021-03-02T10:28:40.973Z</time>
      </trkpt>
      <trkpt lat="44.1351" lon="6.29911">
        <ele>755.2</ele>
        <time>2021-03-02T10:28:45.083Z</time>
      </trkpt>
      <trkpt lat="44.1352" lon="6.29902">
        <ele>755.2</ele>
        <time>2021-03-02T10:28:49.036Z</time>
      </trkpt>
      <trkpt lat="44.1353" lon="6.29893">
        <ele>755.5</ele>
        <time>2021-03-02T10:28:52.122Z</time>
      </trkpt>
      <trkpt lat="44.13542" lon="6.29902">
        <ele>755.5</ele>
        <time>2021-03-02T10:28:55.978Z</time>
      </trkpt>
      <trkpt lat="44.13548" lon="6.29913">
        <ele>755.5</ele>
        <time>2021-03-02T10:28:59.977Z</time>
      </trkpt>
      <trkpt lat="44.13554" lon="6.29925">
        <ele>757.1</ele>
        <time>2021-03-02T10:29:03.659Z</time>
      </trkpt>
      <trkpt lat="44.13563" lon="6.29931">
        <ele>757.1</ele>
        <time>2021-03-02T10:29:06.783Z</time>
      </trkpt>
      <trkpt lat="44.13572" lon="6.29936">
        <ele>757.8</ele>
        <time>2021-03-02T10:29:09.797Z</time>
      </trkpt>
      <trkpt lat="44.1358" lon="6.29938">
        <ele>757.8</ele>
        <time>2021-03-02T10:29:12.971Z</time>
      </trkpt>
      <trkpt lat="44.13586" lon="6.29937">
        <ele>757.8</ele>
        <time>2021-03-02T10:29:17.008Z</time>
      </trkpt>
      <trkpt lat="44.13596" lon="6.29938">
        <ele>758.5</ele>
        <time>2021-03-02T10:29:20.963Z</time>
      </trkpt>
      <trkpt lat="44.13604" lon="6.29935">
        <ele>759.2</ele>
        <time>2021-03-02T10:29:24.398Z</time>
      </trkpt>
      <trkpt lat="44.13612" lon="6.29935">
        <ele>759.3</ele>
        <time>2021-03-02T10:29:27.834Z</time>
      </trkpt>
      <trkpt lat="44.13622" lon="6.29936">
        <ele>760.2</ele>
        <time>2021-03-02T10:29:31.747Z</time>
      </trkpt>
      <trkpt lat="44.1363" lon="6.29937">
        <ele>760.2</ele>
        <time>2021-03-02T10:29:34.974Z</time>
      </trkpt>
      <trkpt lat="44.13639" lon="6.29937">
        <ele>760.3</ele>
        <time>2021-03-02T10:29:38.004Z</time>
      </trkpt>
      <trkpt lat="44.13646" lon="6.29936">
        <ele>761.6</ele>
        <time>2021-03-02T10:29:41.972Z</time>
      </trkpt>
      <trkpt lat="44.13656" lon="6.29935">
        <ele>761.7</ele>
        <time>2021-03-02T10:29:45.962Z</time>
      </trkpt>
      <trkpt lat="44.13663" lon="6.29936">
        <ele>761.9</ele>
        <time>2021-03-02T10:29:49.964Z</time>
      </trkpt>
      <trkpt lat="44.1367" lon="6.29934">
        <ele>762</ele>
        <time>2021-03-02T10:29:53.032Z</time>
      </trkpt>
      <trkpt lat="44.1368" lon="6.29928">
        <ele>762.1</ele>
        <time>2021-03-02T10:29:56.634Z</time>
      </trkpt>
      <trkpt lat="44.13691" lon="6.29925">
        <ele>762.1</ele>
        <time>2021-03-02T10:30:00.004Z</time>
      </trkpt>
      <trkpt lat="44.13703" lon="6.29921">
        <ele>762.1</ele>
        <time>2021-03-02T10:30:03.680Z</time>
      </trkpt>
      <trkpt lat="44.13713" lon="6.29915">
        <ele>762.9</ele>
        <time>2021-03-02T10:30:07.197Z</time>
      </trkpt>
      <trkpt lat="44.13725" lon="6.29906">
        <ele>762.9</ele>
        <time>2021-03-02T10:30:10.837Z</time>
      </trkpt>
      <trkpt lat="44.13734" lon="6.299">
        <ele>763.3</ele>
        <time>2021-03-02T10:30:15.000Z</time>
      </trkpt>
      <trkpt lat="44.13744" lon="6.29897">
        <ele>763.3</ele>
        <time>2021-03-02T10:30:17.458Z</time>
      </trkpt>
      <trkpt lat="44.13755" lon="6.29896">
        <ele>763.7</ele>
        <time>2021-03-02T10:30:20.934Z</time>
      </trkpt>
      <trkpt lat="44.13763" lon="6.29894">
        <ele>763.7</ele>
        <time>2021-03-02T10:30:24.444Z</time>
      </trkpt>
      <trkpt lat="44.13773" lon="6.29887">
        <ele>763.7</ele>
        <time>2021-03-02T10:30:27.838Z</time>
      </trkpt>
      <trkpt lat="44.13784" lon="6.2988">
        <ele>764.4</ele>
        <time>2021-03-02T10:30:31.338Z</time>
      </trkpt>
      <trkpt lat="44.13793" lon="6.29874">
        <ele>764.3</ele>
        <time>2021-03-02T10:30:36.000Z</time>
      </trkpt>
      <trkpt lat="44.13801" lon="6.29866">
        <ele>765.1</ele>
        <time>2021-03-02T10:30:39.000Z</time>
      </trkpt>
      <trkpt lat="44.13809" lon="6.29861">
        <ele>765.1</ele>
        <time>2021-03-02T10:30:41.354Z</time>
      </trkpt>
      <trkpt lat="44.13818" lon="6.29858">
        <ele>765.1</ele>
        <time>2021-03-02T10:30:45.213Z</time>
      </trkpt>
      <trkpt lat="44.13824" lon="6.29856">
        <ele>765.2</ele>
        <time>2021-03-02T10:30:48.243Z</time>
      </trkpt>
      <trkpt lat="44.13832" lon="6.29854">
        <ele>765.2</ele>
        <time>2021-03-02T10:30:51.483Z</time>
      </trkpt>
      <trkpt lat="44.13843" lon="6.29854">
        <ele>766.9</ele>
        <time>2021-03-02T10:30:54.621Z</time>
      </trkpt>
      <trkpt lat="44.13853" lon="6.29857">
        <ele>767</ele>
        <time>2021-03-02T10:30:58.077Z</time>
      </trkpt>
      <trkpt lat="44.1386" lon="6.29862">
        <ele>767.5</ele>
        <time>2021-03-02T10:31:01.814Z</time>
      </trkpt>
      <trkpt lat="44.13867" lon="6.29866">
        <ele>767.4</ele>
        <time>2021-03-02T10:31:04.974Z</time>
      </trkpt>
      <trkpt lat="44.13875" lon="6.29875">
        <ele>767.4</ele>
        <time>2021-03-02T10:31:08.974Z</time>
      </trkpt>
      <trkpt lat="44.13885" lon="6.29882">
        <ele>767.8</ele>
        <time>2021-03-02T10:31:12.768Z</time>
      </trkpt>
      <trkpt lat="44.13894" lon="6.29888">
        <ele>767.7</ele>
        <time>2021-03-02T10:31:16.185Z</time>
      </trkpt>
      <trkpt lat="44.13903" lon="6.29892">
        <ele>767.7</ele>
        <time>2021-03-02T10:31:19.976Z</time>
      </trkpt>
      <trkpt lat="44.13918" lon="6.29895">
        <ele>767.7</ele>
        <time>2021-03-02T10:31:23.980Z</time>
      </trkpt>
      <trkpt lat="44.13928" lon="6.29897">
        <ele>767.8</ele>
        <time>2021-03-02T10:31:27.967Z</time>
      </trkpt>
      <trkpt lat="44.13942" lon="6.29896">
        <ele>768</ele>
        <time>2021-03-02T10:31:33.000Z</time>
      </trkpt>
      <trkpt lat="44.13954" lon="6.29897">
        <ele>768</ele>
        <time>2021-03-02T10:31:35.196Z</time>
      </trkpt>
      <trkpt lat="44.13969" lon="6.299">
        <ele>768</ele>
        <time>2021-03-02T10:31:38.978Z</time>
      </trkpt>
      <trkpt lat="44.13985" lon="6.29903">
        <ele>768</ele>
        <time>2021-03-02T10:31:42.969Z</time>
      </trkpt>
      <trkpt lat="44.14011" lon="6.29905">
        <ele>768</ele>
        <time>2021-03-02T10:31:48.000Z</time>
      </trkpt>
      <trkpt lat="44.14016" lon="6.2991">
        <ele>767</ele>
        <time>2021-03-02T10:31:50.966Z</time>
      </trkpt>
      <trkpt lat="44.14048" lon="6.29912">
        <ele>766.8</ele>
        <time>2021-03-02T10:31:57.000Z</time>
      </trkpt>
      <trkpt lat="44.14059" lon="6.29898">
        <ele>766.4</ele>
        <time>2021-03-02T10:31:58.974Z</time>
      </trkpt>
      <trkpt lat="44.14074" lon="6.299">
        <ele>766.5</ele>
        <time>2021-03-02T10:32:02.975Z</time>
      </trkpt>
      <trkpt lat="44.14087" lon="6.29912">
        <ele>766.5</ele>
        <time>2021-03-02T10:32:06.965Z</time>
      </trkpt>
      <trkpt lat="44.14098" lon="6.29923">
        <ele>764.7</ele>
        <time>2021-03-02T10:32:10.725Z</time>
      </trkpt>
      <trkpt lat="44.14107" lon="6.29931">
        <ele>764.7</ele>
        <time>2021-03-02T10:32:15.000Z</time>
      </trkpt>
      <trkpt lat="44.14117" lon="6.29942">
        <ele>763.7</ele>
        <time>2021-03-02T10:32:16.971Z</time>
      </trkpt>
      <trkpt lat="44.14131" lon="6.29958">
        <ele>763.8</ele>
        <time>2021-03-02T10:32:20.035Z</time>
      </trkpt>
      <trkpt lat="44.14145" lon="6.29975">
        <ele>763.5</ele>
        <time>2021-03-02T10:32:23.975Z</time>
      </trkpt>
      <trkpt lat="44.14156" lon="6.29992">
        <ele>763.5</ele>
        <time>2021-03-02T10:32:27.978Z</time>
      </trkpt>
      <trkpt lat="44.14165" lon="6.30009">
        <ele>764.1</ele>
        <time>2021-03-02T10:32:31.968Z</time>
      </trkpt>
      <trkpt lat="44.14171" lon="6.30017">
        <ele>763.9</ele>
        <time>2021-03-02T10:32:35.018Z</time>
      </trkpt>
      <trkpt lat="44.14179" lon="6.30023">
        <ele>764</ele>
        <time>2021-03-02T10:32:38.805Z</time>
      </trkpt>
      <trkpt lat="44.14184" lon="6.30032">
        <ele>763.8</ele>
        <time>2021-03-02T10:32:42.241Z</time>
      </trkpt>
      <trkpt lat="44.14193" lon="6.30043">
        <ele>763.9</ele>
        <time>2021-03-02T10:32:45.681Z</time>
      </trkpt>
      <trkpt lat="44.142" lon="6.30054">
        <ele>763.9</ele>
        <time>2021-03-02T10:32:48.958Z</time>
      </trkpt>
      <trkpt lat="44.14209" lon="6.30068">
        <ele>765.6</ele>
        <time>2021-03-02T10:32:52.734Z</time>
      </trkpt>
      <trkpt lat="44.14214" lon="6.30079">
        <ele>765.7</ele>
        <time>2021-03-02T10:32:55.969Z</time>
      </trkpt>
      <trkpt lat="44.14221" lon="6.3009">
        <ele>765.8</ele>
        <time>2021-03-02T10:32:58.969Z</time>
      </trkpt>
      <trkpt lat="44.14226" lon="6.30096">
        <ele>765.8</ele>
        <time>2021-03-02T10:33:02.021Z</time>
      </trkpt>
      <trkpt lat="44.14232" lon="6.30102">
        <ele>765.8</ele>
        <time>2021-03-02T10:33:06.025Z</time>
      </trkpt>
      <trkpt lat="44.1424" lon="6.30116">
        <ele>765.9</ele>
        <time>2021-03-02T10:33:09.960Z</time>
      </trkpt>
      <trkpt lat="44.14246" lon="6.30126">
        <ele>766.9</ele>
        <time>2021-03-02T10:33:13.965Z</time>
      </trkpt>
      <trkpt lat="44.14252" lon="6.30134">
        <ele>766.9</ele>
        <time>2021-03-02T10:33:16.969Z</time>
      </trkpt>
      <trkpt lat="44.14251" lon="6.30147">
        <ele>768.1</ele>
        <time>2021-03-02T10:33:20.924Z</time>
      </trkpt>
      <trkpt lat="44.14246" lon="6.30154">
        <ele>768.4</ele>
        <time>2021-03-02T10:33:23.964Z</time>
      </trkpt>
      <trkpt lat="44.14242" lon="6.30166">
        <ele>768.6</ele>
        <time>2021-03-02T10:33:27.358Z</time>
      </trkpt>
      <trkpt lat="44.14238" lon="6.30177">
        <ele>768.7</ele>
        <time>2021-03-02T10:33:30.972Z</time>
      </trkpt>
      <trkpt lat="44.14234" lon="6.30185">
        <ele>768.8</ele>
        <time>2021-03-02T10:33:33.973Z</time>
      </trkpt>
      <trkpt lat="44.14236" lon="6.30195">
        <ele>768.7</ele>
        <time>2021-03-02T10:33:37.971Z</time>
      </trkpt>
      <trkpt lat="44.14241" lon="6.30206">
        <ele>770.5</ele>
        <time>2021-03-02T10:33:41.961Z</time>
      </trkpt>
      <trkpt lat="44.14251" lon="6.30214">
        <ele>770.5</ele>
        <time>2021-03-02T10:33:45.156Z</time>
      </trkpt>
      <trkpt lat="44.14264" lon="6.30223">
        <ele>770.5</ele>
        <time>2021-03-02T10:33:48.964Z</time>
      </trkpt>
      <trkpt lat="44.14276" lon="6.30231">
        <ele>770.5</ele>
        <time>2021-03-02T10:33:51.966Z</time>
      </trkpt>
      <trkpt lat="44.14289" lon="6.30233">
        <ele>770.5</ele>
        <time>2021-03-02T10:33:55.275Z</time>
      </trkpt>
      <trkpt lat="44.14301" lon="6.30233">
        <ele>770.5</ele>
        <time>2021-03-02T10:34:00.000Z</time>
      </trkpt>
      <trkpt lat="44.14314" lon="6.30245">
        <ele>770.6</ele>
        <time>2021-03-02T10:34:02.952Z</time>
      </trkpt>
      <trkpt lat="44.14325" lon="6.30254">
        <ele>771.9</ele>
        <time>2021-03-02T10:34:06.787Z</time>
      </trkpt>
      <trkpt lat="44.14334" lon="6.30262">
        <ele>771.9</ele>
        <time>2021-03-02T10:34:10.343Z</time>
      </trkpt>
      <trkpt lat="44.14339" lon="6.30266">
        <ele>772.5</ele>
        <time>2021-03-02T10:34:13.970Z</time>
      </trkpt>
      <trkpt lat="44.14346" lon="6.30273">
        <ele>772.4</ele>
        <time>2021-03-02T10:34:16.972Z</time>
      </trkpt>
      <trkpt lat="44.14347" lon="6.30294">
        <ele>772.7</ele>
        <time>2021-03-02T10:34:21.085Z</time>
      </trkpt>
      <trkpt lat="44.14351" lon="6.30309">
        <ele>772.7</ele>
        <time>2021-03-02T10:34:24.970Z</time>
      </trkpt>
      <trkpt lat="44.14356" lon="6.3032">
        <ele>772.7</ele>
        <time>2021-03-02T10:34:27.971Z</time>
      </trkpt>
      <trkpt lat="44.14367" lon="6.30332">
        <ele>774.1</ele>
        <time>2021-03-02T10:34:31.977Z</time>
      </trkpt>
      <trkpt lat="44.14374" lon="6.30333">
        <ele>774.7</ele>
        <time>2021-03-02T10:34:35.028Z</time>
      </trkpt>
      <trkpt lat="44.14384" lon="6.30341">
        <ele>774.8</ele>
        <time>2021-03-02T10:34:42.000Z</time>
      </trkpt>
      <trkpt lat="44.14392" lon="6.30346">
        <ele>774.8</ele>
        <time>2021-03-02T10:34:45.000Z</time>
      </trkpt>
      <trkpt lat="44.14406" lon="6.30357">
        <ele>774.8</ele>
        <time>2021-03-02T10:34:51.000Z</time>
      </trkpt>
      <trkpt lat="44.14421" lon="6.30373">
        <ele>777.9</ele>
        <time>2021-03-02T10:34:57.000Z</time>
      </trkpt>
      <trkpt lat="44.14428" lon="6.30379">
        <ele>778.2</ele>
        <time>2021-03-02T10:35:00.000Z</time>
      </trkpt>
      <trkpt lat="44.14442" lon="6.30394">
        <ele>778.3</ele>
        <time>2021-03-02T10:35:06.000Z</time>
      </trkpt>
      <trkpt lat="44.14449" lon="6.30403">
        <ele>779.4</ele>
        <time>2021-03-02T10:35:09.000Z</time>
      </trkpt>
      <trkpt lat="44.14457" lon="6.30415">
        <ele>779.7</ele>
        <time>2021-03-02T10:35:11.046Z</time>
      </trkpt>
      <trkpt lat="44.14479" lon="6.30439">
        <ele>779.8</ele>
        <time>2021-03-02T10:35:18.000Z</time>
      </trkpt>
      <trkpt lat="44.14489" lon="6.30435">
        <ele>780.1</ele>
        <time>2021-03-02T10:35:19.972Z</time>
      </trkpt>
      <trkpt lat="44.14506" lon="6.30451">
        <ele>780.2</ele>
        <time>2021-03-02T10:35:23.960Z</time>
      </trkpt>
      <trkpt lat="44.14516" lon="6.30464">
        <ele>780.4</ele>
        <time>2021-03-02T10:35:27.470Z</time>
      </trkpt>
      <trkpt lat="44.14529" lon="6.30468">
        <ele>780.4</ele>
        <time>2021-03-02T10:35:30.963Z</time>
      </trkpt>
      <trkpt lat="44.14541" lon="6.30477">
        <ele>780.5</ele>
        <time>2021-03-02T10:35:36.000Z</time>
      </trkpt>
      <trkpt lat="44.1455" lon="6.30488">
        <ele>780.4</ele>
        <time>2021-03-02T10:35:38.022Z</time>
      </trkpt>
      <trkpt lat="44.1456" lon="6.30506">
        <ele>780.3</ele>
        <time>2021-03-02T10:35:41.998Z</time>
      </trkpt>
      <trkpt lat="44.14574" lon="6.30524">
        <ele>780.3</ele>
        <time>2021-03-02T10:35:45.963Z</time>
      </trkpt>
      <trkpt lat="44.1458" lon="6.30541">
        <ele>780.8</ele>
        <time>2021-03-02T10:35:50.002Z</time>
      </trkpt>
      <trkpt lat="44.1459" lon="6.30551">
        <ele>780.6</ele>
        <time>2021-03-02T10:35:53.501Z</time>
      </trkpt>
      <trkpt lat="44.146" lon="6.30559">
        <ele>780.6</ele>
        <time>2021-03-02T10:35:56.972Z</time>
      </trkpt>
      <trkpt lat="44.14609" lon="6.30563">
        <ele>780.6</ele>
        <time>2021-03-02T10:36:00.427Z</time>
      </trkpt>
      <trkpt lat="44.14618" lon="6.30568">
        <ele>780.6</ele>
        <time>2021-03-02T10:36:04.018Z</time>
      </trkpt>
      <trkpt lat="44.14634" lon="6.3057">
        <ele>780.6</ele>
        <time>2021-03-02T10:36:07.963Z</time>
      </trkpt>
      <trkpt lat="44.14644" lon="6.30569">
        <ele>780.6</ele>
        <time>2021-03-02T10:36:10.979Z</time>
      </trkpt>
      <trkpt lat="44.14656" lon="6.30572">
        <ele>782</ele>
        <time>2021-03-02T10:36:15.033Z</time>
      </trkpt>
      <trkpt lat="44.14664" lon="6.30583">
        <ele>783.1</ele>
        <time>2021-03-02T10:36:18.399Z</time>
      </trkpt>
      <trkpt lat="44.14668" lon="6.30596">
        <ele>783.4</ele>
        <time>2021-03-02T10:36:21.982Z</time>
      </trkpt>
      <trkpt lat="44.1467" lon="6.30611">
        <ele>783.4</ele>
        <time>2021-03-02T10:36:25.967Z</time>
      </trkpt>
      <trkpt lat="44.1467" lon="6.3062">
        <ele>785.7</ele>
        <time>2021-03-02T10:36:29.639Z</time>
      </trkpt>
      <trkpt lat="44.14674" lon="6.30634">
        <ele>786.7</ele>
        <time>2021-03-02T10:36:33.692Z</time>
      </trkpt>
      <trkpt lat="44.14675" lon="6.30641">
        <ele>786.9</ele>
        <time>2021-03-02T10:36:37.174Z</time>
      </trkpt>
      <trkpt lat="44.14677" lon="6.30649">
        <ele>788.3</ele>
        <time>2021-03-02T10:36:40.976Z</time>
      </trkpt>
      <trkpt lat="44.14679" lon="6.30662">
        <ele>788.2</ele>
        <time>2021-03-02T10:36:45.013Z</time>
      </trkpt>
      <trkpt lat="44.1468" lon="6.30671">
        <ele>789.3</ele>
        <time>2021-03-02T10:36:48.087Z</time>
      </trkpt>
      <trkpt lat="44.14687" lon="6.30682">
        <ele>789.8</ele>
        <time>2021-03-02T10:36:51.970Z</time>
      </trkpt>
      <trkpt lat="44.14698" lon="6.30691">
        <ele>789.8</ele>
        <time>2021-03-02T10:36:55.966Z</time>
      </trkpt>
      <trkpt lat="44.14711" lon="6.30692">
        <ele>791.1</ele>
        <time>2021-03-02T10:36:59.960Z</time>
      </trkpt>
      <trkpt lat="44.14719" lon="6.30686">
        <ele>792</ele>
        <time>2021-03-02T10:37:03.198Z</time>
      </trkpt>
      <trkpt lat="44.14726" lon="6.30681">
        <ele>792</ele>
        <time>2021-03-02T10:37:06.962Z</time>
      </trkpt>
      <trkpt lat="44.14733" lon="6.3068">
        <ele>792</ele>
        <time>2021-03-02T10:37:09.970Z</time>
      </trkpt>
      <trkpt lat="44.14737" lon="6.30685">
        <ele>793.6</ele>
        <time>2021-03-02T10:37:13.157Z</time>
      </trkpt>
      <trkpt lat="44.14737" lon="6.30695">
        <ele>793.7</ele>
        <time>2021-03-02T10:37:16.964Z</time>
      </trkpt>
      <trkpt lat="44.14736" lon="6.30704">
        <ele>796.1</ele>
        <time>2021-03-02T10:37:22.973Z</time>
      </trkpt>
      <trkpt lat="44.14732" lon="6.3071">
        <ele>796</ele>
        <time>2021-03-02T10:37:26.068Z</time>
      </trkpt>
      <trkpt lat="44.14727" lon="6.3072">
        <ele>797.5</ele>
        <time>2021-03-02T10:37:29.975Z</time>
      </trkpt>
      <trkpt lat="44.14726" lon="6.30727">
        <ele>797.5</ele>
        <time>2021-03-02T10:37:32.984Z</time>
      </trkpt>
      <trkpt lat="44.14724" lon="6.30739">
        <ele>800.6</ele>
        <time>2021-03-02T10:37:36.568Z</time>
      </trkpt>
      <trkpt lat="44.14721" lon="6.30751">
        <ele>800.7</ele>
        <time>2021-03-02T10:37:39.975Z</time>
      </trkpt>
      <trkpt lat="44.14719" lon="6.30761">
        <ele>802.1</ele>
        <time>2021-03-02T10:37:43.963Z</time>
      </trkpt>
      <trkpt lat="44.14719" lon="6.3077">
        <ele>802.1</ele>
        <time>2021-03-02T10:37:47.334Z</time>
      </trkpt>
      <trkpt lat="44.14717" lon="6.30782">
        <ele>803.5</ele>
        <time>2021-03-02T10:37:50.970Z</time>
      </trkpt>
      <trkpt lat="44.14717" lon="6.30791">
        <ele>803.4</ele>
        <time>2021-03-02T10:37:54.015Z</time>
      </trkpt>
      <trkpt lat="44.14715" lon="6.30803">
        <ele>803.5</ele>
        <time>2021-03-02T10:37:57.972Z</time>
      </trkpt>
      <trkpt lat="44.14711" lon="6.3081">
        <ele>803.5</ele>
        <time>2021-03-02T10:38:01.983Z</time>
      </trkpt>
      <trkpt lat="44.14706" lon="6.30819">
        <ele>807.2</ele>
        <time>2021-03-02T10:38:05.976Z</time>
      </trkpt>
      <trkpt lat="44.147" lon="6.3082">
        <ele>808.5</ele>
        <time>2021-03-02T10:38:09.450Z</time>
      </trkpt>
      <trkpt lat="44.14696" lon="6.30813">
        <ele>808.6</ele>
        <time>2021-03-02T10:38:12.975Z</time>
      </trkpt>
      <trkpt lat="44.14695" lon="6.30804">
        <ele>808.7</ele>
        <time>2021-03-02T10:38:16.964Z</time>
      </trkpt>
      <trkpt lat="44.14691" lon="6.30799">
        <ele>808.7</ele>
        <time>2021-03-02T10:38:19.972Z</time>
      </trkpt>
      <trkpt lat="44.14681" lon="6.30809">
        <ele>812.1</ele>
        <time>2021-03-02T10:38:23.956Z</time>
      </trkpt>
      <trkpt lat="44.14673" lon="6.30818">
        <ele>813.4</ele>
        <time>2021-03-02T10:38:27.470Z</time>
      </trkpt>
      <trkpt lat="44.14666" lon="6.30824">
        <ele>813.4</ele>
        <time>2021-03-02T10:38:30.970Z</time>
      </trkpt>
      <trkpt lat="44.14659" lon="6.30828">
        <ele>813.4</ele>
        <time>2021-03-02T10:38:34.004Z</time>
      </trkpt>
      <trkpt lat="44.14652" lon="6.3083">
        <ele>816.4</ele>
        <time>2021-03-02T10:38:37.606Z</time>
      </trkpt>
      <trkpt lat="44.14647" lon="6.30831">
        <ele>816.4</ele>
        <time>2021-03-02T10:38:40.969Z</time>
      </trkpt>
      <trkpt lat="44.14635" lon="6.30833">
        <ele>818.8</ele>
        <time>2021-03-02T10:38:47.609Z</time>
      </trkpt>
      <trkpt lat="44.14624" lon="6.30828">
        <ele>819</ele>
        <time>2021-03-02T10:38:50.973Z</time>
      </trkpt>
      <trkpt lat="44.14616" lon="6.30827">
        <ele>820.4</ele>
        <time>2021-03-02T10:38:54.696Z</time>
      </trkpt>
      <trkpt lat="44.14608" lon="6.30828">
        <ele>820.4</ele>
        <time>2021-03-02T10:38:57.965Z</time>
      </trkpt>
      <trkpt lat="44.14602" lon="6.30832">
        <ele>820.3</ele>
        <time>2021-03-02T10:39:00.973Z</time>
      </trkpt>
      <trkpt lat="44.14596" lon="6.30837">
        <ele>820.3</ele>
        <time>2021-03-02T10:39:03.984Z</time>
      </trkpt>
      <trkpt lat="44.14589" lon="6.30845">
        <ele>820.3</ele>
        <time>2021-03-02T10:39:07.970Z</time>
      </trkpt>
      <trkpt lat="44.1458" lon="6.3085">
        <ele>825.5</ele>
        <time>2021-03-02T10:39:11.979Z</time>
      </trkpt>
      <trkpt lat="44.14573" lon="6.3085">
        <ele>827.5</ele>
        <time>2021-03-02T10:39:15.497Z</time>
      </trkpt>
      <trkpt lat="44.14566" lon="6.30847">
        <ele>827.8</ele>
        <time>2021-03-02T10:39:18.974Z</time>
      </trkpt>
      <trkpt lat="44.14559" lon="6.30844">
        <ele>827.7</ele>
        <time>2021-03-02T10:39:22.981Z</time>
      </trkpt>
      <trkpt lat="44.1455" lon="6.3084">
        <ele>830.2</ele>
        <time>2021-03-02T10:39:26.489Z</time>
      </trkpt>
      <trkpt lat="44.14542" lon="6.30835">
        <ele>830.5</ele>
        <time>2021-03-02T10:39:29.960Z</time>
      </trkpt>
      <trkpt lat="44.14536" lon="6.3083">
        <ele>831.3</ele>
        <time>2021-03-02T10:39:33.168Z</time>
      </trkpt>
      <trkpt lat="44.14529" lon="6.30824">
        <ele>831.6</ele>
        <time>2021-03-02T10:39:36.947Z</time>
      </trkpt>
      <trkpt lat="44.14524" lon="6.30817">
        <ele>831.5</ele>
        <time>2021-03-02T10:39:39.968Z</time>
      </trkpt>
      <trkpt lat="44.14519" lon="6.30813">
        <ele>831.5</ele>
        <time>2021-03-02T10:39:43.975Z</time>
      </trkpt>
      <trkpt lat="44.14511" lon="6.30815">
        <ele>835.3</ele>
        <time>2021-03-02T10:39:47.966Z</time>
      </trkpt>
      <trkpt lat="44.14504" lon="6.30817">
        <ele>837.3</ele>
        <time>2021-03-02T10:39:51.026Z</time>
      </trkpt>
      <trkpt lat="44.14495" lon="6.30816">
        <ele>837.5</ele>
        <time>2021-03-02T10:39:54.966Z</time>
      </trkpt>
      <trkpt lat="44.14487" lon="6.30818">
        <ele>837.5</ele>
        <time>2021-03-02T10:39:57.969Z</time>
      </trkpt>
      <trkpt lat="44.14481" lon="6.30815">
        <ele>837.5</ele>
        <time>2021-03-02T10:40:01.959Z</time>
      </trkpt>
      <trkpt lat="44.14475" lon="6.30812">
        <ele>840.4</ele>
        <time>2021-03-02T10:40:04.969Z</time>
      </trkpt>
      <trkpt lat="44.14469" lon="6.30809">
        <ele>841.5</ele>
        <time>2021-03-02T10:40:08.014Z</time>
      </trkpt>
      <trkpt lat="44.14461" lon="6.30803">
        <ele>841.6</ele>
        <time>2021-03-02T10:40:11.978Z</time>
      </trkpt>
      <trkpt lat="44.14455" lon="6.30801">
        <ele>841.5</ele>
        <time>2021-03-02T10:40:15.043Z</time>
      </trkpt>
      <trkpt lat="44.14447" lon="6.308">
        <ele>843.8</ele>
        <time>2021-03-02T10:40:18.640Z</time>
      </trkpt>
      <trkpt lat="44.14439" lon="6.30797">
        <ele>843.8</ele>
        <time>2021-03-02T10:40:21.971Z</time>
      </trkpt>
      <trkpt lat="44.14435" lon="6.3079">
        <ele>843.9</ele>
        <time>2021-03-02T10:40:25.011Z</time>
      </trkpt>
      <trkpt lat="44.14427" lon="6.30785">
        <ele>846</ele>
        <time>2021-03-02T10:40:28.980Z</time>
      </trkpt>
      <trkpt lat="44.1442" lon="6.3078">
        <ele>847.2</ele>
        <time>2021-03-02T10:40:32.021Z</time>
      </trkpt>
      <trkpt lat="44.14413" lon="6.30774">
        <ele>847.5</ele>
        <time>2021-03-02T10:40:35.969Z</time>
      </trkpt>
      <trkpt lat="44.14406" lon="6.3077">
        <ele>847.5</ele>
        <time>2021-03-02T10:40:38.971Z</time>
      </trkpt>
      <trkpt lat="44.144" lon="6.30765">
        <ele>847.4</ele>
        <time>2021-03-02T10:40:41.976Z</time>
      </trkpt>
      <trkpt lat="44.14392" lon="6.30766">
        <ele>850.8</ele>
        <time>2021-03-02T10:40:45.531Z</time>
      </trkpt>
      <trkpt lat="44.14385" lon="6.30766">
        <ele>851.1</ele>
        <time>2021-03-02T10:40:48.948Z</time>
      </trkpt>
      <trkpt lat="44.14376" lon="6.30764">
        <ele>853.2</ele>
        <time>2021-03-02T10:40:52.971Z</time>
      </trkpt>
      <trkpt lat="44.1437" lon="6.30761">
        <ele>853.2</ele>
        <time>2021-03-02T10:40:55.977Z</time>
      </trkpt>
      <trkpt lat="44.14361" lon="6.30758">
        <ele>855.4</ele>
        <time>2021-03-02T10:41:02.979Z</time>
      </trkpt>
      <trkpt lat="44.14351" lon="6.30764">
        <ele>856.4</ele>
        <time>2021-03-02T10:41:10.513Z</time>
      </trkpt>
      <trkpt lat="44.14342" lon="6.30768">
        <ele>858.2</ele>
        <time>2021-03-02T10:41:13.972Z</time>
      </trkpt>
      <trkpt lat="44.14334" lon="6.30763">
        <ele>858.3</ele>
        <time>2021-03-02T10:41:17.966Z</time>
      </trkpt>
      <trkpt lat="44.14326" lon="6.30762">
        <ele>858.4</ele>
        <time>2021-03-02T10:41:21.983Z</time>
      </trkpt>
      <trkpt lat="44.14316" lon="6.30761">
        <ele>858.4</ele>
        <time>2021-03-02T10:41:25.974Z</time>
      </trkpt>
      <trkpt lat="44.14306" lon="6.30759">
        <ele>862.8</ele>
        <time>2021-03-02T10:41:30.039Z</time>
      </trkpt>
      <trkpt lat="44.14297" lon="6.30757">
        <ele>864.4</ele>
        <time>2021-03-02T10:41:33.744Z</time>
      </trkpt>
      <trkpt lat="44.14289" lon="6.30756">
        <ele>864.5</ele>
        <time>2021-03-02T10:41:36.991Z</time>
      </trkpt>
      <trkpt lat="44.14281" lon="6.30755">
        <ele>865.8</ele>
        <time>2021-03-02T10:41:40.046Z</time>
      </trkpt>
      <trkpt lat="44.14272" lon="6.30754">
        <ele>865.8</ele>
        <time>2021-03-02T10:41:44.015Z</time>
      </trkpt>
      <trkpt lat="44.14265" lon="6.30754">
        <ele>865.9</ele>
        <time>2021-03-02T10:41:47.649Z</time>
      </trkpt>
      <trkpt lat="44.14259" lon="6.3075">
        <ele>869.7</ele>
        <time>2021-03-02T10:41:50.929Z</time>
      </trkpt>
      <trkpt lat="44.14255" lon="6.30743">
        <ele>869.9</ele>
        <time>2021-03-02T10:41:53.968Z</time>
      </trkpt>
      <trkpt lat="44.14248" lon="6.30736">
        <ele>871.1</ele>
        <time>2021-03-02T10:41:57.717Z</time>
      </trkpt>
      <trkpt lat="44.14244" lon="6.30728">
        <ele>871.3</ele>
        <time>2021-03-02T10:42:00.971Z</time>
      </trkpt>
      <trkpt lat="44.14235" lon="6.3072">
        <ele>871.3</ele>
        <time>2021-03-02T10:42:05.015Z</time>
      </trkpt>
      <trkpt lat="44.14229" lon="6.30715">
        <ele>873.9</ele>
        <time>2021-03-02T10:42:08.673Z</time>
      </trkpt>
      <trkpt lat="44.14225" lon="6.30706">
        <ele>874.1</ele>
        <time>2021-03-02T10:42:11.991Z</time>
      </trkpt>
      <trkpt lat="44.14217" lon="6.30703">
        <ele>876.1</ele>
        <time>2021-03-02T10:42:15.770Z</time>
      </trkpt>
      <trkpt lat="44.14211" lon="6.30703">
        <ele>876.1</ele>
        <time>2021-03-02T10:42:19.002Z</time>
      </trkpt>
      <trkpt lat="44.14201" lon="6.30707">
        <ele>876.1</ele>
        <time>2021-03-02T10:42:22.957Z</time>
      </trkpt>
      <trkpt lat="44.14193" lon="6.3071">
        <ele>877.5</ele>
        <time>2021-03-02T10:42:25.985Z</time>
      </trkpt>
      <trkpt lat="44.14185" lon="6.30706">
        <ele>877.5</ele>
        <time>2021-03-02T10:42:29.711Z</time>
      </trkpt>
      <trkpt lat="44.14181" lon="6.30699">
        <ele>879.4</ele>
        <time>2021-03-02T10:42:32.942Z</time>
      </trkpt>
      <trkpt lat="44.14177" lon="6.30692">
        <ele>879.4</ele>
        <time>2021-03-02T10:42:35.982Z</time>
      </trkpt>
      <trkpt lat="44.14169" lon="6.30683">
        <ele>881.6</ele>
        <time>2021-03-02T10:42:39.996Z</time>
      </trkpt>
      <trkpt lat="44.14162" lon="6.30677">
        <ele>881.6</ele>
        <time>2021-03-02T10:42:43.982Z</time>
      </trkpt>
      <trkpt lat="44.14157" lon="6.3067">
        <ele>881.6</ele>
        <time>2021-03-02T10:42:47.972Z</time>
      </trkpt>
      <trkpt lat="44.14152" lon="6.30661">
        <ele>881.6</ele>
        <time>2021-03-02T10:42:51.978Z</time>
      </trkpt>
      <trkpt lat="44.14147" lon="6.3065">
        <ele>881.6</ele>
        <time>2021-03-02T10:42:56.011Z</time>
      </trkpt>
      <trkpt lat="44.14139" lon="6.30641">
        <ele>885.4</ele>
        <time>2021-03-02T10:42:59.978Z</time>
      </trkpt>
      <trkpt lat="44.14133" lon="6.30632">
        <ele>886.3</ele>
        <time>2021-03-02T10:43:03.350Z</time>
      </trkpt>
      <trkpt lat="44.14126" lon="6.30624">
        <ele>886.7</ele>
        <time>2021-03-02T10:43:06.974Z</time>
      </trkpt>
      <trkpt lat="44.1412" lon="6.30617">
        <ele>886.7</ele>
        <time>2021-03-02T10:43:10.965Z</time>
      </trkpt>
      <trkpt lat="44.14117" lon="6.30611">
        <ele>889.5</ele>
        <time>2021-03-02T10:43:13.969Z</time>
      </trkpt>
      <trkpt lat="44.1411" lon="6.306">
        <ele>891.4</ele>
        <time>2021-03-02T10:43:17.891Z</time>
      </trkpt>
      <trkpt lat="44.14107" lon="6.30593">
        <ele>891.5</ele>
        <time>2021-03-02T10:43:20.970Z</time>
      </trkpt>
      <trkpt lat="44.14104" lon="6.30587">
        <ele>892.3</ele>
        <time>2021-03-02T10:43:24.293Z</time>
      </trkpt>
      <trkpt lat="44.14102" lon="6.30579">
        <ele>892.6</ele>
        <time>2021-03-02T10:43:28.133Z</time>
      </trkpt>
      <trkpt lat="44.14101" lon="6.30569">
        <ele>892.6</ele>
        <time>2021-03-02T10:43:31.963Z</time>
      </trkpt>
      <trkpt lat="44.14098" lon="6.30559">
        <ele>774.9</ele>
        <time>2021-03-02T10:43:34.970Z</time>
      </trkpt>
      <trkpt lat="44.14094" lon="6.30549">
        <ele>774.9</ele>
        <time>2021-03-02T10:43:37.974Z</time>
      </trkpt>
      <trkpt lat="44.14088" lon="6.30539">
        <ele>774.9</ele>
        <time>2021-03-02T10:43:41.974Z</time>
      </trkpt>
      <trkpt lat="44.14078" lon="6.3053">
        <ele>774.9</ele>
        <time>2021-03-02T10:43:45.908Z</time>
      </trkpt>
      <trkpt lat="44.14073" lon="6.30523">
        <ele>774.9</ele>
        <time>2021-03-02T10:43:48.969Z</time>
      </trkpt>
      <trkpt lat="44.14069" lon="6.30512">
        <ele>774.9</ele>
        <time>2021-03-02T10:43:53.010Z</time>
      </trkpt>
      <trkpt lat="44.14063" lon="6.305">
        <ele>775</ele>
        <time>2021-03-02T10:43:57.013Z</time>
      </trkpt>
      <trkpt lat="44.14057" lon="6.30496">
        <ele>775.3</ele>
        <time>2021-03-02T10:44:00.068Z</time>
      </trkpt>
      <trkpt lat="44.14046" lon="6.30504">
        <ele>775.4</ele>
        <time>2021-03-02T10:44:03.967Z</time>
      </trkpt>
      <trkpt lat="44.14043" lon="6.30517">
        <ele>775.7</ele>
        <time>2021-03-02T10:44:07.117Z</time>
      </trkpt>
      <trkpt lat="44.1404" lon="6.30529">
        <ele>775.7</ele>
        <time>2021-03-02T10:44:10.731Z</time>
      </trkpt>
      <trkpt lat="44.14038" lon="6.30537">
        <ele>775.9</ele>
        <time>2021-03-02T10:44:13.968Z</time>
      </trkpt>
      <trkpt lat="44.14033" lon="6.30542">
        <ele>775.9</ele>
        <time>2021-03-02T10:44:16.968Z</time>
      </trkpt>
      <trkpt lat="44.14024" lon="6.30546">
        <ele>777.1</ele>
        <time>2021-03-02T10:44:20.950Z</time>
      </trkpt>
      <trkpt lat="44.14018" lon="6.30551">
        <ele>777.1</ele>
        <time>2021-03-02T10:44:23.968Z</time>
      </trkpt>
      <trkpt lat="44.14012" lon="6.30556">
        <ele>777.6</ele>
        <time>2021-03-02T10:44:27.651Z</time>
      </trkpt>
      <trkpt lat="44.14005" lon="6.30565">
        <ele>777.7</ele>
        <time>2021-03-02T10:44:31.753Z</time>
      </trkpt>
      <trkpt lat="44.13999" lon="6.3057">
        <ele>778.4</ele>
        <time>2021-03-02T10:44:34.970Z</time>
      </trkpt>
      <trkpt lat="44.13993" lon="6.30575">
        <ele>778.5</ele>
        <time>2021-03-02T10:44:37.970Z</time>
      </trkpt>
      <trkpt lat="44.13985" lon="6.30575">
        <ele>780.5</ele>
        <time>2021-03-02T10:44:42.169Z</time>
      </trkpt>
      <trkpt lat="44.13977" lon="6.30583">
        <ele>780.5</ele>
        <time>2021-03-02T10:44:45.964Z</time>
      </trkpt>
      <trkpt lat="44.13972" lon="6.30588">
        <ele>780.5</ele>
        <time>2021-03-02T10:44:48.968Z</time>
      </trkpt>
      <trkpt lat="44.13968" lon="6.30597">
        <ele>781.4</ele>
        <time>2021-03-02T10:44:52.115Z</time>
      </trkpt>
      <trkpt lat="44.13963" lon="6.30607">
        <ele>781.4</ele>
        <time>2021-03-02T10:44:55.972Z</time>
      </trkpt>
      <trkpt lat="44.1396" lon="6.30622">
        <ele>782.3</ele>
        <time>2021-03-02T10:44:59.912Z</time>
      </trkpt>
      <trkpt lat="44.13955" lon="6.30636">
        <ele>783</ele>
        <time>2021-03-02T10:45:03.568Z</time>
      </trkpt>
      <trkpt lat="44.13952" lon="6.30646">
        <ele>783.2</ele>
        <time>2021-03-02T10:45:06.708Z</time>
      </trkpt>
      <trkpt lat="44.13951" lon="6.30655">
        <ele>783.2</ele>
        <time>2021-03-02T10:45:09.973Z</time>
      </trkpt>
      <trkpt lat="44.13949" lon="6.30666">
        <ele>784.1</ele>
        <time>2021-03-02T10:45:13.971Z</time>
      </trkpt>
      <trkpt lat="44.13947" lon="6.30674">
        <ele>784.1</ele>
        <time>2021-03-02T10:45:16.975Z</time>
      </trkpt>
      <trkpt lat="44.13941" lon="6.30681">
        <ele>785.9</ele>
        <time>2021-03-02T10:45:20.977Z</time>
      </trkpt>
      <trkpt lat="44.13935" lon="6.3069">
        <ele>787.1</ele>
        <time>2021-03-02T10:45:24.829Z</time>
      </trkpt>
      <trkpt lat="44.13931" lon="6.30696">
        <ele>787.4</ele>
        <time>2021-03-02T10:45:27.975Z</time>
      </trkpt>
      <trkpt lat="44.13926" lon="6.30707">
        <ele>787.5</ele>
        <time>2021-03-02T10:45:31.967Z</time>
      </trkpt>
      <trkpt lat="44.13922" lon="6.30717">
        <ele>789</ele>
        <time>2021-03-02T10:45:35.992Z</time>
      </trkpt>
      <trkpt lat="44.13917" lon="6.30726">
        <ele>789.1</ele>
        <time>2021-03-02T10:45:40.035Z</time>
      </trkpt>
      <trkpt lat="44.13912" lon="6.30735">
        <ele>790.5</ele>
        <time>2021-03-02T10:45:43.968Z</time>
      </trkpt>
      <trkpt lat="44.13908" lon="6.30745">
        <ele>790.5</ele>
        <time>2021-03-02T10:45:47.963Z</time>
      </trkpt>
      <trkpt lat="44.13903" lon="6.30754">
        <ele>791.9</ele>
        <time>2021-03-02T10:45:51.110Z</time>
      </trkpt>
      <trkpt lat="44.139" lon="6.30763">
        <ele>792.1</ele>
        <time>2021-03-02T10:45:54.972Z</time>
      </trkpt>
      <trkpt lat="44.13899" lon="6.30773">
        <ele>793.5</ele>
        <time>2021-03-02T10:45:58.962Z</time>
      </trkpt>
      <trkpt lat="44.13899" lon="6.30785">
        <ele>794.1</ele>
        <time>2021-03-02T10:46:02.029Z</time>
      </trkpt>
      <trkpt lat="44.13904" lon="6.30798">
        <ele>794.5</ele>
        <time>2021-03-02T10:46:05.962Z</time>
      </trkpt>
      <trkpt lat="44.13909" lon="6.30807">
        <ele>794.5</ele>
        <time>2021-03-02T10:46:08.977Z</time>
      </trkpt>
      <trkpt lat="44.13915" lon="6.30815">
        <ele>794.5</ele>
        <time>2021-03-02T10:46:12.958Z</time>
      </trkpt>
      <trkpt lat="44.13923" lon="6.30825">
        <ele>797.3</ele>
        <time>2021-03-02T10:46:16.972Z</time>
      </trkpt>
      <trkpt lat="44.13928" lon="6.30832">
        <ele>797.3</ele>
        <time>2021-03-02T10:46:20.064Z</time>
      </trkpt>
      <trkpt lat="44.13938" lon="6.3084">
        <ele>799.9</ele>
        <time>2021-03-02T10:46:23.969Z</time>
      </trkpt>
      <trkpt lat="44.13944" lon="6.30845">
        <ele>799.9</ele>
        <time>2021-03-02T10:46:26.975Z</time>
      </trkpt>
      <trkpt lat="44.13951" lon="6.30851">
        <ele>801</ele>
        <time>2021-03-02T10:46:30.190Z</time>
      </trkpt>
      <trkpt lat="44.13959" lon="6.30856">
        <ele>801</ele>
        <time>2021-03-02T10:46:33.981Z</time>
      </trkpt>
      <trkpt lat="44.13969" lon="6.30859">
        <ele>802.6</ele>
        <time>2021-03-02T10:46:37.971Z</time>
      </trkpt>
      <trkpt lat="44.13976" lon="6.30863">
        <ele>803.4</ele>
        <time>2021-03-02T10:46:41.028Z</time>
      </trkpt>
      <trkpt lat="44.13986" lon="6.30868">
        <ele>803.6</ele>
        <time>2021-03-02T10:46:44.976Z</time>
      </trkpt>
      <trkpt lat="44.13995" lon="6.30872">
        <ele>803.7</ele>
        <time>2021-03-02T10:46:48.978Z</time>
      </trkpt>
      <trkpt lat="44.14003" lon="6.3088">
        <ele>803.6</ele>
        <time>2021-03-02T10:46:52.962Z</time>
      </trkpt>
      <trkpt lat="44.1401" lon="6.30883">
        <ele>807</ele>
        <time>2021-03-02T10:46:55.965Z</time>
      </trkpt>
      <trkpt lat="44.14017" lon="6.30886">
        <ele>807.9</ele>
        <time>2021-03-02T10:46:59.186Z</time>
      </trkpt>
      <trkpt lat="44.14025" lon="6.3089">
        <ele>808.4</ele>
        <time>2021-03-02T10:47:02.978Z</time>
      </trkpt>
      <trkpt lat="44.14033" lon="6.30894">
        <ele>808.4</ele>
        <time>2021-03-02T10:47:06.975Z</time>
      </trkpt>
      <trkpt lat="44.14038" lon="6.30899">
        <ele>811.7</ele>
        <time>2021-03-02T10:47:10.005Z</time>
      </trkpt>
      <trkpt lat="44.14045" lon="6.30905">
        <ele>811.7</ele>
        <time>2021-03-02T10:47:13.964Z</time>
      </trkpt>
      <trkpt lat="44.1405" lon="6.30911">
        <ele>812.8</ele>
        <time>2021-03-02T10:47:16.990Z</time>
      </trkpt>
      <trkpt lat="44.14056" lon="6.30917">
        <ele>814.3</ele>
        <time>2021-03-02T10:47:20.026Z</time>
      </trkpt>
      <trkpt lat="44.14064" lon="6.30923">
        <ele>815.3</ele>
        <time>2021-03-02T10:47:23.958Z</time>
      </trkpt>
      <trkpt lat="44.1407" lon="6.3093">
        <ele>815.3</ele>
        <time>2021-03-02T10:47:26.975Z</time>
      </trkpt>
      <trkpt lat="44.14076" lon="6.30936">
        <ele>817.6</ele>
        <time>2021-03-02T10:47:30.144Z</time>
      </trkpt>
      <trkpt lat="44.14083" lon="6.30943">
        <ele>817.6</ele>
        <time>2021-03-02T10:47:33.962Z</time>
      </trkpt>
      <trkpt lat="44.14091" lon="6.30949">
        <ele>818.7</ele>
        <time>2021-03-02T10:47:37.968Z</time>
      </trkpt>
      <trkpt lat="44.14098" lon="6.30953">
        <ele>820.1</ele>
        <time>2021-03-02T10:47:41.003Z</time>
      </trkpt>
      <trkpt lat="44.14106" lon="6.30961">
        <ele>820.3</ele>
        <time>2021-03-02T10:47:44.966Z</time>
      </trkpt>
      <trkpt lat="44.14115" lon="6.30968">
        <ele>820.3</ele>
        <time>2021-03-02T10:47:48.970Z</time>
      </trkpt>
      <trkpt lat="44.14121" lon="6.30974">
        <ele>822.5</ele>
        <time>2021-03-02T10:47:52.971Z</time>
      </trkpt>
      <trkpt lat="44.14129" lon="6.3098">
        <ele>822.5</ele>
        <time>2021-03-02T10:47:56.960Z</time>
      </trkpt>
      <trkpt lat="44.14135" lon="6.30984">
        <ele>823.8</ele>
        <time>2021-03-02T10:48:00.055Z</time>
      </trkpt>
      <trkpt lat="44.14142" lon="6.30991">
        <ele>824</ele>
        <time>2021-03-02T10:48:03.770Z</time>
      </trkpt>
      <trkpt lat="44.14151" lon="6.31">
        <ele>825.5</ele>
        <time>2021-03-02T10:48:07.969Z</time>
      </trkpt>
      <trkpt lat="44.14159" lon="6.3101">
        <ele>825.6</ele>
        <time>2021-03-02T10:48:11.973Z</time>
      </trkpt>
      <trkpt lat="44.14165" lon="6.31013">
        <ele>827.8</ele>
        <time>2021-03-02T10:48:15.125Z</time>
      </trkpt>
      <trkpt lat="44.14173" lon="6.31018">
        <ele>828.2</ele>
        <time>2021-03-02T10:48:18.979Z</time>
      </trkpt>
      <trkpt lat="44.1418" lon="6.31024">
        <ele>829.9</ele>
        <time>2021-03-02T10:48:22.967Z</time>
      </trkpt>
      <trkpt lat="44.14188" lon="6.31028">
        <ele>830.6</ele>
        <time>2021-03-02T10:48:26.186Z</time>
      </trkpt>
      <trkpt lat="44.14195" lon="6.31034">
        <ele>831.2</ele>
        <time>2021-03-02T10:48:29.979Z</time>
      </trkpt>
      <trkpt lat="44.14203" lon="6.31042">
        <ele>831.3</ele>
        <time>2021-03-02T10:48:33.962Z</time>
      </trkpt>
      <trkpt lat="44.14209" lon="6.31045">
        <ele>833.1</ele>
        <time>2021-03-02T10:48:37.008Z</time>
      </trkpt>
      <trkpt lat="44.14216" lon="6.31052">
        <ele>833.1</ele>
        <time>2021-03-02T10:48:40.967Z</time>
      </trkpt>
      <trkpt lat="44.14222" lon="6.31057">
        <ele>834.1</ele>
        <time>2021-03-02T10:48:43.967Z</time>
      </trkpt>
      <trkpt lat="44.14228" lon="6.31062">
        <ele>834.5</ele>
        <time>2021-03-02T10:48:47.013Z</time>
      </trkpt>
      <trkpt lat="44.14236" lon="6.31066">
        <ele>835.1</ele>
        <time>2021-03-02T10:48:50.963Z</time>
      </trkpt>
      <trkpt lat="44.14244" lon="6.31072">
        <ele>835.1</ele>
        <time>2021-03-02T10:48:54.959Z</time>
      </trkpt>
      <trkpt lat="44.1425" lon="6.31077">
        <ele>835</ele>
        <time>2021-03-02T10:48:58.013Z</time>
      </trkpt>
      <trkpt lat="44.14257" lon="6.31083">
        <ele>835</ele>
        <time>2021-03-02T10:49:01.958Z</time>
      </trkpt>
      <trkpt lat="44.14262" lon="6.3109">
        <ele>835</ele>
        <time>2021-03-02T10:49:04.969Z</time>
      </trkpt>
      <trkpt lat="44.14269" lon="6.31098">
        <ele>839.8</ele>
        <time>2021-03-02T10:49:08.957Z</time>
      </trkpt>
      <trkpt lat="44.14276" lon="6.3111">
        <ele>841.4</ele>
        <time>2021-03-02T10:49:12.593Z</time>
      </trkpt>
      <trkpt lat="44.14281" lon="6.31121">
        <ele>841.6</ele>
        <time>2021-03-02T10:49:15.969Z</time>
      </trkpt>
      <trkpt lat="44.14288" lon="6.31132">
        <ele>841.7</ele>
        <time>2021-03-02T10:49:21.000Z</time>
      </trkpt>
      <trkpt lat="44.14294" lon="6.31134">
        <ele>841.7</ele>
        <time>2021-03-02T10:49:22.985Z</time>
      </trkpt>
      <trkpt lat="44.143" lon="6.31125">
        <ele>843.4</ele>
        <time>2021-03-02T10:49:26.980Z</time>
      </trkpt>
      <trkpt lat="44.14296" lon="6.31115">
        <ele>844.9</ele>
        <time>2021-03-02T10:49:30.148Z</time>
      </trkpt>
      <trkpt lat="44.14291" lon="6.31104">
        <ele>844.9</ele>
        <time>2021-03-02T10:49:33.971Z</time>
      </trkpt>
      <trkpt lat="44.14287" lon="6.31093">
        <ele>844.9</ele>
        <time>2021-03-02T10:49:37.977Z</time>
      </trkpt>
      <trkpt lat="44.14281" lon="6.3108">
        <ele>846.7</ele>
        <time>2021-03-02T10:49:41.974Z</time>
      </trkpt>
      <trkpt lat="44.14277" lon="6.31068">
        <ele>848.4</ele>
        <time>2021-03-02T10:49:45.696Z</time>
      </trkpt>
      <trkpt lat="44.14275" lon="6.31056">
        <ele>848.4</ele>
        <time>2021-03-02T10:49:49.436Z</time>
      </trkpt>
      <trkpt lat="44.14272" lon="6.31044">
        <ele>849.7</ele>
        <time>2021-03-02T10:49:52.969Z</time>
      </trkpt>
      <trkpt lat="44.14267" lon="6.31034">
        <ele>849.7</ele>
        <time>2021-03-02T10:49:55.970Z</time>
      </trkpt>
      <trkpt lat="44.14266" lon="6.31026">
        <ele>849.7</ele>
        <time>2021-03-02T10:49:59.031Z</time>
      </trkpt>
      <trkpt lat="44.14264" lon="6.31014">
        <ele>852.9</ele>
        <time>2021-03-02T10:50:03.014Z</time>
      </trkpt>
      <trkpt lat="44.1426" lon="6.31004">
        <ele>853.5</ele>
        <time>2021-03-02T10:50:06.112Z</time>
      </trkpt>
      <trkpt lat="44.14257" lon="6.30992">
        <ele>853.6</ele>
        <time>2021-03-02T10:50:09.538Z</time>
      </trkpt>
      <trkpt lat="44.14255" lon="6.30981">
        <ele>854.8</ele>
        <time>2021-03-02T10:50:13.154Z</time>
      </trkpt>
      <trkpt lat="44.14253" lon="6.3097">
        <ele>854.8</ele>
        <time>2021-03-02T10:50:16.678Z</time>
      </trkpt>
      <trkpt lat="44.14255" lon="6.30962">
        <ele>854.8</ele>
        <time>2021-03-02T10:50:20.010Z</time>
      </trkpt>
      <trkpt lat="44.14263" lon="6.30961">
        <ele>856.5</ele>
        <time>2021-03-02T10:50:23.974Z</time>
      </trkpt>
      <trkpt lat="44.14273" lon="6.30962">
        <ele>857.7</ele>
        <time>2021-03-02T10:50:27.586Z</time>
      </trkpt>
      <trkpt lat="44.14281" lon="6.30968">
        <ele>857.8</ele>
        <time>2021-03-02T10:50:31.528Z</time>
      </trkpt>
      <trkpt lat="44.14289" lon="6.30973">
        <ele>859.3</ele>
        <time>2021-03-02T10:50:34.998Z</time>
      </trkpt>
      <trkpt lat="44.14297" lon="6.30978">
        <ele>859.3</ele>
        <time>2021-03-02T10:50:38.744Z</time>
      </trkpt>
      <trkpt lat="44.14304" lon="6.30982">
        <ele>859.3</ele>
        <time>2021-03-02T10:50:41.960Z</time>
      </trkpt>
      <trkpt lat="44.1431" lon="6.30988">
        <ele>861.4</ele>
        <time>2021-03-02T10:50:45.375Z</time>
      </trkpt>
      <trkpt lat="44.14316" lon="6.30994">
        <ele>861.7</ele>
        <time>2021-03-02T10:50:48.707Z</time>
      </trkpt>
      <trkpt lat="44.14322" lon="6.31001">
        <ele>863</ele>
        <time>2021-03-02T10:50:51.804Z</time>
      </trkpt>
      <trkpt lat="44.14331" lon="6.31006">
        <ele>863</ele>
        <time>2021-03-02T10:50:54.967Z</time>
      </trkpt>
      <trkpt lat="44.14338" lon="6.3101">
        <ele>863.1</ele>
        <time>2021-03-02T10:50:57.994Z</time>
      </trkpt>
      <trkpt lat="44.14348" lon="6.31012">
        <ele>864.4</ele>
        <time>2021-03-02T10:51:01.975Z</time>
      </trkpt>
      <trkpt lat="44.14358" lon="6.31016">
        <ele>864.4</ele>
        <time>2021-03-02T10:51:06.010Z</time>
      </trkpt>
      <trkpt lat="44.14366" lon="6.31018">
        <ele>867</ele>
        <time>2021-03-02T10:51:09.489Z</time>
      </trkpt>
      <trkpt lat="44.14374" lon="6.31022">
        <ele>867.3</ele>
        <time>2021-03-02T10:51:12.914Z</time>
      </trkpt>
      <trkpt lat="44.14383" lon="6.31028">
        <ele>868.9</ele>
        <time>2021-03-02T10:51:16.962Z</time>
      </trkpt>
      <trkpt lat="44.14392" lon="6.31033">
        <ele>868.8</ele>
        <time>2021-03-02T10:51:19.977Z</time>
      </trkpt>
      <trkpt lat="44.14401" lon="6.31041">
        <ele>871.2</ele>
        <time>2021-03-02T10:51:23.592Z</time>
      </trkpt>
      <trkpt lat="44.1441" lon="6.31049">
        <ele>872.6</ele>
        <time>2021-03-02T10:51:26.975Z</time>
      </trkpt>
      <trkpt lat="44.14418" lon="6.31057">
        <ele>874.1</ele>
        <time>2021-03-02T10:51:30.503Z</time>
      </trkpt>
      <trkpt lat="44.14426" lon="6.31064">
        <ele>874.1</ele>
        <time>2021-03-02T10:51:33.647Z</time>
      </trkpt>
      <trkpt lat="44.14434" lon="6.31072">
        <ele>874.9</ele>
        <time>2021-03-02T10:51:36.692Z</time>
      </trkpt>
      <trkpt lat="44.14441" lon="6.31081">
        <ele>874.9</ele>
        <time>2021-03-02T10:51:39.977Z</time>
      </trkpt>
      <trkpt lat="44.14449" lon="6.31092">
        <ele>874.9</ele>
        <time>2021-03-02T10:51:43.976Z</time>
      </trkpt>
      <trkpt lat="44.14455" lon="6.31105">
        <ele>876.7</ele>
        <time>2021-03-02T10:51:47.967Z</time>
      </trkpt>
      <trkpt lat="44.14461" lon="6.31118">
        <ele>878.1</ele>
        <time>2021-03-02T10:51:51.393Z</time>
      </trkpt>
      <trkpt lat="44.14467" lon="6.31128">
        <ele>878.3</ele>
        <time>2021-03-02T10:51:54.671Z</time>
      </trkpt>
      <trkpt lat="44.14473" lon="6.31135">
        <ele>879.6</ele>
        <time>2021-03-02T10:51:57.884Z</time>
      </trkpt>
      <trkpt lat="44.14478" lon="6.31145">
        <ele>879.6</ele>
        <time>2021-03-02T10:52:01.211Z</time>
      </trkpt>
      <trkpt lat="44.14483" lon="6.31155">
        <ele>879.6</ele>
        <time>2021-03-02T10:52:04.973Z</time>
      </trkpt>
      <trkpt lat="44.14489" lon="6.31167">
        <ele>881.3</ele>
        <time>2021-03-02T10:52:08.976Z</time>
      </trkpt>
      <trkpt lat="44.14493" lon="6.31176">
        <ele>881.6</ele>
        <time>2021-03-02T10:52:12.044Z</time>
      </trkpt>
      <trkpt lat="44.145" lon="6.31185">
        <ele>881.6</ele>
        <time>2021-03-02T10:52:15.692Z</time>
      </trkpt>
      <trkpt lat="44.14507" lon="6.31197">
        <ele>883.3</ele>
        <time>2021-03-02T10:52:19.969Z</time>
      </trkpt>
      <trkpt lat="44.14513" lon="6.31206">
        <ele>883.4</ele>
        <time>2021-03-02T10:52:23.011Z</time>
      </trkpt>
      <trkpt lat="44.14522" lon="6.31214">
        <ele>885.3</ele>
        <time>2021-03-02T10:52:26.525Z</time>
      </trkpt>
      <trkpt lat="44.14528" lon="6.31222">
        <ele>885.6</ele>
        <time>2021-03-02T10:52:29.974Z</time>
      </trkpt>
      <trkpt lat="44.14534" lon="6.31232">
        <ele>886.9</ele>
        <time>2021-03-02T10:52:33.698Z</time>
      </trkpt>
      <trkpt lat="44.14541" lon="6.31239">
        <ele>886.9</ele>
        <time>2021-03-02T10:52:37.369Z</time>
      </trkpt>
      <trkpt lat="44.14548" lon="6.31245">
        <ele>888.3</ele>
        <time>2021-03-02T10:52:42.000Z</time>
      </trkpt>
      <trkpt lat="44.14556" lon="6.3125">
        <ele>888.3</ele>
        <time>2021-03-02T10:52:43.978Z</time>
      </trkpt>
      <trkpt lat="44.14564" lon="6.31255">
        <ele>891</ele>
        <time>2021-03-02T10:52:47.789Z</time>
      </trkpt>
      <trkpt lat="44.14569" lon="6.31261">
        <ele>891.2</ele>
        <time>2021-03-02T10:52:50.975Z</time>
      </trkpt>
      <trkpt lat="44.14573" lon="6.31268">
        <ele>892.2</ele>
        <time>2021-03-02T10:52:53.977Z</time>
      </trkpt>
      <trkpt lat="44.14578" lon="6.31275">
        <ele>892.4</ele>
        <time>2021-03-02T10:52:57.464Z</time>
      </trkpt>
      <trkpt lat="44.14582" lon="6.31283">
        <ele>893.6</ele>
        <time>2021-03-02T10:53:00.650Z</time>
      </trkpt>
      <trkpt lat="44.14587" lon="6.31291">
        <ele>893.9</ele>
        <time>2021-03-02T10:53:03.972Z</time>
      </trkpt>
      <trkpt lat="44.14593" lon="6.31295">
        <ele>893.9</ele>
        <time>2021-03-02T10:53:06.979Z</time>
      </trkpt>
      <trkpt lat="44.146" lon="6.31299">
        <ele>895.8</ele>
        <time>2021-03-02T10:53:11.022Z</time>
      </trkpt>
      <trkpt lat="44.14608" lon="6.31301">
        <ele>895.7</ele>
        <time>2021-03-02T10:53:14.958Z</time>
      </trkpt>
      <trkpt lat="44.14613" lon="6.31306">
        <ele>895.7</ele>
        <time>2021-03-02T10:53:17.961Z</time>
      </trkpt>
      <trkpt lat="44.14618" lon="6.31309">
        <ele>897.1</ele>
        <time>2021-03-02T10:53:21.049Z</time>
      </trkpt>
      <trkpt lat="44.14625" lon="6.31316">
        <ele>897.5</ele>
        <time>2021-03-02T10:53:24.866Z</time>
      </trkpt>
      <trkpt lat="44.1463" lon="6.3132">
        <ele>898.9</ele>
        <time>2021-03-02T10:53:27.951Z</time>
      </trkpt>
      <trkpt lat="44.14635" lon="6.31323">
        <ele>898.8</ele>
        <time>2021-03-02T10:53:31.046Z</time>
      </trkpt>
      <trkpt lat="44.14645" lon="6.31332">
        <ele>898.9</ele>
        <time>2021-03-02T10:53:38.975Z</time>
      </trkpt>
      <trkpt lat="44.14653" lon="6.31341">
        <ele>904.7</ele>
        <time>2021-03-02T10:53:42.695Z</time>
      </trkpt>
      <trkpt lat="44.14661" lon="6.31349">
        <ele>904.7</ele>
        <time>2021-03-02T10:53:46.331Z</time>
      </trkpt>
      <trkpt lat="44.14669" lon="6.31353">
        <ele>906.7</ele>
        <time>2021-03-02T10:53:50.023Z</time>
      </trkpt>
      <trkpt lat="44.1468" lon="6.31359">
        <ele>906.7</ele>
        <time>2021-03-02T10:53:53.969Z</time>
      </trkpt>
      <trkpt lat="44.14685" lon="6.31366">
        <ele>907.7</ele>
        <time>2021-03-02T10:53:57.194Z</time>
      </trkpt>
      <trkpt lat="44.14692" lon="6.31372">
        <ele>907.7</ele>
        <time>2021-03-02T10:54:00.963Z</time>
      </trkpt>
      <trkpt lat="44.14697" lon="6.31382">
        <ele>909.9</ele>
        <time>2021-03-02T10:54:03.976Z</time>
      </trkpt>
      <trkpt lat="44.14704" lon="6.31389">
        <ele>909.9</ele>
        <time>2021-03-02T10:54:07.165Z</time>
      </trkpt>
      <trkpt lat="44.14708" lon="6.31399">
        <ele>911.9</ele>
        <time>2021-03-02T10:54:10.977Z</time>
      </trkpt>
      <trkpt lat="44.14707" lon="6.31408">
        <ele>911.8</ele>
        <time>2021-03-02T10:54:15.031Z</time>
      </trkpt>
      <trkpt lat="44.14702" lon="6.31414">
        <ele>915.5</ele>
        <time>2021-03-02T10:54:22.085Z</time>
      </trkpt>
      <trkpt lat="44.14691" lon="6.31412">
        <ele>916.6</ele>
        <time>2021-03-02T10:54:28.967Z</time>
      </trkpt>
      <trkpt lat="44.14684" lon="6.31409">
        <ele>917</ele>
        <time>2021-03-02T10:54:32.567Z</time>
      </trkpt>
      <trkpt lat="44.14675" lon="6.31407">
        <ele>917</ele>
        <time>2021-03-02T10:54:35.957Z</time>
      </trkpt>
      <trkpt lat="44.14669" lon="6.3141">
        <ele>917.1</ele>
        <time>2021-03-02T10:54:38.974Z</time>
      </trkpt>
      <trkpt lat="44.14661" lon="6.31413">
        <ele>919.7</ele>
        <time>2021-03-02T10:54:42.262Z</time>
      </trkpt>
      <trkpt lat="44.14656" lon="6.31416">
        <ele>919.7</ele>
        <time>2021-03-02T10:54:45.277Z</time>
      </trkpt>
      <trkpt lat="44.14647" lon="6.31419">
        <ele>919.7</ele>
        <time>2021-03-02T10:54:48.979Z</time>
      </trkpt>
      <trkpt lat="44.14639" lon="6.3142">
        <ele>919.7</ele>
        <time>2021-03-02T10:54:51.987Z</time>
      </trkpt>
      <trkpt lat="44.14632" lon="6.31416">
        <ele>919.7</ele>
        <time>2021-03-02T10:54:55.968Z</time>
      </trkpt>
      <trkpt lat="44.14627" lon="6.31411">
        <ele>922.6</ele>
        <time>2021-03-02T10:54:58.975Z</time>
      </trkpt>
      <trkpt lat="44.1462" lon="6.31409">
        <ele>924.2</ele>
        <time>2021-03-02T10:55:02.009Z</time>
      </trkpt>
      <trkpt lat="44.14613" lon="6.31405">
        <ele>924.5</ele>
        <time>2021-03-02T10:55:06.029Z</time>
      </trkpt>
      <trkpt lat="44.14605" lon="6.31404">
        <ele>925.1</ele>
        <time>2021-03-02T10:55:09.626Z</time>
      </trkpt>
      <trkpt lat="44.14598" lon="6.31401">
        <ele>925.3</ele>
        <time>2021-03-02T10:55:12.959Z</time>
      </trkpt>
      <trkpt lat="44.14591" lon="6.31398">
        <ele>925.4</ele>
        <time>2021-03-02T10:55:15.974Z</time>
      </trkpt>
      <trkpt lat="44.14581" lon="6.31397">
        <ele>927.5</ele>
        <time>2021-03-02T10:55:20.006Z</time>
      </trkpt>
      <trkpt lat="44.14571" lon="6.31392">
        <ele>929</ele>
        <time>2021-03-02T10:55:23.685Z</time>
      </trkpt>
      <trkpt lat="44.14563" lon="6.31389">
        <ele>929.2</ele>
        <time>2021-03-02T10:55:27.011Z</time>
      </trkpt>
      <trkpt lat="44.14553" lon="6.31384">
        <ele>929.3</ele>
        <time>2021-03-02T10:55:30.973Z</time>
      </trkpt>
      <trkpt lat="44.14545" lon="6.31383">
        <ele>931.1</ele>
        <time>2021-03-02T10:55:36.000Z</time>
      </trkpt>
      <trkpt lat="44.14535" lon="6.3138">
        <ele>931</ele>
        <time>2021-03-02T10:55:38.736Z</time>
      </trkpt>
      <trkpt lat="44.14527" lon="6.31379">
        <ele>933.9</ele>
        <time>2021-03-02T10:55:41.886Z</time>
      </trkpt>
      <trkpt lat="44.14523" lon="6.31376">
        <ele>934.2</ele>
        <time>2021-03-02T10:55:44.984Z</time>
      </trkpt>
      <trkpt lat="44.14516" lon="6.31372">
        <ele>936.3</ele>
        <time>2021-03-02T10:55:48.646Z</time>
      </trkpt>
      <trkpt lat="44.14507" lon="6.31371">
        <ele>936.4</ele>
        <time>2021-03-02T10:55:52.286Z</time>
      </trkpt>
      <trkpt lat="44.14497" lon="6.31371">
        <ele>936.8</ele>
        <time>2021-03-02T10:55:55.985Z</time>
      </trkpt>
      <trkpt lat="44.14486" lon="6.31371">
        <ele>936.8</ele>
        <time>2021-03-02T10:55:59.972Z</time>
      </trkpt>
      <trkpt lat="44.14478" lon="6.31373">
        <ele>939</ele>
        <time>2021-03-02T10:56:03.648Z</time>
      </trkpt>
      <trkpt lat="44.1447" lon="6.31377">
        <ele>939</ele>
        <time>2021-03-02T10:56:07.007Z</time>
      </trkpt>
      <trkpt lat="44.14463" lon="6.31381">
        <ele>938.9</ele>
        <time>2021-03-02T10:56:10.012Z</time>
      </trkpt>
      <trkpt lat="44.14453" lon="6.31385">
        <ele>942.2</ele>
        <time>2021-03-02T10:56:13.969Z</time>
      </trkpt>
      <trkpt lat="44.14444" lon="6.31387">
        <ele>942.2</ele>
        <time>2021-03-02T10:56:17.183Z</time>
      </trkpt>
      <trkpt lat="44.14437" lon="6.31388">
        <ele>944.2</ele>
        <time>2021-03-02T10:56:20.240Z</time>
      </trkpt>
      <trkpt lat="44.14429" lon="6.31391">
        <ele>944.3</ele>
        <time>2021-03-02T10:56:23.970Z</time>
      </trkpt>
      <trkpt lat="44.14422" lon="6.31397">
        <ele>944.3</ele>
        <time>2021-03-02T10:56:26.984Z</time>
      </trkpt>
      <trkpt lat="44.14417" lon="6.31407">
        <ele>948</ele>
        <time>2021-03-02T10:56:30.449Z</time>
      </trkpt>
      <trkpt lat="44.14418" lon="6.31416">
        <ele>948</ele>
        <time>2021-03-02T10:56:33.845Z</time>
      </trkpt>
      <trkpt lat="44.14421" lon="6.31427">
        <ele>949.3</ele>
        <time>2021-03-02T10:56:37.231Z</time>
      </trkpt>
      <trkpt lat="44.14423" lon="6.31438">
        <ele>949.4</ele>
        <time>2021-03-02T10:56:40.960Z</time>
      </trkpt>
      <trkpt lat="44.14429" lon="6.31446">
        <ele>949.3</ele>
        <time>2021-03-02T10:56:43.972Z</time>
      </trkpt>
      <trkpt lat="44.14435" lon="6.31454">
        <ele>949.5</ele>
        <time>2021-03-02T10:56:46.987Z</time>
      </trkpt>
      <trkpt lat="44.14443" lon="6.31464">
        <ele>950.5</ele>
        <time>2021-03-02T10:56:50.686Z</time>
      </trkpt>
      <trkpt lat="44.14449" lon="6.31469">
        <ele>950.9</ele>
        <time>2021-03-02T10:56:53.740Z</time>
      </trkpt>
      <trkpt lat="44.14454" lon="6.31478">
        <ele>951.1</ele>
        <time>2021-03-02T10:56:56.974Z</time>
      </trkpt>
      <trkpt lat="44.14458" lon="6.3149">
        <ele>951.8</ele>
        <time>2021-03-02T10:57:00.512Z</time>
      </trkpt>
      <trkpt lat="44.14463" lon="6.315">
        <ele>952</ele>
        <time>2021-03-02T10:57:03.962Z</time>
      </trkpt>
      <trkpt lat="44.14468" lon="6.31508">
        <ele>952</ele>
        <time>2021-03-02T10:57:06.973Z</time>
      </trkpt>
      <trkpt lat="44.14474" lon="6.31518">
        <ele>952.1</ele>
        <time>2021-03-02T10:57:10.635Z</time>
      </trkpt>
      <trkpt lat="44.14476" lon="6.31529">
        <ele>955.1</ele>
        <time>2021-03-02T10:57:13.960Z</time>
      </trkpt>
      <trkpt lat="44.14481" lon="6.31538">
        <ele>955</ele>
        <time>2021-03-02T10:57:17.004Z</time>
      </trkpt>
      <trkpt lat="44.14487" lon="6.31551">
        <ele>956.4</ele>
        <time>2021-03-02T10:57:20.983Z</time>
      </trkpt>
      <trkpt lat="44.14492" lon="6.31559">
        <ele>956.3</ele>
        <time>2021-03-02T10:57:23.983Z</time>
      </trkpt>
      <trkpt lat="44.14497" lon="6.31563">
        <ele>956.3</ele>
        <time>2021-03-02T10:57:27.020Z</time>
      </trkpt>
      <trkpt lat="44.14506" lon="6.31569">
        <ele>956.3</ele>
        <time>2021-03-02T10:57:30.976Z</time>
      </trkpt>
      <trkpt lat="44.14513" lon="6.31574">
        <ele>956.2</ele>
        <time>2021-03-02T10:57:34.010Z</time>
      </trkpt>
      <trkpt lat="44.1452" lon="6.31581">
        <ele>961.2</ele>
        <time>2021-03-02T10:57:37.367Z</time>
      </trkpt>
      <trkpt lat="44.14529" lon="6.31587">
        <ele>961.2</ele>
        <time>2021-03-02T10:57:42.000Z</time>
      </trkpt>
      <trkpt lat="44.14535" lon="6.31592">
        <ele>961.2</ele>
        <time>2021-03-02T10:57:43.982Z</time>
      </trkpt>
      <trkpt lat="44.14542" lon="6.31598">
        <ele>961.2</ele>
        <time>2021-03-02T10:57:47.006Z</time>
      </trkpt>
      <trkpt lat="44.14549" lon="6.31605">
        <ele>961</ele>
        <time>2021-03-02T10:57:50.308Z</time>
      </trkpt>
      <trkpt lat="44.1456" lon="6.31611">
        <ele>963.2</ele>
        <time>2021-03-02T10:57:54.034Z</time>
      </trkpt>
      <trkpt lat="44.14571" lon="6.31616">
        <ele>963.3</ele>
        <time>2021-03-02T10:57:57.219Z</time>
      </trkpt>
      <trkpt lat="44.1458" lon="6.31622">
        <ele>964.1</ele>
        <time>2021-03-02T10:58:00.345Z</time>
      </trkpt>
      <trkpt lat="44.14589" lon="6.31628">
        <ele>964.2</ele>
        <time>2021-03-02T10:58:03.966Z</time>
      </trkpt>
      <trkpt lat="44.14596" lon="6.31633">
        <ele>964.1</ele>
        <time>2021-03-02T10:58:06.973Z</time>
      </trkpt>
      <trkpt lat="44.14608" lon="6.3164">
        <ele>965.4</ele>
        <time>2021-03-02T10:58:10.972Z</time>
      </trkpt>
      <trkpt lat="44.14617" lon="6.31648">
        <ele>966.1</ele>
        <time>2021-03-02T10:58:14.696Z</time>
      </trkpt>
      <trkpt lat="44.14626" lon="6.31657">
        <ele>966.3</ele>
        <time>2021-03-02T10:58:17.961Z</time>
      </trkpt>
      <trkpt lat="44.14631" lon="6.31664">
        <ele>967.4</ele>
        <time>2021-03-02T10:58:21.011Z</time>
      </trkpt>
      <trkpt lat="44.14639" lon="6.31677">
        <ele>967.4</ele>
        <time>2021-03-02T10:58:24.965Z</time>
      </trkpt>
      <trkpt lat="44.14644" lon="6.31688">
        <ele>967.4</ele>
        <time>2021-03-02T10:58:27.969Z</time>
      </trkpt>
      <trkpt lat="44.14651" lon="6.31703">
        <ele>968.2</ele>
        <time>2021-03-02T10:58:31.969Z</time>
      </trkpt>
      <trkpt lat="44.14658" lon="6.3172">
        <ele>968.3</ele>
        <time>2021-03-02T10:58:35.973Z</time>
      </trkpt>
      <trkpt lat="44.14662" lon="6.31734">
        <ele>968.6</ele>
        <time>2021-03-02T10:58:39.084Z</time>
      </trkpt>
      <trkpt lat="44.14669" lon="6.31746">
        <ele>968.9</ele>
        <time>2021-03-02T10:58:42.634Z</time>
      </trkpt>
      <trkpt lat="44.14676" lon="6.31759">
        <ele>971</ele>
        <time>2021-03-02T10:58:46.981Z</time>
      </trkpt>
      <trkpt lat="44.14682" lon="6.31767">
        <ele>971</ele>
        <time>2021-03-02T10:58:49.986Z</time>
      </trkpt>
      <trkpt lat="44.14694" lon="6.31773">
        <ele>971</ele>
        <time>2021-03-02T10:58:53.976Z</time>
      </trkpt>
      <trkpt lat="44.14701" lon="6.3178">
        <ele>972.9</ele>
        <time>2021-03-02T10:58:57.264Z</time>
      </trkpt>
      <trkpt lat="44.14709" lon="6.31786">
        <ele>972.9</ele>
        <time>2021-03-02T10:59:00.951Z</time>
      </trkpt>
      <trkpt lat="44.14718" lon="6.31793">
        <ele>973.8</ele>
        <time>2021-03-02T10:59:04.792Z</time>
      </trkpt>
      <trkpt lat="44.14725" lon="6.318">
        <ele>973.8</ele>
        <time>2021-03-02T10:59:07.998Z</time>
      </trkpt>
      <trkpt lat="44.14736" lon="6.31807">
        <ele>973.7</ele>
        <time>2021-03-02T10:59:12.009Z</time>
      </trkpt>
      <trkpt lat="44.14748" lon="6.31812">
        <ele>973.8</ele>
        <time>2021-03-02T10:59:16.029Z</time>
      </trkpt>
      <trkpt lat="44.14758" lon="6.31816">
        <ele>975.9</ele>
        <time>2021-03-02T10:59:19.978Z</time>
      </trkpt>
      <trkpt lat="44.14769" lon="6.31818">
        <ele>975.8</ele>
        <time>2021-03-02T10:59:23.033Z</time>
      </trkpt>
      <trkpt lat="44.14781" lon="6.31823">
        <ele>976.4</ele>
        <time>2021-03-02T10:59:26.609Z</time>
      </trkpt>
      <trkpt lat="44.14791" lon="6.31831">
        <ele>976.4</ele>
        <time>2021-03-02T10:59:29.969Z</time>
      </trkpt>
      <trkpt lat="44.14802" lon="6.31836">
        <ele>976.3</ele>
        <time>2021-03-02T10:59:33.965Z</time>
      </trkpt>
      <trkpt lat="44.14813" lon="6.31843">
        <ele>978.9</ele>
        <time>2021-03-02T10:59:37.954Z</time>
      </trkpt>
      <trkpt lat="44.14816" lon="6.31848">
        <ele>979.8</ele>
        <time>2021-03-02T10:59:40.984Z</time>
      </trkpt>
      <trkpt lat="44.14826" lon="6.31859">
        <ele>979.8</ele>
        <time>2021-03-02T10:59:44.977Z</time>
      </trkpt>
      <trkpt lat="44.14833" lon="6.31869">
        <ele>980.1</ele>
        <time>2021-03-02T10:59:48.079Z</time>
      </trkpt>
      <trkpt lat="44.14842" lon="6.3188">
        <ele>980.1</ele>
        <time>2021-03-02T10:59:51.977Z</time>
      </trkpt>
      <trkpt lat="44.14853" lon="6.31891">
        <ele>980.2</ele>
        <time>2021-03-02T10:59:55.974Z</time>
      </trkpt>
      <trkpt lat="44.14864" lon="6.319">
        <ele>981.4</ele>
        <time>2021-03-02T10:59:59.972Z</time>
      </trkpt>
      <trkpt lat="44.14873" lon="6.31906">
        <ele>982.2</ele>
        <time>2021-03-02T11:00:03.284Z</time>
      </trkpt>
      <trkpt lat="44.14883" lon="6.3191">
        <ele>982.4</ele>
        <time>2021-03-02T11:00:07.002Z</time>
      </trkpt>
      <trkpt lat="44.14892" lon="6.31914">
        <ele>982.9</ele>
        <time>2021-03-02T11:00:10.658Z</time>
      </trkpt>
      <trkpt lat="44.14902" lon="6.31921">
        <ele>983</ele>
        <time>2021-03-02T11:00:13.966Z</time>
      </trkpt>
      <trkpt lat="44.14909" lon="6.3193">
        <ele>983</ele>
        <time>2021-03-02T11:00:16.973Z</time>
      </trkpt>
      <trkpt lat="44.1492" lon="6.31935">
        <ele>983</ele>
        <time>2021-03-02T11:00:19.992Z</time>
      </trkpt>
      <trkpt lat="44.14933" lon="6.31943">
        <ele>986</ele>
        <time>2021-03-02T11:00:23.961Z</time>
      </trkpt>
      <trkpt lat="44.14941" lon="6.31952">
        <ele>986.4</ele>
        <time>2021-03-02T11:00:27.292Z</time>
      </trkpt>
      <trkpt lat="44.14949" lon="6.3196">
        <ele>986.4</ele>
        <time>2021-03-02T11:00:30.963Z</time>
      </trkpt>
      <trkpt lat="44.14955" lon="6.31968">
        <ele>986.5</ele>
        <time>2021-03-02T11:00:33.965Z</time>
      </trkpt>
      <trkpt lat="44.14961" lon="6.31976">
        <ele>987.8</ele>
        <time>2021-03-02T11:00:37.029Z</time>
      </trkpt>
      <trkpt lat="44.1497" lon="6.31988">
        <ele>987.7</ele>
        <time>2021-03-02T11:00:41.029Z</time>
      </trkpt>
      <trkpt lat="44.14979" lon="6.31998">
        <ele>988.1</ele>
        <time>2021-03-02T11:00:44.968Z</time>
      </trkpt>
      <trkpt lat="44.14988" lon="6.32008">
        <ele>988.5</ele>
        <time>2021-03-02T11:00:48.225Z</time>
      </trkpt>
      <trkpt lat="44.14997" lon="6.32017">
        <ele>988.6</ele>
        <time>2021-03-02T11:00:51.980Z</time>
      </trkpt>
      <trkpt lat="44.15004" lon="6.32022">
        <ele>988.6</ele>
        <time>2021-03-02T11:00:54.981Z</time>
      </trkpt>
      <trkpt lat="44.15014" lon="6.32032">
        <ele>989.3</ele>
        <time>2021-03-02T11:00:58.967Z</time>
      </trkpt>
      <trkpt lat="44.15023" lon="6.32037">
        <ele>989.4</ele>
        <time>2021-03-02T11:01:02.568Z</time>
      </trkpt>
      <trkpt lat="44.15032" lon="6.32046">
        <ele>990.9</ele>
        <time>2021-03-02T11:01:05.836Z</time>
      </trkpt>
      <trkpt lat="44.15042" lon="6.32052">
        <ele>990.9</ele>
        <time>2021-03-02T11:01:08.980Z</time>
      </trkpt>
      <trkpt lat="44.1505" lon="6.3206">
        <ele>991</ele>
        <time>2021-03-02T11:01:12.070Z</time>
      </trkpt>
      <trkpt lat="44.1506" lon="6.32067">
        <ele>991</ele>
        <time>2021-03-02T11:01:15.979Z</time>
      </trkpt>
      <trkpt lat="44.15075" lon="6.32074">
        <ele>991</ele>
        <time>2021-03-02T11:01:19.977Z</time>
      </trkpt>
      <trkpt lat="44.15086" lon="6.32084">
        <ele>991.8</ele>
        <time>2021-03-02T11:01:23.963Z</time>
      </trkpt>
      <trkpt lat="44.15095" lon="6.32094">
        <ele>992.7</ele>
        <time>2021-03-02T11:01:27.390Z</time>
      </trkpt>
      <trkpt lat="44.15107" lon="6.321">
        <ele>992.7</ele>
        <time>2021-03-02T11:01:30.597Z</time>
      </trkpt>
      <trkpt lat="44.15116" lon="6.32108">
        <ele>993.2</ele>
        <time>2021-03-02T11:01:33.669Z</time>
      </trkpt>
      <trkpt lat="44.15125" lon="6.32117">
        <ele>993.1</ele>
        <time>2021-03-02T11:01:36.962Z</time>
      </trkpt>
      <trkpt lat="44.15131" lon="6.32122">
        <ele>993.2</ele>
        <time>2021-03-02T11:01:39.963Z</time>
      </trkpt>
      <trkpt lat="44.15137" lon="6.32128">
        <ele>993.1</ele>
        <time>2021-03-02T11:01:42.969Z</time>
      </trkpt>
      <trkpt lat="44.15144" lon="6.32135">
        <ele>993.1</ele>
        <time>2021-03-02T11:01:45.976Z</time>
      </trkpt>
      <trkpt lat="44.15153" lon="6.32148">
        <ele>994.1</ele>
        <time>2021-03-02T11:01:49.845Z</time>
      </trkpt>
      <trkpt lat="44.15158" lon="6.32158">
        <ele>994.1</ele>
        <time>2021-03-02T11:01:54.000Z</time>
      </trkpt>
      <trkpt lat="44.15163" lon="6.32168">
        <ele>994.5</ele>
        <time>2021-03-02T11:01:56.110Z</time>
      </trkpt>
      <trkpt lat="44.15169" lon="6.32179">
        <ele>994.4</ele>
        <time>2021-03-02T11:01:59.972Z</time>
      </trkpt>
      <trkpt lat="44.15177" lon="6.32186">
        <ele>994.4</ele>
        <time>2021-03-02T11:02:03.969Z</time>
      </trkpt>
      <trkpt lat="44.15186" lon="6.32195">
        <ele>996.5</ele>
        <time>2021-03-02T11:02:07.973Z</time>
      </trkpt>
      <trkpt lat="44.15191" lon="6.32203">
        <ele>996.9</ele>
        <time>2021-03-02T11:02:11.020Z</time>
      </trkpt>
      <trkpt lat="44.15199" lon="6.32213">
        <ele>997.3</ele>
        <time>2021-03-02T11:02:14.968Z</time>
      </trkpt>
      <trkpt lat="44.15204" lon="6.32221">
        <ele>997.2</ele>
        <time>2021-03-02T11:02:17.975Z</time>
      </trkpt>
      <trkpt lat="44.15209" lon="6.32235">
        <ele>997.2</ele>
        <time>2021-03-02T11:02:21.971Z</time>
      </trkpt>
      <trkpt lat="44.15211" lon="6.32248">
        <ele>1000.5</ele>
        <time>2021-03-02T11:02:25.965Z</time>
      </trkpt>
      <trkpt lat="44.15211" lon="6.3226">
        <ele>1001</ele>
        <time>2021-03-02T11:02:29.021Z</time>
      </trkpt>
      <trkpt lat="44.15212" lon="6.32274">
        <ele>1001.3</ele>
        <time>2021-03-02T11:02:32.961Z</time>
      </trkpt>
      <trkpt lat="44.15216" lon="6.32283">
        <ele>1001.4</ele>
        <time>2021-03-02T11:02:35.973Z</time>
      </trkpt>
      <trkpt lat="44.15219" lon="6.32296">
        <ele>1001.3</ele>
        <time>2021-03-02T11:02:39.978Z</time>
      </trkpt>
      <trkpt lat="44.15222" lon="6.32306">
        <ele>1004.4</ele>
        <time>2021-03-02T11:02:43.091Z</time>
      </trkpt>
      <trkpt lat="44.15226" lon="6.32315">
        <ele>1004.3</ele>
        <time>2021-03-02T11:02:46.233Z</time>
      </trkpt>
      <trkpt lat="44.15232" lon="6.32324">
        <ele>1004.9</ele>
        <time>2021-03-02T11:02:49.830Z</time>
      </trkpt>
      <trkpt lat="44.15237" lon="6.32333">
        <ele>1005</ele>
        <time>2021-03-02T11:02:52.969Z</time>
      </trkpt>
      <trkpt lat="44.15244" lon="6.32343">
        <ele>1006.8</ele>
        <time>2021-03-02T11:02:56.472Z</time>
      </trkpt>
      <trkpt lat="44.15248" lon="6.32352">
        <ele>1007.6</ele>
        <time>2021-03-02T11:03:00.024Z</time>
      </trkpt>
      <trkpt lat="44.15254" lon="6.32363">
        <ele>1008.7</ele>
        <time>2021-03-02T11:03:03.265Z</time>
      </trkpt>
      <trkpt lat="44.1526" lon="6.32372">
        <ele>1008.9</ele>
        <time>2021-03-02T11:03:06.567Z</time>
      </trkpt>
      <trkpt lat="44.15267" lon="6.3238">
        <ele>1009.9</ele>
        <time>2021-03-02T11:03:10.133Z</time>
      </trkpt>
      <trkpt lat="44.15275" lon="6.32389">
        <ele>1009.9</ele>
        <time>2021-03-02T11:03:13.978Z</time>
      </trkpt>
      <trkpt lat="44.15283" lon="6.324">
        <ele>1009.9</ele>
        <time>2021-03-02T11:03:17.971Z</time>
      </trkpt>
      <trkpt lat="44.15289" lon="6.32413">
        <ele>1009.9</ele>
        <time>2021-03-02T11:03:21.971Z</time>
      </trkpt>
      <trkpt lat="44.15294" lon="6.32425">
        <ele>1014.9</ele>
        <time>2021-03-02T11:03:25.969Z</time>
      </trkpt>
      <trkpt lat="44.15299" lon="6.32433">
        <ele>1016.7</ele>
        <time>2021-03-02T11:03:29.019Z</time>
      </trkpt>
      <trkpt lat="44.15306" lon="6.32443">
        <ele>1016.9</ele>
        <time>2021-03-02T11:03:32.999Z</time>
      </trkpt>
      <trkpt lat="44.15312" lon="6.32456">
        <ele>1016.9</ele>
        <time>2021-03-02T11:03:36.962Z</time>
      </trkpt>
      <trkpt lat="44.15314" lon="6.32468">
        <ele>1020.9</ele>
        <time>2021-03-02T11:03:40.967Z</time>
      </trkpt>
      <trkpt lat="44.15318" lon="6.3248">
        <ele>1021.8</ele>
        <time>2021-03-02T11:03:44.605Z</time>
      </trkpt>
      <trkpt lat="44.15324" lon="6.32488">
        <ele>1022.4</ele>
        <time>2021-03-02T11:03:47.969Z</time>
      </trkpt>
      <trkpt lat="44.1533" lon="6.32498">
        <ele>1024.2</ele>
        <time>2021-03-02T11:03:51.214Z</time>
      </trkpt>
      <trkpt lat="44.15336" lon="6.32508">
        <ele>1024.2</ele>
        <time>2021-03-02T11:03:54.959Z</time>
      </trkpt>
      <trkpt lat="44.15343" lon="6.32517">
        <ele>1024.2</ele>
        <time>2021-03-02T11:03:57.970Z</time>
      </trkpt>
      <trkpt lat="44.15352" lon="6.32525">
        <ele>1025.8</ele>
        <time>2021-03-02T11:04:01.805Z</time>
      </trkpt>
      <trkpt lat="44.15357" lon="6.32534">
        <ele>1025.8</ele>
        <time>2021-03-02T11:04:04.968Z</time>
      </trkpt>
      <trkpt lat="44.15365" lon="6.32546">
        <ele>1027.3</ele>
        <time>2021-03-02T11:04:09.131Z</time>
      </trkpt>
      <trkpt lat="44.1537" lon="6.32556">
        <ele>1029.2</ele>
        <time>2021-03-02T11:04:12.596Z</time>
      </trkpt>
      <trkpt lat="44.15375" lon="6.32566">
        <ele>1029.3</ele>
        <time>2021-03-02T11:04:15.970Z</time>
      </trkpt>
      <trkpt lat="44.15378" lon="6.32574">
        <ele>1029.4</ele>
        <time>2021-03-02T11:04:18.978Z</time>
      </trkpt>
      <trkpt lat="44.15381" lon="6.32591">
        <ele>1031.4</ele>
        <time>2021-03-02T11:04:23.005Z</time>
      </trkpt>
      <trkpt lat="44.15386" lon="6.32612">
        <ele>1032.9</ele>
        <time>2021-03-02T11:04:30.000Z</time>
      </trkpt>
      <trkpt lat="44.15387" lon="6.32622">
        <ele>1033.1</ele>
        <time>2021-03-02T11:04:32.027Z</time>
      </trkpt>
      <trkpt lat="44.15389" lon="6.32636">
        <ele>1033.5</ele>
        <time>2021-03-02T11:04:36.017Z</time>
      </trkpt>
      <trkpt lat="44.15392" lon="6.32652">
        <ele>1033.6</ele>
        <time>2021-03-02T11:04:39.964Z</time>
      </trkpt>
      <trkpt lat="44.15394" lon="6.32665">
        <ele>1033.6</ele>
        <time>2021-03-02T11:04:42.981Z</time>
      </trkpt>
      <trkpt lat="44.15397" lon="6.32677">
        <ele>1034.1</ele>
        <time>2021-03-02T11:04:46.975Z</time>
      </trkpt>
      <trkpt lat="44.15398" lon="6.32691">
        <ele>1034.4</ele>
        <time>2021-03-02T11:04:50.015Z</time>
      </trkpt>
      <trkpt lat="44.15396" lon="6.32708">
        <ele>1034.4</ele>
        <time>2021-03-02T11:04:53.967Z</time>
      </trkpt>
      <trkpt lat="44.15394" lon="6.3272">
        <ele>1034.4</ele>
        <time>2021-03-02T11:04:56.972Z</time>
      </trkpt>
      <trkpt lat="44.15389" lon="6.32738">
        <ele>1034.4</ele>
        <time>2021-03-02T11:05:00.965Z</time>
      </trkpt>
      <trkpt lat="44.15383" lon="6.32759">
        <ele>1034.2</ele>
        <time>2021-03-02T11:05:04.977Z</time>
      </trkpt>
      <trkpt lat="44.1538" lon="6.32775">
        <ele>1034.1</ele>
        <time>2021-03-02T11:05:08.023Z</time>
      </trkpt>
      <trkpt lat="44.15377" lon="6.32797">
        <ele>1033.9</ele>
        <time>2021-03-02T11:05:11.976Z</time>
      </trkpt>
      <trkpt lat="44.15372" lon="6.32833">
        <ele>1033.9</ele>
        <time>2021-03-02T11:05:18.000Z</time>
      </trkpt>
      <trkpt lat="44.15367" lon="6.32862">
        <ele>1033.9</ele>
        <time>2021-03-02T11:05:20.988Z</time>
      </trkpt>
      <trkpt lat="44.15361" lon="6.32876">
        <ele>1032.3</ele>
        <time>2021-03-02T11:05:24.406Z</time>
      </trkpt>
      <trkpt lat="44.15359" lon="6.32899">
        <ele>1032.3</ele>
        <time>2021-03-02T11:05:27.894Z</time>
      </trkpt>
      <trkpt lat="44.15354" lon="6.32914">
        <ele>1032.1</ele>
        <time>2021-03-02T11:05:31.111Z</time>
      </trkpt>
      <trkpt lat="44.15345" lon="6.3293">
        <ele>1032.1</ele>
        <time>2021-03-02T11:05:34.975Z</time>
      </trkpt>
      <trkpt lat="44.1534" lon="6.32949">
        <ele>1032.1</ele>
        <time>2021-03-02T11:05:38.977Z</time>
      </trkpt>
      <trkpt lat="44.15337" lon="6.32954">
        <ele>1032</ele>
        <time>2021-03-02T11:05:42.021Z</time>
      </trkpt>
      <trkpt lat="44.15336" lon="6.32975">
        <ele>1032.2</ele>
        <time>2021-03-02T11:05:46.014Z</time>
      </trkpt>
      <trkpt lat="44.15352" lon="6.32997">
        <ele>1032.8</ele>
        <time>2021-03-02T11:05:51.000Z</time>
      </trkpt>
      <trkpt lat="44.15356" lon="6.33006">
        <ele>1032.8</ele>
        <time>2021-03-02T11:05:54.000Z</time>
      </trkpt>
      <trkpt lat="44.15366" lon="6.33045">
        <ele>1032.9</ele>
        <time>2021-03-02T11:06:00.000Z</time>
      </trkpt>
      <trkpt lat="44.15371" lon="6.33069">
        <ele>1033</ele>
        <time>2021-03-02T11:06:06.000Z</time>
      </trkpt>
      <trkpt lat="44.15379" lon="6.33093">
        <ele>1033.1</ele>
        <time>2021-03-02T11:06:12.000Z</time>
      </trkpt>
      <trkpt lat="44.1539" lon="6.33117">
        <ele>1034.6</ele>
        <time>2021-03-02T11:06:18.000Z</time>
      </trkpt>
      <trkpt lat="44.15394" lon="6.33132">
        <ele>1035.1</ele>
        <time>2021-03-02T11:06:19.980Z</time>
      </trkpt>
      <trkpt lat="44.15396" lon="6.33153">
        <ele>1035</ele>
        <time>2021-03-02T11:06:23.966Z</time>
      </trkpt>
      <trkpt lat="44.15395" lon="6.3317">
        <ele>1036.7</ele>
        <time>2021-03-02T11:06:26.981Z</time>
      </trkpt>
      <trkpt lat="44.15392" lon="6.33182">
        <ele>1036.9</ele>
        <time>2021-03-02T11:06:30.005Z</time>
      </trkpt>
      <trkpt lat="44.15389" lon="6.33194">
        <ele>1038.4</ele>
        <time>2021-03-02T11:06:33.100Z</time>
      </trkpt>
      <trkpt lat="44.15389" lon="6.33202">
        <ele>1038.6</ele>
        <time>2021-03-02T11:06:37.396Z</time>
      </trkpt>
      <trkpt lat="44.15391" lon="6.33214">
        <ele>1039.2</ele>
        <time>2021-03-02T11:06:44.976Z</time>
      </trkpt>
      <trkpt lat="44.15395" lon="6.33228">
        <ele>1039.2</ele>
        <time>2021-03-02T11:06:48.963Z</time>
      </trkpt>
      <trkpt lat="44.15401" lon="6.3324">
        <ele>1042.3</ele>
        <time>2021-03-02T11:06:52.974Z</time>
      </trkpt>
      <trkpt lat="44.15406" lon="6.3325">
        <ele>1042.9</ele>
        <time>2021-03-02T11:06:56.024Z</time>
      </trkpt>
      <trkpt lat="44.15412" lon="6.33264">
        <ele>1043.3</ele>
        <time>2021-03-02T11:06:59.971Z</time>
      </trkpt>
      <trkpt lat="44.15417" lon="6.33277">
        <ele>1043.4</ele>
        <time>2021-03-02T11:07:03.961Z</time>
      </trkpt>
      <trkpt lat="44.1542" lon="6.33287">
        <ele>1043.4</ele>
        <time>2021-03-02T11:07:06.963Z</time>
      </trkpt>
      <trkpt lat="44.15421" lon="6.33301">
        <ele>1046.3</ele>
        <time>2021-03-02T11:07:10.984Z</time>
      </trkpt>
      <trkpt lat="44.15422" lon="6.33312">
        <ele>1047.2</ele>
        <time>2021-03-02T11:07:14.032Z</time>
      </trkpt>
      <trkpt lat="44.15424" lon="6.33327">
        <ele>1047.5</ele>
        <time>2021-03-02T11:07:17.700Z</time>
      </trkpt>
      <trkpt lat="44.15427" lon="6.33338">
        <ele>1047.5</ele>
        <time>2021-03-02T11:07:20.965Z</time>
      </trkpt>
      <trkpt lat="44.15433" lon="6.33349">
        <ele>1047.5</ele>
        <time>2021-03-02T11:07:24.974Z</time>
      </trkpt>
      <trkpt lat="44.15438" lon="6.33362">
        <ele>1047.5</ele>
        <time>2021-03-02T11:07:28.972Z</time>
      </trkpt>
      <trkpt lat="44.15442" lon="6.33376">
        <ele>1051</ele>
        <time>2021-03-02T11:07:31.980Z</time>
      </trkpt>
      <trkpt lat="44.15445" lon="6.33386">
        <ele>1051</ele>
        <time>2021-03-02T11:07:35.613Z</time>
      </trkpt>
      <trkpt lat="44.15447" lon="6.33397">
        <ele>1052.7</ele>
        <time>2021-03-02T11:07:38.968Z</time>
      </trkpt>
      <trkpt lat="44.15449" lon="6.33404">
        <ele>1052.6</ele>
        <time>2021-03-02T11:07:41.978Z</time>
      </trkpt>
      <trkpt lat="44.15459" lon="6.33413">
        <ele>1052.5</ele>
        <time>2021-03-02T11:07:45.009Z</time>
      </trkpt>
      <trkpt lat="44.15468" lon="6.33414">
        <ele>1052.5</ele>
        <time>2021-03-02T11:07:48.973Z</time>
      </trkpt>
      <trkpt lat="44.15475" lon="6.3342">
        <ele>1057.8</ele>
        <time>2021-03-02T11:07:52.976Z</time>
      </trkpt>
      <trkpt lat="44.15478" lon="6.33432">
        <ele>1057.8</ele>
        <time>2021-03-02T11:07:56.102Z</time>
      </trkpt>
      <trkpt lat="44.15474" lon="6.33441">
        <ele>1059.2</ele>
        <time>2021-03-02T11:07:59.969Z</time>
      </trkpt>
      <trkpt lat="44.1547" lon="6.33437">
        <ele>1059.2</ele>
        <time>2021-03-02T11:08:02.976Z</time>
      </trkpt>
      <trkpt lat="44.15466" lon="6.33429">
        <ele>1060.7</ele>
        <time>2021-03-02T11:08:06.270Z</time>
      </trkpt>
      <trkpt lat="44.15459" lon="6.33436">
        <ele>1060.7</ele>
        <time>2021-03-02T11:08:09.984Z</time>
      </trkpt>
      <trkpt lat="44.15453" lon="6.33437">
        <ele>1062.1</ele>
        <time>2021-03-02T11:08:13.037Z</time>
      </trkpt>
      <trkpt lat="44.15445" lon="6.33435">
        <ele>1062.2</ele>
        <time>2021-03-02T11:08:16.836Z</time>
      </trkpt>
      <trkpt lat="44.15437" lon="6.33433">
        <ele>1063.7</ele>
        <time>2021-03-02T11:08:19.972Z</time>
      </trkpt>
      <trkpt lat="44.15432" lon="6.33431">
        <ele>1063.8</ele>
        <time>2021-03-02T11:08:23.965Z</time>
      </trkpt>
      <trkpt lat="44.15427" lon="6.33428">
        <ele>1066.4</ele>
        <time>2021-03-02T11:08:27.315Z</time>
      </trkpt>
      <trkpt lat="44.15423" lon="6.33423">
        <ele>1066.5</ele>
        <time>2021-03-02T11:08:30.964Z</time>
      </trkpt>
      <trkpt lat="44.1542" lon="6.33415">
        <ele>1069.3</ele>
        <time>2021-03-02T11:08:34.355Z</time>
      </trkpt>
      <trkpt lat="44.15411" lon="6.33414">
        <ele>1069.3</ele>
        <time>2021-03-02T11:08:39.000Z</time>
      </trkpt>
      <trkpt lat="44.15407" lon="6.33415">
        <ele>1070.7</ele>
        <time>2021-03-02T11:08:41.028Z</time>
      </trkpt>
      <trkpt lat="44.15402" lon="6.33408">
        <ele>1070.7</ele>
        <time>2021-03-02T11:08:44.976Z</time>
      </trkpt>
      <trkpt lat="44.15398" lon="6.33399">
        <ele>1072.5</ele>
        <time>2021-03-02T11:08:48.510Z</time>
      </trkpt>
      <trkpt lat="44.15394" lon="6.33412">
        <ele>1073.3</ele>
        <time>2021-03-02T11:08:55.974Z</time>
      </trkpt>
      <trkpt lat="44.15394" lon="6.33424">
        <ele>1074.4</ele>
        <time>2021-03-02T11:08:59.014Z</time>
      </trkpt>
      <trkpt lat="44.15396" lon="6.33435">
        <ele>1074.8</ele>
        <time>2021-03-02T11:09:02.966Z</time>
      </trkpt>
      <trkpt lat="44.15399" lon="6.33443">
        <ele>1074.7</ele>
        <time>2021-03-02T11:09:05.966Z</time>
      </trkpt>
      <trkpt lat="44.15397" lon="6.33453">
        <ele>1077.1</ele>
        <time>2021-03-02T11:09:09.723Z</time>
      </trkpt>
      <trkpt lat="44.15398" lon="6.33463">
        <ele>1077.1</ele>
        <time>2021-03-02T11:09:12.983Z</time>
      </trkpt>
      <trkpt lat="44.154" lon="6.33474">
        <ele>1079.3</ele>
        <time>2021-03-02T11:09:16.971Z</time>
      </trkpt>
      <trkpt lat="44.154" lon="6.3348">
        <ele>1081.7</ele>
        <time>2021-03-02T11:09:20.036Z</time>
      </trkpt>
      <trkpt lat="44.15396" lon="6.33491">
        <ele>1082.4</ele>
        <time>2021-03-02T11:09:23.967Z</time>
      </trkpt>
      <trkpt lat="44.15393" lon="6.33498">
        <ele>1082.4</ele>
        <time>2021-03-02T11:09:26.979Z</time>
      </trkpt>
      <trkpt lat="44.15392" lon="6.33511">
        <ele>1082.4</ele>
        <time>2021-03-02T11:09:30.974Z</time>
      </trkpt>
      <trkpt lat="44.15392" lon="6.33524">
        <ele>1082.4</ele>
        <time>2021-03-02T11:09:35.006Z</time>
      </trkpt>
      <trkpt lat="44.15392" lon="6.33535">
        <ele>1082.5</ele>
        <time>2021-03-02T11:09:38.974Z</time>
      </trkpt>
      <trkpt lat="44.15391" lon="6.33544">
        <ele>1089.7</ele>
        <time>2021-03-02T11:09:42.501Z</time>
      </trkpt>
      <trkpt lat="44.15391" lon="6.33555">
        <ele>1089.7</ele>
        <time>2021-03-02T11:09:45.868Z</time>
      </trkpt>
      <trkpt lat="44.15392" lon="6.33566">
        <ele>1091.8</ele>
        <time>2021-03-02T11:09:49.197Z</time>
      </trkpt>
      <trkpt lat="44.15388" lon="6.33579">
        <ele>1091.7</ele>
        <time>2021-03-02T11:09:52.979Z</time>
      </trkpt>
      <trkpt lat="44.1539" lon="6.33591">
        <ele>1091.8</ele>
        <time>2021-03-02T11:09:56.969Z</time>
      </trkpt>
      <trkpt lat="44.15397" lon="6.33598">
        <ele>1094.9</ele>
        <time>2021-03-02T11:10:00.441Z</time>
      </trkpt>
      <trkpt lat="44.15398" lon="6.33607">
        <ele>1095.2</ele>
        <time>2021-03-02T11:10:03.548Z</time>
      </trkpt>
      <trkpt lat="44.15401" lon="6.33616">
        <ele>1097.6</ele>
        <time>2021-03-02T11:10:07.242Z</time>
      </trkpt>
      <trkpt lat="44.15402" lon="6.33624">
        <ele>1097.6</ele>
        <time>2021-03-02T11:10:10.974Z</time>
      </trkpt>
      <trkpt lat="44.15403" lon="6.33631">
        <ele>1097.6</ele>
        <time>2021-03-02T11:10:13.978Z</time>
      </trkpt>
      <trkpt lat="44.15405" lon="6.33637">
        <ele>1101</ele>
        <time>2021-03-02T11:10:17.009Z</time>
      </trkpt>
      <trkpt lat="44.15404" lon="6.33646">
        <ele>1100.9</ele>
        <time>2021-03-02T11:10:24.000Z</time>
      </trkpt>
      <trkpt lat="44.15383" lon="6.33671">
        <ele>1108.4</ele>
        <time>2021-03-02T11:11:18.000Z</time>
      </trkpt>
      <trkpt lat="44.15384" lon="6.33683">
        <ele>1108.4</ele>
        <time>2021-03-02T11:11:20.978Z</time>
      </trkpt>
      <trkpt lat="44.15379" lon="6.33703">
        <ele>1108.5</ele>
        <time>2021-03-02T11:11:24.187Z</time>
      </trkpt>
      <trkpt lat="44.15376" lon="6.33725">
        <ele>1108.6</ele>
        <time>2021-03-02T11:11:27.641Z</time>
      </trkpt>
      <trkpt lat="44.15361" lon="6.33746">
        <ele>1108.7</ele>
        <time>2021-03-02T11:11:33.000Z</time>
      </trkpt>
      <trkpt lat="44.1534" lon="6.33767">
        <ele>1108.7</ele>
        <time>2021-03-02T11:11:39.000Z</time>
      </trkpt>
      <trkpt lat="44.15328" lon="6.3378">
        <ele>1108.7</ele>
        <time>2021-03-02T11:11:42.000Z</time>
      </trkpt>
      <trkpt lat="44.15327" lon="6.33789">
        <ele>1108.7</ele>
        <time>2021-03-02T11:11:44.007Z</time>
      </trkpt>
      <trkpt lat="44.15326" lon="6.33808">
        <ele>1107.7</ele>
        <time>2021-03-02T11:11:47.982Z</time>
      </trkpt>
      <trkpt lat="44.15314" lon="6.33827">
        <ele>1107.1</ele>
        <time>2021-03-02T11:11:51.402Z</time>
      </trkpt>
      <trkpt lat="44.15302" lon="6.33836">
        <ele>1107</ele>
        <time>2021-03-02T11:11:54.976Z</time>
      </trkpt>
      <trkpt lat="44.15279" lon="6.33847">
        <ele>1106.9</ele>
        <time>2021-03-02T11:12:00.000Z</time>
      </trkpt>
      <trkpt lat="44.15243" lon="6.33859">
        <ele>1106.9</ele>
        <time>2021-03-02T11:12:06.000Z</time>
      </trkpt>
      <trkpt lat="44.15229" lon="6.33864">
        <ele>1107</ele>
        <time>2021-03-02T11:12:09.000Z</time>
      </trkpt>
      <trkpt lat="44.15222" lon="6.33867">
        <ele>1100.5</ele>
        <time>2021-03-02T11:12:12.000Z</time>
      </trkpt>
      <trkpt lat="44.15212" lon="6.33875">
        <ele>1098.9</ele>
        <time>2021-03-02T11:12:14.955Z</time>
      </trkpt>
      <trkpt lat="44.15219" lon="6.33877">
        <ele>1098.8</ele>
        <time>2021-03-02T11:12:17.963Z</time>
      </trkpt>
      <trkpt lat="44.15204" lon="6.33866">
        <ele>1096.8</ele>
        <time>2021-03-02T11:12:21.149Z</time>
      </trkpt>
      <trkpt lat="44.15193" lon="6.33862">
        <ele>1096.8</ele>
        <time>2021-03-02T11:12:24.398Z</time>
      </trkpt>
      <trkpt lat="44.15178" lon="6.33863">
        <ele>1092.8</ele>
        <time>2021-03-02T11:12:27.819Z</time>
      </trkpt>
      <trkpt lat="44.15152" lon="6.33863">
        <ele>1092.8</ele>
        <time>2021-03-02T11:12:33.000Z</time>
      </trkpt>
      <trkpt lat="44.15147" lon="6.33861">
        <ele>1086.4</ele>
        <time>2021-03-02T11:12:35.525Z</time>
      </trkpt>
      <trkpt lat="44.15137" lon="6.33851">
        <ele>1085.2</ele>
        <time>2021-03-02T11:12:38.977Z</time>
      </trkpt>
      <trkpt lat="44.15126" lon="6.33849">
        <ele>1082.4</ele>
        <time>2021-03-02T11:12:42.400Z</time>
      </trkpt>
      <trkpt lat="44.15116" lon="6.33847">
        <ele>1082</ele>
        <time>2021-03-02T11:12:45.627Z</time>
      </trkpt>
      <trkpt lat="44.15107" lon="6.33841">
        <ele>1082</ele>
        <time>2021-03-02T11:12:49.086Z</time>
      </trkpt>
      <trkpt lat="44.15096" lon="6.33831">
        <ele>1082</ele>
        <time>2021-03-02T11:12:52.703Z</time>
      </trkpt>
      <trkpt lat="44.15085" lon="6.3383">
        <ele>1072.3</ele>
        <time>2021-03-02T11:12:57.000Z</time>
      </trkpt>
      <trkpt lat="44.15079" lon="6.33837">
        <ele>1072.3</ele>
        <time>2021-03-02T11:13:00.000Z</time>
      </trkpt>
      <trkpt lat="44.1507" lon="6.3386">
        <ele>1068.9</ele>
        <time>2021-03-02T11:13:03.000Z</time>
      </trkpt>
      <trkpt lat="44.15065" lon="6.33874">
        <ele>1068.9</ele>
        <time>2021-03-02T11:13:06.000Z</time>
      </trkpt>
      <trkpt lat="44.15065" lon="6.33895">
        <ele>1063.4</ele>
        <time>2021-03-02T11:13:08.017Z</time>
      </trkpt>
      <trkpt lat="44.15077" lon="6.33939">
        <ele>1061.9</ele>
        <time>2021-03-02T11:13:15.000Z</time>
      </trkpt>
      <trkpt lat="44.15092" lon="6.33953">
        <ele>1061.9</ele>
        <time>2021-03-02T11:13:21.000Z</time>
      </trkpt>
      <trkpt lat="44.15102" lon="6.33981">
        <ele>1051.4</ele>
        <time>2021-03-02T11:13:27.000Z</time>
      </trkpt>
      <trkpt lat="44.15114" lon="6.34003">
        <ele>1047.9</ele>
        <time>2021-03-02T11:13:33.000Z</time>
      </trkpt>
      <trkpt lat="44.15131" lon="6.3403">
        <ele>1042.8</ele>
        <time>2021-03-02T11:13:39.000Z</time>
      </trkpt>
      <trkpt lat="44.15139" lon="6.34036">
        <ele>1042.9</ele>
        <time>2021-03-02T11:13:42.000Z</time>
      </trkpt>
      <trkpt lat="44.15133" lon="6.34055">
        <ele>1034.1</ele>
        <time>2021-03-02T11:13:48.000Z</time>
      </trkpt>
      <trkpt lat="44.15121" lon="6.34068">
        <ele>1029.8</ele>
        <time>2021-03-02T11:13:51.000Z</time>
      </trkpt>
      <trkpt lat="44.15107" lon="6.34086">
        <ele>1027.4</ele>
        <time>2021-03-02T11:13:53.007Z</time>
      </trkpt>
      <trkpt lat="44.15089" lon="6.341">
        <ele>1025.1</ele>
        <time>2021-03-02T11:14:00.000Z</time>
      </trkpt>
      <trkpt lat="44.15075" lon="6.34127">
        <ele>1025.1</ele>
        <time>2021-03-02T11:14:06.000Z</time>
      </trkpt>
      <trkpt lat="44.1507" lon="6.34141">
        <ele>1025.1</ele>
        <time>2021-03-02T11:14:09.000Z</time>
      </trkpt>
      <trkpt lat="44.15069" lon="6.34188">
        <ele>1012.6</ele>
        <time>2021-03-02T11:14:15.000Z</time>
      </trkpt>
      <trkpt lat="44.15069" lon="6.34209">
        <ele>1008.5</ele>
        <time>2021-03-02T11:14:18.000Z</time>
      </trkpt>
      <trkpt lat="44.15067" lon="6.34234">
        <ele>1008.6</ele>
        <time>2021-03-02T11:14:21.000Z</time>
      </trkpt>
      <trkpt lat="44.15068" lon="6.34264">
        <ele>1008.6</ele>
        <time>2021-03-02T11:14:27.000Z</time>
      </trkpt>
      <trkpt lat="44.15058" lon="6.34296">
        <ele>1008.6</ele>
        <time>2021-03-02T11:14:33.000Z</time>
      </trkpt>
      <trkpt lat="44.15049" lon="6.34316">
        <ele>997.5</ele>
        <time>2021-03-02T11:14:36.000Z</time>
      </trkpt>
      <trkpt lat="44.15048" lon="6.34332">
        <ele>992.3</ele>
        <time>2021-03-02T11:14:38.014Z</time>
      </trkpt>
      <trkpt lat="44.15038" lon="6.3435">
        <ele>992.1</ele>
        <time>2021-03-02T11:14:45.000Z</time>
      </trkpt>
      <trkpt lat="44.15023" lon="6.34359">
        <ele>992.2</ele>
        <time>2021-03-02T11:14:48.000Z</time>
      </trkpt>
      <trkpt lat="44.14996" lon="6.34392">
        <ele>992.2</ele>
        <time>2021-03-02T11:14:54.000Z</time>
      </trkpt>
      <trkpt lat="44.1499" lon="6.34404">
        <ele>976.4</ele>
        <time>2021-03-02T11:14:56.013Z</time>
      </trkpt>
      <trkpt lat="44.14996" lon="6.34414">
        <ele>962</ele>
        <time>2021-03-02T11:15:30.000Z</time>
      </trkpt>
      <trkpt lat="44.15013" lon="6.34417">
        <ele>961.2</ele>
        <time>2021-03-02T11:15:33.000Z</time>
      </trkpt>
      <trkpt lat="44.15024" lon="6.34418">
        <ele>961.3</ele>
        <time>2021-03-02T11:15:36.000Z</time>
      </trkpt>
      <trkpt lat="44.1506" lon="6.34424">
        <ele>961.2</ele>
        <time>2021-03-02T11:15:42.000Z</time>
      </trkpt>
      <trkpt lat="44.15076" lon="6.34434">
        <ele>961.3</ele>
        <time>2021-03-02T11:15:45.000Z</time>
      </trkpt>
      <trkpt lat="44.15106" lon="6.34451">
        <ele>961.1</ele>
        <time>2021-03-02T11:15:51.000Z</time>
      </trkpt>
      <trkpt lat="44.15117" lon="6.34452">
        <ele>961.1</ele>
        <time>2021-03-02T11:15:54.000Z</time>
      </trkpt>
      <trkpt lat="44.15113" lon="6.34462">
        <ele>951.2</ele>
        <time>2021-03-02T11:15:58.026Z</time>
      </trkpt>
      <trkpt lat="44.15107" lon="6.34479">
        <ele>950.8</ele>
        <time>2021-03-02T11:16:03.000Z</time>
      </trkpt>
      <trkpt lat="44.15108" lon="6.34505">
        <ele>950.8</ele>
        <time>2021-03-02T11:16:06.000Z</time>
      </trkpt>
      <trkpt lat="44.15113" lon="6.34522">
        <ele>950.8</ele>
        <time>2021-03-02T11:16:09.000Z</time>
      </trkpt>
      <trkpt lat="44.15117" lon="6.34553">
        <ele>946.9</ele>
        <time>2021-03-02T11:16:12.000Z</time>
      </trkpt>
      <trkpt lat="44.15119" lon="6.34577">
        <ele>946.9</ele>
        <time>2021-03-02T11:16:15.000Z</time>
      </trkpt>
      <trkpt lat="44.15113" lon="6.34599">
        <ele>946.7</ele>
        <time>2021-03-02T11:16:18.000Z</time>
      </trkpt>
      <trkpt lat="44.15103" lon="6.34616">
        <ele>940.4</ele>
        <time>2021-03-02T11:16:20.016Z</time>
      </trkpt>
      <trkpt lat="44.1509" lon="6.34639">
        <ele>939.6</ele>
        <time>2021-03-02T11:16:27.000Z</time>
      </trkpt>
      <trkpt lat="44.1508" lon="6.34658">
        <ele>936.5</ele>
        <time>2021-03-02T11:16:30.000Z</time>
      </trkpt>
      <trkpt lat="44.15066" lon="6.34675">
        <ele>936.5</ele>
        <time>2021-03-02T11:16:36.000Z</time>
      </trkpt>
      <trkpt lat="44.15035" lon="6.34707">
        <ele>930.6</ele>
        <time>2021-03-02T11:16:42.000Z</time>
      </trkpt>
      <trkpt lat="44.15027" lon="6.34726">
        <ele>930.7</ele>
        <time>2021-03-02T11:16:45.000Z</time>
      </trkpt>
      <trkpt lat="44.15024" lon="6.3476">
        <ele>923.6</ele>
        <time>2021-03-02T11:16:51.000Z</time>
      </trkpt>
      <trkpt lat="44.15019" lon="6.34794">
        <ele>919</ele>
        <time>2021-03-02T11:16:57.000Z</time>
      </trkpt>
      <trkpt lat="44.15017" lon="6.34807">
        <ele>914.1</ele>
        <time>2021-03-02T11:17:00.000Z</time>
      </trkpt>
      <trkpt lat="44.15017" lon="6.34824">
        <ele>914.1</ele>
        <time>2021-03-02T11:17:06.000Z</time>
      </trkpt>
      <trkpt lat="44.15015" lon="6.34806">
        <ele>906.1</ele>
        <time>2021-03-02T11:17:12.000Z</time>
      </trkpt>
      <trkpt lat="44.1501" lon="6.34809">
        <ele>902.9</ele>
        <time>2021-03-02T11:17:18.000Z</time>
      </trkpt>
      <trkpt lat="44.15008" lon="6.34823">
        <ele>898.4</ele>
        <time>2021-03-02T11:17:27.000Z</time>
      </trkpt>
      <trkpt lat="44.15013" lon="6.34838">
        <ele>898.5</ele>
        <time>2021-03-02T11:17:30.000Z</time>
      </trkpt>
      <trkpt lat="44.15013" lon="6.34849">
        <ele>887.4</ele>
        <time>2021-03-02T11:17:49.056Z</time>
      </trkpt>
      <trkpt lat="44.15009" lon="6.34865">
        <ele>886.2</ele>
        <time>2021-03-02T11:17:54.000Z</time>
      </trkpt>
      <trkpt lat="44.14996" lon="6.34867">
        <ele>886.1</ele>
        <time>2021-03-02T11:17:57.000Z</time>
      </trkpt>
      <trkpt lat="44.14973" lon="6.34852">
        <ele>884.1</ele>
        <time>2021-03-02T11:18:03.000Z</time>
      </trkpt>
      <trkpt lat="44.14971" lon="6.34841">
        <ele>884.1</ele>
        <time>2021-03-02T11:18:06.000Z</time>
      </trkpt>
      <trkpt lat="44.1497" lon="6.34827">
        <ele>884.2</ele>
        <time>2021-03-02T11:18:09.000Z</time>
      </trkpt>
      <trkpt lat="44.14961" lon="6.34803">
        <ele>884.1</ele>
        <time>2021-03-02T11:18:15.000Z</time>
      </trkpt>
      <trkpt lat="44.14951" lon="6.34838">
        <ele>875.9</ele>
        <time>2021-03-02T11:18:21.000Z</time>
      </trkpt>
      <trkpt lat="44.1494" lon="6.34866">
        <ele>873.7</ele>
        <time>2021-03-02T11:18:27.000Z</time>
      </trkpt>
      <trkpt lat="44.14941" lon="6.34877">
        <ele>873.8</ele>
        <time>2021-03-02T11:18:30.000Z</time>
      </trkpt>
      <trkpt lat="44.14953" lon="6.34891">
        <ele>873.9</ele>
        <time>2021-03-02T11:18:33.000Z</time>
      </trkpt>
      <trkpt lat="44.14965" lon="6.34903">
        <ele>869.2</ele>
        <time>2021-03-02T11:18:35.041Z</time>
      </trkpt>
      <trkpt lat="44.15002" lon="6.34929">
        <ele>868.9</ele>
        <time>2021-03-02T11:18:42.000Z</time>
      </trkpt>
      <trkpt lat="44.1502" lon="6.34936">
        <ele>866.5</ele>
        <time>2021-03-02T11:18:45.000Z</time>
      </trkpt>
      <trkpt lat="44.15028" lon="6.34948">
        <ele>866.5</ele>
        <time>2021-03-02T11:18:51.000Z</time>
      </trkpt>
      <trkpt lat="44.14995" lon="6.34958">
        <ele>862.3</ele>
        <time>2021-03-02T11:18:57.000Z</time>
      </trkpt>
      <trkpt lat="44.14984" lon="6.34966">
        <ele>859.3</ele>
        <time>2021-03-02T11:19:03.000Z</time>
      </trkpt>
      <trkpt lat="44.14975" lon="6.3497">
        <ele>854.9</ele>
        <time>2021-03-02T11:19:04.997Z</time>
      </trkpt>
      <trkpt lat="44.14959" lon="6.34977">
        <ele>853.9</ele>
        <time>2021-03-02T11:19:12.000Z</time>
      </trkpt>
      <trkpt lat="44.14945" lon="6.34992">
        <ele>853.8</ele>
        <time>2021-03-02T11:19:18.000Z</time>
      </trkpt>
      <trkpt lat="44.14937" lon="6.34986">
        <ele>853.9</ele>
        <time>2021-03-02T11:19:21.000Z</time>
      </trkpt>
      <trkpt lat="44.14926" lon="6.34983">
        <ele>840.8</ele>
        <time>2021-03-02T11:19:24.000Z</time>
      </trkpt>
      <trkpt lat="44.14909" lon="6.34985">
        <ele>840.9</ele>
        <time>2021-03-02T11:19:27.000Z</time>
      </trkpt>
      <trkpt lat="44.14884" lon="6.34983">
        <ele>837.9</ele>
        <time>2021-03-02T11:19:33.000Z</time>
      </trkpt>
      <trkpt lat="44.14867" lon="6.34984">
        <ele>837.8</ele>
        <time>2021-03-02T11:19:36.000Z</time>
      </trkpt>
      <trkpt lat="44.1485" lon="6.34988">
        <ele>837.7</ele>
        <time>2021-03-02T11:19:42.000Z</time>
      </trkpt>
      <trkpt lat="44.14816" lon="6.34989">
        <ele>821.9</ele>
        <time>2021-03-02T11:19:48.000Z</time>
      </trkpt>
      <trkpt lat="44.14806" lon="6.34987">
        <ele>819.3</ele>
        <time>2021-03-02T11:19:51.000Z</time>
      </trkpt>
      <trkpt lat="44.14782" lon="6.34979">
        <ele>819.2</ele>
        <time>2021-03-02T11:19:57.000Z</time>
      </trkpt>
      <trkpt lat="44.14771" lon="6.34979">
        <ele>819.3</ele>
        <time>2021-03-02T11:20:00.000Z</time>
      </trkpt>
      <trkpt lat="44.1476" lon="6.34986">
        <ele>807.8</ele>
        <time>2021-03-02T11:20:06.000Z</time>
      </trkpt>
      <trkpt lat="44.14756" lon="6.34981">
        <ele>806.1</ele>
        <time>2021-03-02T11:20:15.000Z</time>
      </trkpt>
      <trkpt lat="44.14741" lon="6.34985">
        <ele>795.2</ele>
        <time>2021-03-02T11:20:49.059Z</time>
      </trkpt>
      <trkpt lat="44.14727" lon="6.34987">
        <ele>795.2</ele>
        <time>2021-03-02T11:20:54.000Z</time>
      </trkpt>
      <trkpt lat="44.14714" lon="6.34989">
        <ele>794.6</ele>
        <time>2021-03-02T11:20:55.995Z</time>
      </trkpt>
      <trkpt lat="44.14691" lon="6.34998">
        <ele>794.4</ele>
        <time>2021-03-02T11:21:03.000Z</time>
      </trkpt>
      <trkpt lat="44.14679" lon="6.35002">
        <ele>793.4</ele>
        <time>2021-03-02T11:21:06.000Z</time>
      </trkpt>
      <trkpt lat="44.14661" lon="6.35005">
        <ele>793.4</ele>
        <time>2021-03-02T11:21:12.000Z</time>
      </trkpt>
      <trkpt lat="44.14655" lon="6.34999">
        <ele>791.2</ele>
        <time>2021-03-02T11:21:15.000Z</time>
      </trkpt>
      <trkpt lat="44.14647" lon="6.3499">
        <ele>791.2</ele>
        <time>2021-03-02T11:21:18.000Z</time>
      </trkpt>
      <trkpt lat="44.14642" lon="6.34988">
        <ele>783.2</ele>
        <time>2021-03-02T11:22:57.000Z</time>
      </trkpt>
      <trkpt lat="44.14633" lon="6.34961">
        <ele>783.2</ele>
        <time>2021-03-02T11:23:06.000Z</time>
      </trkpt>
      <trkpt lat="44.14623" lon="6.34945">
        <ele>783.2</ele>
        <time>2021-03-02T11:23:09.000Z</time>
      </trkpt>
      <trkpt lat="44.14599" lon="6.34904">
        <ele>782.7</ele>
        <time>2021-03-02T11:23:15.000Z</time>
      </trkpt>
      <trkpt lat="44.14594" lon="6.34887">
        <ele>781.2</ele>
        <time>2021-03-02T11:23:19.021Z</time>
      </trkpt>
      <trkpt lat="44.14609" lon="6.3488">
        <ele>780.9</ele>
        <time>2021-03-02T11:23:24.000Z</time>
      </trkpt>
      <trkpt lat="44.14619" lon="6.34866">
        <ele>780.1</ele>
        <time>2021-03-02T11:23:30.000Z</time>
      </trkpt>
      <trkpt lat="44.1461" lon="6.34868">
        <ele>776.9</ele>
        <time>2021-03-02T11:23:57.000Z</time>
      </trkpt>
      <trkpt lat="44.14602" lon="6.3486">
        <ele>776.7</ele>
        <time>2021-03-02T11:23:59.042Z</time>
      </trkpt>
      <trkpt lat="44.14584" lon="6.34843">
        <ele>776.3</ele>
        <time>2021-03-02T11:24:06.000Z</time>
      </trkpt>
      <trkpt lat="44.14571" lon="6.34834">
        <ele>776.3</ele>
        <time>2021-03-02T11:24:12.000Z</time>
      </trkpt>
      <trkpt lat="44.14562" lon="6.34827">
        <ele>775.8</ele>
        <time>2021-03-02T11:24:15.000Z</time>
      </trkpt>
      <trkpt lat="44.14553" lon="6.34817">
        <ele>775.7</ele>
        <time>2021-03-02T11:24:17.038Z</time>
      </trkpt>
      <trkpt lat="44.14536" lon="6.34806">
        <ele>775.8</ele>
        <time>2021-03-02T11:24:24.000Z</time>
      </trkpt>
      <trkpt lat="44.14506" lon="6.34804">
        <ele>775.8</ele>
        <time>2021-03-02T11:24:30.000Z</time>
      </trkpt>
      <trkpt lat="44.14487" lon="6.34789">
        <ele>775.9</ele>
        <time>2021-03-02T11:24:36.000Z</time>
      </trkpt>
      <trkpt lat="44.14468" lon="6.34794">
        <ele>775.9</ele>
        <time>2021-03-02T11:24:42.000Z</time>
      </trkpt>
      <trkpt lat="44.14464" lon="6.34792">
        <ele>771.4</ele>
        <time>2021-03-02T11:25:11.486Z</time>
      </trkpt>
      <trkpt lat="44.14469" lon="6.34796">
        <ele>771</ele>
        <time>2021-03-02T11:25:39.000Z</time>
      </trkpt>
      <trkpt lat="44.14462" lon="6.34792">
        <ele>769.9</ele>
        <time>2021-03-02T11:26:21.801Z</time>
      </trkpt>
      <trkpt lat="44.14457" lon="6.34782">
        <ele>769.7</ele>
        <time>2021-03-02T11:26:27.000Z</time>
      </trkpt>
      <trkpt lat="44.1445" lon="6.34772">
        <ele>769.4</ele>
        <time>2021-03-02T11:26:28.947Z</time>
      </trkpt>
      <trkpt lat="44.14437" lon="6.34742">
        <ele>769.2</ele>
        <time>2021-03-02T11:26:36.000Z</time>
      </trkpt>
      <trkpt lat="44.14432" lon="6.34735">
        <ele>771.3</ele>
        <time>2021-03-02T11:26:37.943Z</time>
      </trkpt>
      <trkpt lat="44.14413" lon="6.34726">
        <ele>771</ele>
        <time>2021-03-02T11:26:45.000Z</time>
      </trkpt>
      <trkpt lat="44.14402" lon="6.34719">
        <ele>769.5</ele>
        <time>2021-03-02T11:26:48.000Z</time>
      </trkpt>
      <trkpt lat="44.14383" lon="6.34692">
        <ele>769.6</ele>
        <time>2021-03-02T11:26:54.000Z</time>
      </trkpt>
      <trkpt lat="44.14375" lon="6.34671">
        <ele>767.3</ele>
        <time>2021-03-02T11:26:57.000Z</time>
      </trkpt>
      <trkpt lat="44.14374" lon="6.34658">
        <ele>767.4</ele>
        <time>2021-03-02T11:27:00.000Z</time>
      </trkpt>
      <trkpt lat="44.14375" lon="6.34636">
        <ele>763.6</ele>
        <time>2021-03-02T11:27:03.000Z</time>
      </trkpt>
      <trkpt lat="44.14375" lon="6.34608">
        <ele>762.4</ele>
        <time>2021-03-02T11:27:05.360Z</time>
      </trkpt>
      <trkpt lat="44.14372" lon="6.34598">
        <ele>757.9</ele>
        <time>2021-03-02T11:27:16.943Z</time>
      </trkpt>
      <trkpt lat="44.14369" lon="6.34591">
        <ele>756.2</ele>
        <time>2021-03-02T11:27:27.000Z</time>
      </trkpt>
      <trkpt lat="44.14368" lon="6.34585">
        <ele>752</ele>
        <time>2021-03-02T11:28:06.000Z</time>
      </trkpt>
      <trkpt lat="44.14368" lon="6.34574">
        <ele>751.1</ele>
        <time>2021-03-02T11:28:18.868Z</time>
      </trkpt>
      <trkpt lat="44.14369" lon="6.34566">
        <ele>750.4</ele>
        <time>2021-03-02T11:28:25.325Z</time>
      </trkpt>
      <trkpt lat="44.1436" lon="6.34564">
        <ele>750.7</ele>
        <time>2021-03-02T11:28:31.519Z</time>
      </trkpt>
      <trkpt lat="44.14355" lon="6.3456">
        <ele>750.8</ele>
        <time>2021-03-02T11:28:38.344Z</time>
      </trkpt>
      <trkpt lat="44.14349" lon="6.34555">
        <ele>750.8</ele>
        <time>2021-03-02T11:28:41.592Z</time>
      </trkpt>
      <trkpt lat="44.14354" lon="6.34525">
        <ele>749.7</ele>
        <time>2021-03-02T11:28:48.000Z</time>
      </trkpt>
      <trkpt lat="44.14344" lon="6.34521">
        <ele>749.7</ele>
        <time>2021-03-02T11:28:53.425Z</time>
      </trkpt>
      <trkpt lat="44.14333" lon="6.34522">
        <ele>750.5</ele>
        <time>2021-03-02T11:28:56.731Z</time>
      </trkpt>
      <trkpt lat="44.14325" lon="6.34513">
        <ele>750.8</ele>
        <time>2021-03-02T11:29:00.088Z</time>
      </trkpt>
      <trkpt lat="44.14318" lon="6.34503">
        <ele>750.7</ele>
        <time>2021-03-02T11:29:03.358Z</time>
      </trkpt>
      <trkpt lat="44.14306" lon="6.34498">
        <ele>751.4</ele>
        <time>2021-03-02T11:29:06.509Z</time>
      </trkpt>
      <trkpt lat="44.14294" lon="6.3449">
        <ele>751.4</ele>
        <time>2021-03-02T11:29:10.111Z</time>
      </trkpt>
      <trkpt lat="44.14284" lon="6.34488">
        <ele>751.1</ele>
        <time>2021-03-02T11:29:13.231Z</time>
      </trkpt>
      <trkpt lat="44.14273" lon="6.34483">
        <ele>751.1</ele>
        <time>2021-03-02T11:29:16.688Z</time>
      </trkpt>
      <trkpt lat="44.14256" lon="6.34465">
        <ele>750.6</ele>
        <time>2021-03-02T11:29:21.000Z</time>
      </trkpt>
      <trkpt lat="44.14247" lon="6.3447">
        <ele>748.3</ele>
        <time>2021-03-02T11:29:22.964Z</time>
      </trkpt>
      <trkpt lat="44.14235" lon="6.34461">
        <ele>748.5</ele>
        <time>2021-03-02T11:29:25.994Z</time>
      </trkpt>
      <trkpt lat="44.14222" lon="6.34459">
        <ele>748.5</ele>
        <time>2021-03-02T11:29:29.195Z</time>
      </trkpt>
      <trkpt lat="44.14204" lon="6.34454">
        <ele>747.9</ele>
        <time>2021-03-02T11:29:33.388Z</time>
      </trkpt>
      <trkpt lat="44.14196" lon="6.34433">
        <ele>748</ele>
        <time>2021-03-02T11:29:36.965Z</time>
      </trkpt>
      <trkpt lat="44.14181" lon="6.34417">
        <ele>747.4</ele>
        <time>2021-03-02T11:29:40.791Z</time>
      </trkpt>
      <trkpt lat="44.14174" lon="6.34413">
        <ele>747.3</ele>
        <time>2021-03-02T11:29:45.000Z</time>
      </trkpt>
      <trkpt lat="44.14174" lon="6.34428">
        <ele>746</ele>
        <time>2021-03-02T11:29:51.070Z</time>
      </trkpt>
      <trkpt lat="44.14174" lon="6.34421">
        <ele>743.1</ele>
        <time>2021-03-02T11:29:57.605Z</time>
      </trkpt>
      <trkpt lat="44.14173" lon="6.34412">
        <ele>742.4</ele>
        <time>2021-03-02T11:30:07.372Z</time>
      </trkpt>
      <trkpt lat="44.1417" lon="6.34406">
        <ele>741.5</ele>
        <time>2021-03-02T11:30:14.225Z</time>
      </trkpt>
      <trkpt lat="44.14168" lon="6.34411">
        <ele>740.6</ele>
        <time>2021-03-02T11:30:20.808Z</time>
      </trkpt>
      <trkpt lat="44.14161" lon="6.34417">
        <ele>740.2</ele>
        <time>2021-03-02T11:30:27.000Z</time>
      </trkpt>
      <trkpt lat="44.1416" lon="6.34424">
        <ele>740.3</ele>
        <time>2021-03-02T11:30:30.000Z</time>
      </trkpt>
      <trkpt lat="44.14153" lon="6.34426">
        <ele>740.5</ele>
        <time>2021-03-02T11:30:35.810Z</time>
      </trkpt>
      <trkpt lat="44.1414" lon="6.34425">
        <ele>740.4</ele>
        <time>2021-03-02T11:30:39.508Z</time>
      </trkpt>
      <trkpt lat="44.14131" lon="6.3442">
        <ele>740.3</ele>
        <time>2021-03-02T11:30:42.513Z</time>
      </trkpt>
      <trkpt lat="44.14123" lon="6.34413">
        <ele>740.2</ele>
        <time>2021-03-02T11:30:45.614Z</time>
      </trkpt>
      <trkpt lat="44.14117" lon="6.34405">
        <ele>740.2</ele>
        <time>2021-03-02T11:30:48.894Z</time>
      </trkpt>
      <trkpt lat="44.14112" lon="6.34394">
        <ele>740.2</ele>
        <time>2021-03-02T11:30:52.335Z</time>
      </trkpt>
      <trkpt lat="44.14106" lon="6.34378">
        <ele>739.2</ele>
        <time>2021-03-02T11:30:55.747Z</time>
      </trkpt>
      <trkpt lat="44.141" lon="6.34363">
        <ele>739.3</ele>
        <time>2021-03-02T11:30:58.873Z</time>
      </trkpt>
      <trkpt lat="44.14085" lon="6.34346">
        <ele>739.2</ele>
        <time>2021-03-02T11:31:03.000Z</time>
      </trkpt>
      <trkpt lat="44.14093" lon="6.34348">
        <ele>739.2</ele>
        <time>2021-03-02T11:31:07.916Z</time>
      </trkpt>
      <trkpt lat="44.14087" lon="6.34345">
        <ele>736.4</ele>
        <time>2021-03-02T11:31:12.000Z</time>
      </trkpt>
      <trkpt lat="44.14081" lon="6.34341">
        <ele>736.4</ele>
        <time>2021-03-02T11:31:15.000Z</time>
      </trkpt>
      <trkpt lat="44.14073" lon="6.34333">
        <ele>383.5</ele>
        <time>2021-03-02T11:31:25.007Z</time>
      </trkpt>
      <trkpt lat="44.1407" lon="6.34328">
        <ele>735.2</ele>
        <time>2021-03-02T11:31:28.052Z</time>
      </trkpt>
      <trkpt lat="44.14066" lon="6.34321">
        <ele>735.3</ele>
        <time>2021-03-02T11:31:31.569Z</time>
      </trkpt>
      <trkpt lat="44.14063" lon="6.34313">
        <ele>734.7</ele>
        <time>2021-03-02T11:31:34.734Z</time>
      </trkpt>
      <trkpt lat="44.14057" lon="6.34303">
        <ele>734.7</ele>
        <time>2021-03-02T11:31:39.000Z</time>
      </trkpt>
      <trkpt lat="44.14048" lon="6.34296">
        <ele>734.2</ele>
        <time>2021-03-02T11:31:42.000Z</time>
      </trkpt>
      <trkpt lat="44.14041" lon="6.34288">
        <ele>734.2</ele>
        <time>2021-03-02T11:31:45.000Z</time>
      </trkpt>
      <trkpt lat="44.14033" lon="6.34278">
        <ele>733.6</ele>
        <time>2021-03-02T11:31:48.000Z</time>
      </trkpt>
      <trkpt lat="44.14025" lon="6.34273">
        <ele>733.6</ele>
        <time>2021-03-02T11:31:51.000Z</time>
      </trkpt>
      <trkpt lat="44.14016" lon="6.34262">
        <ele>732.3</ele>
        <time>2021-03-02T11:31:57.000Z</time>
      </trkpt>
      <trkpt lat="44.14008" lon="6.34248">
        <ele>730.5</ele>
        <time>2021-03-02T11:32:01.967Z</time>
      </trkpt>
      <trkpt lat="44.13999" lon="6.34235">
        <ele>729.9</ele>
        <time>2021-03-02T11:32:05.170Z</time>
      </trkpt>
      <trkpt lat="44.13983" lon="6.34228">
        <ele>729.9</ele>
        <time>2021-03-02T11:32:12.000Z</time>
      </trkpt>
      <trkpt lat="44.13978" lon="6.34228">
        <ele>729.9</ele>
        <time>2021-03-02T11:32:15.000Z</time>
      </trkpt>
      <trkpt lat="44.13973" lon="6.34227">
        <ele>727.1</ele>
        <time>2021-03-02T11:32:18.000Z</time>
      </trkpt>
      <trkpt lat="44.13977" lon="6.34231">
        <ele>725.1</ele>
        <time>2021-03-02T11:32:30.000Z</time>
      </trkpt>
      <trkpt lat="44.13972" lon="6.34228">
        <ele>722.6</ele>
        <time>2021-03-02T11:33:55.149Z</time>
      </trkpt>
      <trkpt lat="44.13966" lon="6.34235">
        <ele>722.6</ele>
        <time>2021-03-02T11:34:00.000Z</time>
      </trkpt>
      <trkpt lat="44.13964" lon="6.34243">
        <ele>722.6</ele>
        <time>2021-03-02T11:34:01.999Z</time>
      </trkpt>
      <trkpt lat="44.13964" lon="6.34255">
        <ele>723.3</ele>
        <time>2021-03-02T11:34:05.968Z</time>
      </trkpt>
      <trkpt lat="44.13962" lon="6.34263">
        <ele>724</ele>
        <time>2021-03-02T11:34:09.106Z</time>
      </trkpt>
      <trkpt lat="44.13959" lon="6.34274">
        <ele>724.3</ele>
        <time>2021-03-02T11:34:12.111Z</time>
      </trkpt>
      <trkpt lat="44.1395" lon="6.34283">
        <ele>724.2</ele>
        <time>2021-03-02T11:34:15.975Z</time>
      </trkpt>
      <trkpt lat="44.13941" lon="6.34289">
        <ele>726.1</ele>
        <time>2021-03-02T11:34:20.019Z</time>
      </trkpt>
      <trkpt lat="44.13934" lon="6.34294">
        <ele>726.7</ele>
        <time>2021-03-02T11:34:23.677Z</time>
      </trkpt>
      <trkpt lat="44.13926" lon="6.34296">
        <ele>726.9</ele>
        <time>2021-03-02T11:34:26.976Z</time>
      </trkpt>
      <trkpt lat="44.13918" lon="6.34295">
        <ele>727.5</ele>
        <time>2021-03-02T11:34:30.368Z</time>
      </trkpt>
      <trkpt lat="44.1391" lon="6.34295">
        <ele>727.9</ele>
        <time>2021-03-02T11:34:36.000Z</time>
      </trkpt>
      <trkpt lat="44.13905" lon="6.34297">
        <ele>727.9</ele>
        <time>2021-03-02T11:34:39.000Z</time>
      </trkpt>
      <trkpt lat="44.13896" lon="6.34293">
        <ele>727.9</ele>
        <time>2021-03-02T11:34:41.014Z</time>
      </trkpt>
      <trkpt lat="44.13888" lon="6.34289">
        <ele>733.8</ele>
        <time>2021-03-02T11:34:45.394Z</time>
      </trkpt>
      <trkpt lat="44.13882" lon="6.34289">
        <ele>734</ele>
        <time>2021-03-02T11:34:48.555Z</time>
      </trkpt>
      <trkpt lat="44.13877" lon="6.34289">
        <ele>878.9</ele>
        <time>2021-03-02T11:34:51.650Z</time>
      </trkpt>
      <trkpt lat="44.13871" lon="6.34287">
        <ele>878.9</ele>
        <time>2021-03-02T11:34:54.976Z</time>
      </trkpt>
      <trkpt lat="44.13864" lon="6.34288">
        <ele>878.9</ele>
        <time>2021-03-02T11:34:58.970Z</time>
      </trkpt>
      <trkpt lat="44.13859" lon="6.34288">
        <ele>878.9</ele>
        <time>2021-03-02T11:35:02.016Z</time>
      </trkpt>
      <trkpt lat="44.13851" lon="6.34291">
        <ele>878.9</ele>
        <time>2021-03-02T11:35:05.965Z</time>
      </trkpt>
      <trkpt lat="44.13845" lon="6.34293">
        <ele>878.9</ele>
        <time>2021-03-02T11:35:09.179Z</time>
      </trkpt>
      <trkpt lat="44.13839" lon="6.34297">
        <ele>878.9</ele>
        <time>2021-03-02T11:35:12.979Z</time>
      </trkpt>
      <trkpt lat="44.13832" lon="6.34297">
        <ele>878.9</ele>
        <time>2021-03-02T11:35:16.975Z</time>
      </trkpt>
      <trkpt lat="44.13824" lon="6.34299">
        <ele>878.9</ele>
        <time>2021-03-02T11:35:20.969Z</time>
      </trkpt>
      <trkpt lat="44.13817" lon="6.343">
        <ele>878.9</ele>
        <time>2021-03-02T11:35:24.634Z</time>
      </trkpt>
      <trkpt lat="44.13811" lon="6.34301">
        <ele>878.9</ele>
        <time>2021-03-02T11:35:28.096Z</time>
      </trkpt>
      <trkpt lat="44.13804" lon="6.34301">
        <ele>878.9</ele>
        <time>2021-03-02T11:35:31.967Z</time>
      </trkpt>
      <trkpt lat="44.13797" lon="6.34297">
        <ele>878.9</ele>
        <time>2021-03-02T11:35:34.969Z</time>
      </trkpt>
      <trkpt lat="44.1379" lon="6.34294">
        <ele>878.9</ele>
        <time>2021-03-02T11:35:37.973Z</time>
      </trkpt>
      <trkpt lat="44.13783" lon="6.3429">
        <ele>878.9</ele>
        <time>2021-03-02T11:35:40.986Z</time>
      </trkpt>
      <trkpt lat="44.13775" lon="6.34287">
        <ele>878.9</ele>
        <time>2021-03-02T11:35:44.676Z</time>
      </trkpt>
      <trkpt lat="44.13768" lon="6.34283">
        <ele>878.9</ele>
        <time>2021-03-02T11:35:47.975Z</time>
      </trkpt>
      <trkpt lat="44.1376" lon="6.3428">
        <ele>878.9</ele>
        <time>2021-03-02T11:35:51.035Z</time>
      </trkpt>
      <trkpt lat="44.13752" lon="6.34276">
        <ele>878.9</ele>
        <time>2021-03-02T11:35:54.974Z</time>
      </trkpt>
      <trkpt lat="44.13744" lon="6.34273">
        <ele>878.9</ele>
        <time>2021-03-02T11:35:58.973Z</time>
      </trkpt>
      <trkpt lat="44.13736" lon="6.3427">
        <ele>878.9</ele>
        <time>2021-03-02T11:36:02.966Z</time>
      </trkpt>
      <trkpt lat="44.13729" lon="6.34269">
        <ele>878.9</ele>
        <time>2021-03-02T11:36:06.188Z</time>
      </trkpt>
      <trkpt lat="44.13723" lon="6.34267">
        <ele>878.9</ele>
        <time>2021-03-02T11:36:09.716Z</time>
      </trkpt>
      <trkpt lat="44.13716" lon="6.34265">
        <ele>878.9</ele>
        <time>2021-03-02T11:36:12.931Z</time>
      </trkpt>
      <trkpt lat="44.13709" lon="6.34263">
        <ele>878.9</ele>
        <time>2021-03-02T11:36:15.981Z</time>
      </trkpt>
      <trkpt lat="44.13701" lon="6.34264">
        <ele>878.9</ele>
        <time>2021-03-02T11:36:19.981Z</time>
      </trkpt>
      <trkpt lat="44.13695" lon="6.34265">
        <ele>878.9</ele>
        <time>2021-03-02T11:36:22.982Z</time>
      </trkpt>
      <trkpt lat="44.13688" lon="6.34267">
        <ele>878.9</ele>
        <time>2021-03-02T11:36:26.827Z</time>
      </trkpt>
      <trkpt lat="44.13683" lon="6.34269">
        <ele>878.9</ele>
        <time>2021-03-02T11:36:29.967Z</time>
      </trkpt>
      <trkpt lat="44.13676" lon="6.34272">
        <ele>878.9</ele>
        <time>2021-03-02T11:36:33.469Z</time>
      </trkpt>
      <trkpt lat="44.13669" lon="6.34273">
        <ele>878.9</ele>
        <time>2021-03-02T11:36:36.974Z</time>
      </trkpt>
      <trkpt lat="44.13664" lon="6.34275">
        <ele>878.9</ele>
        <time>2021-03-02T11:36:39.975Z</time>
      </trkpt>
      <trkpt lat="44.13658" lon="6.34278">
        <ele>878.9</ele>
        <time>2021-03-02T11:36:42.989Z</time>
      </trkpt>
      <trkpt lat="44.13651" lon="6.34283">
        <ele>878.9</ele>
        <time>2021-03-02T11:36:46.970Z</time>
      </trkpt>
      <trkpt lat="44.13645" lon="6.34287">
        <ele>878.9</ele>
        <time>2021-03-02T11:36:49.975Z</time>
      </trkpt>
      <trkpt lat="44.13637" lon="6.34291">
        <ele>878.9</ele>
        <time>2021-03-02T11:36:53.983Z</time>
      </trkpt>
      <trkpt lat="44.13632" lon="6.34297">
        <ele>878.9</ele>
        <time>2021-03-02T11:36:58.096Z</time>
      </trkpt>
      <trkpt lat="44.13627" lon="6.34303">
        <ele>878.9</ele>
        <time>2021-03-02T11:37:01.966Z</time>
      </trkpt>
      <trkpt lat="44.13622" lon="6.34309">
        <ele>878.9</ele>
        <time>2021-03-02T11:37:04.967Z</time>
      </trkpt>
      <trkpt lat="44.13618" lon="6.34315">
        <ele>878.9</ele>
        <time>2021-03-02T11:37:07.984Z</time>
      </trkpt>
      <trkpt lat="44.13608" lon="6.34329">
        <ele>878.9</ele>
        <time>2021-03-02T11:37:13.038Z</time>
      </trkpt>
      <trkpt lat="44.13601" lon="6.34335">
        <ele>878.9</ele>
        <time>2021-03-02T11:37:18.000Z</time>
      </trkpt>
      <trkpt lat="44.13595" lon="6.3434">
        <ele>878.9</ele>
        <time>2021-03-02T11:37:21.000Z</time>
      </trkpt>
      <trkpt lat="44.13587" lon="6.34346">
        <ele>878.9</ele>
        <time>2021-03-02T11:37:24.011Z</time>
      </trkpt>
      <trkpt lat="44.1358" lon="6.34349">
        <ele>878.9</ele>
        <time>2021-03-02T11:37:27.095Z</time>
      </trkpt>
      <trkpt lat="44.13567" lon="6.34348">
        <ele>878.9</ele>
        <time>2021-03-02T11:37:31.989Z</time>
      </trkpt>
      <trkpt lat="44.13558" lon="6.34346">
        <ele>878.9</ele>
        <time>2021-03-02T11:37:35.981Z</time>
      </trkpt>
      <trkpt lat="44.13549" lon="6.34336">
        <ele>878.9</ele>
        <time>2021-03-02T11:37:40.005Z</time>
      </trkpt>
      <trkpt lat="44.13542" lon="6.34323">
        <ele>878.9</ele>
        <time>2021-03-02T11:37:43.982Z</time>
      </trkpt>
      <trkpt lat="44.13532" lon="6.34315">
        <ele>902.8</ele>
        <time>2021-03-02T11:37:47.976Z</time>
      </trkpt>
      <trkpt lat="44.13522" lon="6.34311">
        <ele>781.2</ele>
        <time>2021-03-02T11:37:51.211Z</time>
      </trkpt>
      <trkpt lat="44.13511" lon="6.34308">
        <ele>781.2</ele>
        <time>2021-03-02T11:37:54.984Z</time>
      </trkpt>
      <trkpt lat="44.13501" lon="6.34305">
        <ele>781.2</ele>
        <time>2021-03-02T11:37:58.971Z</time>
      </trkpt>
      <trkpt lat="44.13494" lon="6.34297">
        <ele>781.2</ele>
        <time>2021-03-02T11:38:02.974Z</time>
      </trkpt>
      <trkpt lat="44.13487" lon="6.34289">
        <ele>781.2</ele>
        <time>2021-03-02T11:38:07.983Z</time>
      </trkpt>
      <trkpt lat="44.13476" lon="6.34282">
        <ele>785.9</ele>
        <time>2021-03-02T11:38:12.070Z</time>
      </trkpt>
      <trkpt lat="44.13467" lon="6.34281">
        <ele>787.1</ele>
        <time>2021-03-02T11:38:18.000Z</time>
      </trkpt>
      <trkpt lat="44.13459" lon="6.3428">
        <ele>787.1</ele>
        <time>2021-03-02T11:38:21.000Z</time>
      </trkpt>
      <trkpt lat="44.13449" lon="6.3427">
        <ele>787.1</ele>
        <time>2021-03-02T11:38:23.980Z</time>
      </trkpt>
      <trkpt lat="44.13419" lon="6.34242">
        <ele>787</ele>
        <time>2021-03-02T11:38:30.000Z</time>
      </trkpt>
      <trkpt lat="44.13401" lon="6.34232">
        <ele>786.1</ele>
        <time>2021-03-02T11:38:32.135Z</time>
      </trkpt>
      <trkpt lat="44.13359" lon="6.34212">
        <ele>785.8</ele>
        <time>2021-03-02T11:38:39.000Z</time>
      </trkpt>
      <trkpt lat="44.13343" lon="6.3417">
        <ele>785.8</ele>
        <time>2021-03-02T11:38:45.000Z</time>
      </trkpt>
      <trkpt lat="44.13334" lon="6.34166">
        <ele>781.1</ele>
        <time>2021-03-02T11:38:49.360Z</time>
      </trkpt>
      <trkpt lat="44.1333" lon="6.34154">
        <ele>781.2</ele>
        <time>2021-03-02T11:38:52.975Z</time>
      </trkpt>
      <trkpt lat="44.13323" lon="6.3415">
        <ele>783.6</ele>
        <time>2021-03-02T11:38:56.261Z</time>
      </trkpt>
      <trkpt lat="44.13313" lon="6.3415">
        <ele>783.7</ele>
        <time>2021-03-02T11:38:59.986Z</time>
      </trkpt>
      <trkpt lat="44.13302" lon="6.34149">
        <ele>783.7</ele>
        <time>2021-03-02T11:39:03.986Z</time>
      </trkpt>
      <trkpt lat="44.13291" lon="6.34152">
        <ele>783.7</ele>
        <time>2021-03-02T11:39:07.976Z</time>
      </trkpt>
      <trkpt lat="44.13281" lon="6.34156">
        <ele>786.4</ele>
        <time>2021-03-02T11:39:11.971Z</time>
      </trkpt>
      <trkpt lat="44.13273" lon="6.34159">
        <ele>787</ele>
        <time>2021-03-02T11:39:15.061Z</time>
      </trkpt>
      <trkpt lat="44.13264" lon="6.3416">
        <ele>787.2</ele>
        <time>2021-03-02T11:39:18.985Z</time>
      </trkpt>
      <trkpt lat="44.13255" lon="6.34162">
        <ele>787.2</ele>
        <time>2021-03-02T11:39:24.000Z</time>
      </trkpt>
      <trkpt lat="44.13249" lon="6.34163">
        <ele>787.2</ele>
        <time>2021-03-02T11:39:27.000Z</time>
      </trkpt>
      <trkpt lat="44.13247" lon="6.34151">
        <ele>785.4</ele>
        <time>2021-03-02T11:39:32.454Z</time>
      </trkpt>
      <trkpt lat="44.13245" lon="6.34136">
        <ele>786.1</ele>
        <time>2021-03-02T11:39:36.206Z</time>
      </trkpt>
      <trkpt lat="44.13246" lon="6.34126">
        <ele>786.1</ele>
        <time>2021-03-02T11:39:39.984Z</time>
      </trkpt>
      <trkpt lat="44.13248" lon="6.3412">
        <ele>786</ele>
        <time>2021-03-02T11:39:42.992Z</time>
      </trkpt>
      <trkpt lat="44.13253" lon="6.3411">
        <ele>791.6</ele>
        <time>2021-03-02T11:39:46.946Z</time>
      </trkpt>
      <trkpt lat="44.13257" lon="6.34101">
        <ele>791.7</ele>
        <time>2021-03-02T11:39:50.015Z</time>
      </trkpt>
      <trkpt lat="44.13258" lon="6.34086">
        <ele>792.4</ele>
        <time>2021-03-02T11:39:53.978Z</time>
      </trkpt>
      <trkpt lat="44.13258" lon="6.34079">
        <ele>792.3</ele>
        <time>2021-03-02T11:39:57.972Z</time>
      </trkpt>
      <trkpt lat="44.13259" lon="6.34072">
        <ele>796.5</ele>
        <time>2021-03-02T11:40:01.977Z</time>
      </trkpt>
      <trkpt lat="44.13262" lon="6.34061">
        <ele>796.5</ele>
        <time>2021-03-02T11:40:07.985Z</time>
      </trkpt>
      <trkpt lat="44.13264" lon="6.34051">
        <ele>799.5</ele>
        <time>2021-03-02T11:40:11.983Z</time>
      </trkpt>
      <trkpt lat="44.13267" lon="6.34042">
        <ele>801.7</ele>
        <time>2021-03-02T11:40:15.038Z</time>
      </trkpt>
      <trkpt lat="44.13268" lon="6.34033">
        <ele>801.8</ele>
        <time>2021-03-02T11:40:18.973Z</time>
      </trkpt>
      <trkpt lat="44.1327" lon="6.34024">
        <ele>801.9</ele>
        <time>2021-03-02T11:40:21.974Z</time>
      </trkpt>
      <trkpt lat="44.13272" lon="6.34015">
        <ele>801.8</ele>
        <time>2021-03-02T11:40:24.987Z</time>
      </trkpt>
      <trkpt lat="44.13276" lon="6.34005">
        <ele>809.2</ele>
        <time>2021-03-02T11:40:28.971Z</time>
      </trkpt>
      <trkpt lat="44.13279" lon="6.33997">
        <ele>810.6</ele>
        <time>2021-03-02T11:40:32.011Z</time>
      </trkpt>
      <trkpt lat="44.13286" lon="6.33988">
        <ele>810.5</ele>
        <time>2021-03-02T11:40:35.981Z</time>
      </trkpt>
      <trkpt lat="44.13291" lon="6.33983">
        <ele>810.5</ele>
        <time>2021-03-02T11:40:39.998Z</time>
      </trkpt>
      <trkpt lat="44.13297" lon="6.33976">
        <ele>810.5</ele>
        <time>2021-03-02T11:40:43.975Z</time>
      </trkpt>
      <trkpt lat="44.13301" lon="6.33966">
        <ele>815</ele>
        <time>2021-03-02T11:40:46.977Z</time>
      </trkpt>
      <trkpt lat="44.13305" lon="6.33955">
        <ele>959.3</ele>
        <time>2021-03-02T11:40:53.982Z</time>
      </trkpt>
      <trkpt lat="44.13306" lon="6.33947">
        <ele>959.3</ele>
        <time>2021-03-02T11:40:57.980Z</time>
      </trkpt>
      <trkpt lat="44.13311" lon="6.33938">
        <ele>959.3</ele>
        <time>2021-03-02T11:41:04.043Z</time>
      </trkpt>
      <trkpt lat="44.13312" lon="6.33932">
        <ele>959.3</ele>
        <time>2021-03-02T11:41:07.480Z</time>
      </trkpt>
      <trkpt lat="44.13316" lon="6.33925">
        <ele>822.1</ele>
        <time>2021-03-02T11:41:10.943Z</time>
      </trkpt>
      <trkpt lat="44.13321" lon="6.3392">
        <ele>822.1</ele>
        <time>2021-03-02T11:41:13.969Z</time>
      </trkpt>
      <trkpt lat="44.13331" lon="6.3391">
        <ele>824.8</ele>
        <time>2021-03-02T11:41:18.238Z</time>
      </trkpt>
      <trkpt lat="44.1334" lon="6.33901">
        <ele>825</ele>
        <time>2021-03-02T11:41:21.970Z</time>
      </trkpt>
      <trkpt lat="44.13345" lon="6.3389">
        <ele>824.9</ele>
        <time>2021-03-02T11:41:24.982Z</time>
      </trkpt>
      <trkpt lat="44.13346" lon="6.33881">
        <ele>827.5</ele>
        <time>2021-03-02T11:41:28.058Z</time>
      </trkpt>
      <trkpt lat="44.1335" lon="6.33876">
        <ele>827.5</ele>
        <time>2021-03-02T11:41:31.402Z</time>
      </trkpt>
      <trkpt lat="44.13354" lon="6.33871">
        <ele>828.7</ele>
        <time>2021-03-02T11:41:34.951Z</time>
      </trkpt>
      <trkpt lat="44.13359" lon="6.33867">
        <ele>828.7</ele>
        <time>2021-03-02T11:41:38.001Z</time>
      </trkpt>
      <trkpt lat="44.13367" lon="6.33859">
        <ele>828.7</ele>
        <time>2021-03-02T11:41:41.982Z</time>
      </trkpt>
      <trkpt lat="44.13375" lon="6.33849">
        <ele>840.1</ele>
        <time>2021-03-02T11:41:51.902Z</time>
      </trkpt>
      <trkpt lat="44.13379" lon="6.33843">
        <ele>840.1</ele>
        <time>2021-03-02T11:41:54.975Z</time>
      </trkpt>
      <trkpt lat="44.13384" lon="6.33838">
        <ele>840.1</ele>
        <time>2021-03-02T11:41:57.986Z</time>
      </trkpt>
      <trkpt lat="44.1339" lon="6.33836">
        <ele>840.8</ele>
        <time>2021-03-02T11:42:01.978Z</time>
      </trkpt>
      <trkpt lat="44.13394" lon="6.33832">
        <ele>840.7</ele>
        <time>2021-03-02T11:42:05.017Z</time>
      </trkpt>
      <trkpt lat="44.134" lon="6.33824">
        <ele>843.4</ele>
        <time>2021-03-02T11:42:08.979Z</time>
      </trkpt>
      <trkpt lat="44.13404" lon="6.33819">
        <ele>843.3</ele>
        <time>2021-03-02T11:42:12.238Z</time>
      </trkpt>
      <trkpt lat="44.13408" lon="6.33811">
        <ele>843.5</ele>
        <time>2021-03-02T11:42:15.975Z</time>
      </trkpt>
      <trkpt lat="44.13408" lon="6.33804">
        <ele>843.5</ele>
        <time>2021-03-02T11:42:18.983Z</time>
      </trkpt>
      <trkpt lat="44.1341" lon="6.33796">
        <ele>843.6</ele>
        <time>2021-03-02T11:42:21.985Z</time>
      </trkpt>
      <trkpt lat="44.13412" lon="6.33791">
        <ele>843.7</ele>
        <time>2021-03-02T11:42:24.986Z</time>
      </trkpt>
      <trkpt lat="44.13415" lon="6.33784">
        <ele>854.2</ele>
        <time>2021-03-02T11:42:28.970Z</time>
      </trkpt>
      <trkpt lat="44.13421" lon="6.33773">
        <ele>854.3</ele>
        <time>2021-03-02T11:42:35.979Z</time>
      </trkpt>
      <trkpt lat="44.13422" lon="6.33764">
        <ele>854.3</ele>
        <time>2021-03-02T11:42:39.999Z</time>
      </trkpt>
      <trkpt lat="44.13422" lon="6.33757">
        <ele>856.8</ele>
        <time>2021-03-02T11:42:43.077Z</time>
      </trkpt>
      <trkpt lat="44.13419" lon="6.33748">
        <ele>856.7</ele>
        <time>2021-03-02T11:42:46.967Z</time>
      </trkpt>
      <trkpt lat="44.13418" lon="6.33739">
        <ele>856.7</ele>
        <time>2021-03-02T11:42:49.982Z</time>
      </trkpt>
      <trkpt lat="44.13419" lon="6.33731">
        <ele>858.7</ele>
        <time>2021-03-02T11:42:53.016Z</time>
      </trkpt>
      <trkpt lat="44.13418" lon="6.33717">
        <ele>860.8</ele>
        <time>2021-03-02T11:42:56.563Z</time>
      </trkpt>
      <trkpt lat="44.13416" lon="6.33697">
        <ele>860.7</ele>
        <time>2021-03-02T11:42:59.988Z</time>
      </trkpt>
      <trkpt lat="44.13409" lon="6.33692">
        <ele>862.5</ele>
        <time>2021-03-02T11:43:03.894Z</time>
      </trkpt>
      <trkpt lat="44.13403" lon="6.33688">
        <ele>862.5</ele>
        <time>2021-03-02T11:43:06.984Z</time>
      </trkpt>
      <trkpt lat="44.13392" lon="6.33692">
        <ele>862.6</ele>
        <time>2021-03-02T11:43:11.014Z</time>
      </trkpt>
      <trkpt lat="44.13384" lon="6.33696">
        <ele>865</ele>
        <time>2021-03-02T11:43:14.981Z</time>
      </trkpt>
      <trkpt lat="44.13376" lon="6.337">
        <ele>865</ele>
        <time>2021-03-02T11:43:21.000Z</time>
      </trkpt>
      <trkpt lat="44.13383" lon="6.33691">
        <ele>866.8</ele>
        <time>2021-03-02T11:43:25.012Z</time>
      </trkpt>
      <trkpt lat="44.1338" lon="6.33684">
        <ele>868</ele>
        <time>2021-03-02T11:43:51.000Z</time>
      </trkpt>
      <trkpt lat="44.13376" lon="6.33688">
        <ele>869.5</ele>
        <time>2021-03-02T11:44:22.979Z</time>
      </trkpt>
      <trkpt lat="44.13358" lon="6.33691">
        <ele>868.3</ele>
        <time>2021-03-02T11:44:30.014Z</time>
      </trkpt>
      <trkpt lat="44.1335" lon="6.33692">
        <ele>868.5</ele>
        <time>2021-03-02T11:44:33.355Z</time>
      </trkpt>
      <trkpt lat="44.13339" lon="6.33691">
        <ele>868.5</ele>
        <time>2021-03-02T11:44:36.522Z</time>
      </trkpt>
      <trkpt lat="44.13325" lon="6.33688">
        <ele>868.5</ele>
        <time>2021-03-02T11:44:39.990Z</time>
      </trkpt>
      <trkpt lat="44.13313" lon="6.33688">
        <ele>870.2</ele>
        <time>2021-03-02T11:44:44.018Z</time>
      </trkpt>
      <trkpt lat="44.13304" lon="6.33688">
        <ele>873</ele>
        <time>2021-03-02T11:44:47.922Z</time>
      </trkpt>
      <trkpt lat="44.13295" lon="6.33688">
        <ele>873.4</ele>
        <time>2021-03-02T11:44:50.967Z</time>
      </trkpt>
      <trkpt lat="44.13287" lon="6.33688">
        <ele>873.6</ele>
        <time>2021-03-02T11:44:54.203Z</time>
      </trkpt>
      <trkpt lat="44.13276" lon="6.3369">
        <ele>873.6</ele>
        <time>2021-03-02T11:44:57.977Z</time>
      </trkpt>
      <trkpt lat="44.13266" lon="6.33697">
        <ele>873.6</ele>
        <time>2021-03-02T11:45:01.964Z</time>
      </trkpt>
      <trkpt lat="44.1326" lon="6.337">
        <ele>876.1</ele>
        <time>2021-03-02T11:45:04.979Z</time>
      </trkpt>
      <trkpt lat="44.13253" lon="6.33701">
        <ele>876.1</ele>
        <time>2021-03-02T11:45:08.009Z</time>
      </trkpt>
      <trkpt lat="44.13243" lon="6.33702">
        <ele>876.9</ele>
        <time>2021-03-02T11:45:11.962Z</time>
      </trkpt>
      <trkpt lat="44.13234" lon="6.33707">
        <ele>877.8</ele>
        <time>2021-03-02T11:45:15.356Z</time>
      </trkpt>
      <trkpt lat="44.13226" lon="6.33712">
        <ele>877.8</ele>
        <time>2021-03-02T11:45:18.978Z</time>
      </trkpt>
      <trkpt lat="44.13219" lon="6.33714">
        <ele>877.9</ele>
        <time>2021-03-02T11:45:21.987Z</time>
      </trkpt>
      <trkpt lat="44.1321" lon="6.33715">
        <ele>880.1</ele>
        <time>2021-03-02T11:45:25.987Z</time>
      </trkpt>
      <trkpt lat="44.13199" lon="6.33711">
        <ele>880.1</ele>
        <time>2021-03-02T11:45:29.985Z</time>
      </trkpt>
      <trkpt lat="44.13189" lon="6.33707">
        <ele>879.9</ele>
        <time>2021-03-02T11:45:33.015Z</time>
      </trkpt>
      <trkpt lat="44.13176" lon="6.337">
        <ele>879.9</ele>
        <time>2021-03-02T11:45:37.339Z</time>
      </trkpt>
      <trkpt lat="44.13163" lon="6.33693">
        <ele>881.1</ele>
        <time>2021-03-02T11:45:41.029Z</time>
      </trkpt>
      <trkpt lat="44.13152" lon="6.33686">
        <ele>881.1</ele>
        <time>2021-03-02T11:45:44.975Z</time>
      </trkpt>
      <trkpt lat="44.13144" lon="6.33678">
        <ele>881.1</ele>
        <time>2021-03-02T11:45:47.976Z</time>
      </trkpt>
      <trkpt lat="44.13136" lon="6.33671">
        <ele>883.4</ele>
        <time>2021-03-02T11:45:51.373Z</time>
      </trkpt>
      <trkpt lat="44.1313" lon="6.33663">
        <ele>883.7</ele>
        <time>2021-03-02T11:45:54.538Z</time>
      </trkpt>
      <trkpt lat="44.1313" lon="6.33657">
        <ele>884.8</ele>
        <time>2021-03-02T11:46:00.000Z</time>
      </trkpt>
      <trkpt lat="44.13132" lon="6.3364">
        <ele>886</ele>
        <time>2021-03-02T11:46:07.969Z</time>
      </trkpt>
      <trkpt lat="44.13136" lon="6.33635">
        <ele>886.8</ele>
        <time>2021-03-02T11:46:18.242Z</time>
      </trkpt>
      <trkpt lat="44.1314" lon="6.33631">
        <ele>887.4</ele>
        <time>2021-03-02T11:46:33.000Z</time>
      </trkpt>
      <trkpt lat="44.13142" lon="6.33646">
        <ele>887.4</ele>
        <time>2021-03-02T11:46:38.977Z</time>
      </trkpt>
      <trkpt lat="44.13134" lon="6.33647">
        <ele>888.2</ele>
        <time>2021-03-02T11:46:42.257Z</time>
      </trkpt>
      <trkpt lat="44.13119" lon="6.33642">
        <ele>888.3</ele>
        <time>2021-03-02T11:46:45.843Z</time>
      </trkpt>
      <trkpt lat="44.13106" lon="6.33643">
        <ele>888.9</ele>
        <time>2021-03-02T11:46:49.058Z</time>
      </trkpt>
      <trkpt lat="44.1309" lon="6.33651">
        <ele>888.9</ele>
        <time>2021-03-02T11:46:52.971Z</time>
      </trkpt>
      <trkpt lat="44.13078" lon="6.33654">
        <ele>888.8</ele>
        <time>2021-03-02T11:46:55.980Z</time>
      </trkpt>
      <trkpt lat="44.13068" lon="6.33651">
        <ele>890.4</ele>
        <time>2021-03-02T11:46:59.972Z</time>
      </trkpt>
      <trkpt lat="44.13063" lon="6.33642">
        <ele>889.4</ele>
        <time>2021-03-02T11:47:03.095Z</time>
      </trkpt>
      <trkpt lat="44.13054" lon="6.33634">
        <ele>889.4</ele>
        <time>2021-03-02T11:47:06.724Z</time>
      </trkpt>
      <trkpt lat="44.13046" lon="6.33629">
        <ele>890.9</ele>
        <time>2021-03-02T11:47:10.974Z</time>
      </trkpt>
      <trkpt lat="44.13034" lon="6.33622">
        <ele>890.8</ele>
        <time>2021-03-02T11:47:17.978Z</time>
      </trkpt>
      <trkpt lat="44.13027" lon="6.3362">
        <ele>892.7</ele>
        <time>2021-03-02T11:47:21.443Z</time>
      </trkpt>
      <trkpt lat="44.1302" lon="6.33618">
        <ele>893.7</ele>
        <time>2021-03-02T11:47:30.000Z</time>
      </trkpt>
      <trkpt lat="44.13014" lon="6.33619">
        <ele>893.9</ele>
        <time>2021-03-02T11:47:32.858Z</time>
      </trkpt>
      <trkpt lat="44.13006" lon="6.3362">
        <ele>893.9</ele>
        <time>2021-03-02T11:47:35.969Z</time>
      </trkpt>
      <trkpt lat="44.12995" lon="6.33619">
        <ele>894.5</ele>
        <time>2021-03-02T11:47:39.137Z</time>
      </trkpt>
      <trkpt lat="44.12983" lon="6.33621">
        <ele>894.5</ele>
        <time>2021-03-02T11:47:42.985Z</time>
      </trkpt>
      <trkpt lat="44.12974" lon="6.33629">
        <ele>894.5</ele>
        <time>2021-03-02T11:47:46.976Z</time>
      </trkpt>
      <trkpt lat="44.12964" lon="6.33643">
        <ele>894.4</ele>
        <time>2021-03-02T11:47:50.642Z</time>
      </trkpt>
      <trkpt lat="44.12952" lon="6.33652">
        <ele>895.5</ele>
        <time>2021-03-02T11:47:54.480Z</time>
      </trkpt>
      <trkpt lat="44.12944" lon="6.3366">
        <ele>895.5</ele>
        <time>2021-03-02T11:47:57.595Z</time>
      </trkpt>
      <trkpt lat="44.12935" lon="6.33661">
        <ele>896.7</ele>
        <time>2021-03-02T11:48:00.724Z</time>
      </trkpt>
      <trkpt lat="44.12928" lon="6.33659">
        <ele>896.6</ele>
        <time>2021-03-02T11:48:03.978Z</time>
      </trkpt>
      <trkpt lat="44.12922" lon="6.33653">
        <ele>896.6</ele>
        <time>2021-03-02T11:48:06.978Z</time>
      </trkpt>
      <trkpt lat="44.12912" lon="6.33648">
        <ele>896.5</ele>
        <time>2021-03-02T11:48:10.987Z</time>
      </trkpt>
      <trkpt lat="44.12897" lon="6.33648">
        <ele>896.5</ele>
        <time>2021-03-02T11:48:14.972Z</time>
      </trkpt>
      <trkpt lat="44.12885" lon="6.33653">
        <ele>896.5</ele>
        <time>2021-03-02T11:48:18.415Z</time>
      </trkpt>
      <trkpt lat="44.12869" lon="6.33658">
        <ele>894.4</ele>
        <time>2021-03-02T11:48:21.739Z</time>
      </trkpt>
      <trkpt lat="44.12855" lon="6.3366">
        <ele>894.4</ele>
        <time>2021-03-02T11:48:24.894Z</time>
      </trkpt>
      <trkpt lat="44.12825" lon="6.3368">
        <ele>894.5</ele>
        <time>2021-03-02T11:48:30.000Z</time>
      </trkpt>
      <trkpt lat="44.12809" lon="6.33694">
        <ele>894.4</ele>
        <time>2021-03-02T11:48:33.000Z</time>
      </trkpt>
      <trkpt lat="44.12788" lon="6.33707">
        <ele>889</ele>
        <time>2021-03-02T11:48:35.275Z</time>
      </trkpt>
      <trkpt lat="44.12757" lon="6.33723">
        <ele>888.5</ele>
        <time>2021-03-02T11:48:42.000Z</time>
      </trkpt>
      <trkpt lat="44.12733" lon="6.33729">
        <ele>888.5</ele>
        <time>2021-03-02T11:48:48.000Z</time>
      </trkpt>
      <trkpt lat="44.12731" lon="6.33735">
        <ele>879</ele>
        <time>2021-03-02T11:48:53.873Z</time>
      </trkpt>
      <trkpt lat="44.12725" lon="6.33739">
        <ele>878.2</ele>
        <time>2021-03-02T11:48:57.419Z</time>
      </trkpt>
      <trkpt lat="44.1272" lon="6.33741">
        <ele>875.3</ele>
        <time>2021-03-02T11:49:03.000Z</time>
      </trkpt>
      <trkpt lat="44.12712" lon="6.33743">
        <ele>873.6</ele>
        <time>2021-03-02T11:49:06.395Z</time>
      </trkpt>
      <trkpt lat="44.12706" lon="6.3374">
        <ele>872.4</ele>
        <time>2021-03-02T11:49:18.000Z</time>
      </trkpt>
      <trkpt lat="44.12705" lon="6.33729">
        <ele>871.2</ele>
        <time>2021-03-02T11:49:24.060Z</time>
      </trkpt>
      <trkpt lat="44.12706" lon="6.33719">
        <ele>870.9</ele>
        <time>2021-03-02T11:49:30.000Z</time>
      </trkpt>
      <trkpt lat="44.12702" lon="6.33696">
        <ele>871.4</ele>
        <time>2021-03-02T11:49:39.000Z</time>
      </trkpt>
      <trkpt lat="44.12693" lon="6.33685">
        <ele>871.3</ele>
        <time>2021-03-02T11:49:42.000Z</time>
      </trkpt>
      <trkpt lat="44.12687" lon="6.33676">
        <ele>872.1</ele>
        <time>2021-03-02T11:49:45.000Z</time>
      </trkpt>
      <trkpt lat="44.12681" lon="6.33672">
        <ele>872.1</ele>
        <time>2021-03-02T11:49:48.000Z</time>
      </trkpt>
      <trkpt lat="44.1267" lon="6.33664">
        <ele>873.3</ele>
        <time>2021-03-02T11:49:54.000Z</time>
      </trkpt>
      <trkpt lat="44.12661" lon="6.33659">
        <ele>874.3</ele>
        <time>2021-03-02T11:49:57.955Z</time>
      </trkpt>
      <trkpt lat="44.12656" lon="6.33656">
        <ele>874.5</ele>
        <time>2021-03-02T11:50:03.000Z</time>
      </trkpt>
      <trkpt lat="44.1265" lon="6.33653">
        <ele>876</ele>
        <time>2021-03-02T11:50:05.378Z</time>
      </trkpt>
      <trkpt lat="44.12645" lon="6.33649">
        <ele>876.4</ele>
        <time>2021-03-02T11:50:08.919Z</time>
      </trkpt>
      <trkpt lat="44.12639" lon="6.33643">
        <ele>876.7</ele>
        <time>2021-03-02T11:50:11.976Z</time>
      </trkpt>
      <trkpt lat="44.12628" lon="6.33636">
        <ele>876.7</ele>
        <time>2021-03-02T11:50:14.987Z</time>
      </trkpt>
      <trkpt lat="44.12619" lon="6.3363">
        <ele>876.7</ele>
        <time>2021-03-02T11:50:18.602Z</time>
      </trkpt>
      <trkpt lat="44.12608" lon="6.33625">
        <ele>877.5</ele>
        <time>2021-03-02T11:50:22.973Z</time>
      </trkpt>
      <trkpt lat="44.12598" lon="6.3362">
        <ele>877.5</ele>
        <time>2021-03-02T11:50:26.988Z</time>
      </trkpt>
      <trkpt lat="44.12576" lon="6.33598">
        <ele>877.4</ele>
        <time>2021-03-02T11:50:33.000Z</time>
      </trkpt>
      <trkpt lat="44.12563" lon="6.33591">
        <ele>877.4</ele>
        <time>2021-03-02T11:50:36.000Z</time>
      </trkpt>
      <trkpt lat="44.12549" lon="6.33583">
        <ele>877.4</ele>
        <time>2021-03-02T11:50:38.990Z</time>
      </trkpt>
      <trkpt lat="44.12541" lon="6.33586">
        <ele>877.7</ele>
        <time>2021-03-02T11:50:42.068Z</time>
      </trkpt>
      <trkpt lat="44.12531" lon="6.33582">
        <ele>877.5</ele>
        <time>2021-03-02T11:50:51.000Z</time>
      </trkpt>
      <trkpt lat="44.12525" lon="6.33574">
        <ele>877</ele>
        <time>2021-03-02T11:50:56.831Z</time>
      </trkpt>
      <trkpt lat="44.12522" lon="6.33566">
        <ele>877</ele>
        <time>2021-03-02T11:50:59.985Z</time>
      </trkpt>
      <trkpt lat="44.12516" lon="6.33559">
        <ele>877</ele>
        <time>2021-03-02T11:51:03.974Z</time>
      </trkpt>
      <trkpt lat="44.12508" lon="6.33554">
        <ele>877</ele>
        <time>2021-03-02T11:51:06.983Z</time>
      </trkpt>
      <trkpt lat="44.125" lon="6.33549">
        <ele>877</ele>
        <time>2021-03-02T11:51:09.992Z</time>
      </trkpt>
      <trkpt lat="44.12489" lon="6.3354">
        <ele>886.5</ele>
        <time>2021-03-02T11:51:13.982Z</time>
      </trkpt>
      <trkpt lat="44.12477" lon="6.3353">
        <ele>886.6</ele>
        <time>2021-03-02T11:51:17.094Z</time>
      </trkpt>
      <trkpt lat="44.12472" lon="6.33523">
        <ele>885.5</ele>
        <time>2021-03-02T11:51:20.975Z</time>
      </trkpt>
      <trkpt lat="44.12466" lon="6.3351">
        <ele>885.5</ele>
        <time>2021-03-02T11:51:23.975Z</time>
      </trkpt>
      <trkpt lat="44.1246" lon="6.33497">
        <ele>884.8</ele>
        <time>2021-03-02T11:51:27.276Z</time>
      </trkpt>
      <trkpt lat="44.12455" lon="6.33483">
        <ele>884.8</ele>
        <time>2021-03-02T11:51:30.958Z</time>
      </trkpt>
      <trkpt lat="44.12447" lon="6.33468">
        <ele>884.8</ele>
        <time>2021-03-02T11:51:34.981Z</time>
      </trkpt>
      <trkpt lat="44.1244" lon="6.33454">
        <ele>884.7</ele>
        <time>2021-03-02T11:51:38.093Z</time>
      </trkpt>
      <trkpt lat="44.12434" lon="6.33442">
        <ele>885.9</ele>
        <time>2021-03-02T11:51:41.964Z</time>
      </trkpt>
      <trkpt lat="44.12433" lon="6.33433">
        <ele>885.9</ele>
        <time>2021-03-02T11:51:46.985Z</time>
      </trkpt>
      <trkpt lat="44.12437" lon="6.3343">
        <ele>886.4</ele>
        <time>2021-03-02T11:52:48.000Z</time>
      </trkpt>
      <trkpt lat="44.12434" lon="6.33425">
        <ele>886.2</ele>
        <time>2021-03-02T11:56:00.000Z</time>
      </trkpt>
      <trkpt lat="44.12438" lon="6.33428">
        <ele>886.7</ele>
        <time>2021-03-02T12:04:36.000Z</time>
      </trkpt>
      <trkpt lat="44.12443" lon="6.33425">
        <ele>886.6</ele>
        <time>2021-03-02T12:05:51.000Z</time>
      </trkpt>
      <trkpt lat="44.12437" lon="6.33426">
        <ele>886.6</ele>
        <time>2021-03-02T12:06:39.000Z</time>
      </trkpt>
      <trkpt lat="44.12432" lon="6.33428">
        <ele>886.4</ele>
        <time>2021-03-02T12:07:03.000Z</time>
      </trkpt>
      <trkpt lat="44.12432" lon="6.33422">
        <ele>886.7</ele>
        <time>2021-03-02T12:08:12.000Z</time>
      </trkpt>
      <trkpt lat="44.12434" lon="6.33429">
        <ele>885.7</ele>
        <time>2021-03-02T12:10:12.000Z</time>
      </trkpt>
      <trkpt lat="44.12436" lon="6.33423">
        <ele>886.1</ele>
        <time>2021-03-02T12:11:33.000Z</time>
      </trkpt>
      <trkpt lat="44.12432" lon="6.33426">
        <ele>886.6</ele>
        <time>2021-03-02T12:14:06.000Z</time>
      </trkpt>
      <trkpt lat="44.1243" lon="6.33432">
        <ele>886.6</ele>
        <time>2021-03-02T12:14:45.000Z</time>
      </trkpt>
      <trkpt lat="44.12435" lon="6.33432">
        <ele>886.6</ele>
        <time>2021-03-02T12:15:03.000Z</time>
      </trkpt>
      <trkpt lat="44.12432" lon="6.33426">
        <ele>886.6</ele>
        <time>2021-03-02T12:15:12.000Z</time>
      </trkpt>
      <trkpt lat="44.12431" lon="6.3342">
        <ele>887.4</ele>
        <time>2021-03-02T12:19:42.000Z</time>
      </trkpt>
      <trkpt lat="44.12423" lon="6.33426">
        <ele>887.4</ele>
        <time>2021-03-02T12:19:49.000Z</time>
      </trkpt>
      <trkpt lat="44.12416" lon="6.33427">
        <ele>887.2</ele>
        <time>2021-03-02T12:19:53.000Z</time>
      </trkpt>
      <trkpt lat="44.12409" lon="6.33424">
        <ele>887.1</ele>
        <time>2021-03-02T12:19:56.000Z</time>
      </trkpt>
      <trkpt lat="44.12395" lon="6.33421">
        <ele>886.7</ele>
        <time>2021-03-02T12:19:59.000Z</time>
      </trkpt>
      <trkpt lat="44.12388" lon="6.33412">
        <ele>886.8</ele>
        <time>2021-03-02T12:20:01.289Z</time>
      </trkpt>
      <trkpt lat="44.12378" lon="6.33406">
        <ele>886.8</ele>
        <time>2021-03-02T12:20:04.636Z</time>
      </trkpt>
      <trkpt lat="44.12369" lon="6.33403">
        <ele>886.7</ele>
        <time>2021-03-02T12:20:09.000Z</time>
      </trkpt>
      <trkpt lat="44.12358" lon="6.33402">
        <ele>886.8</ele>
        <time>2021-03-02T12:20:11.621Z</time>
      </trkpt>
      <trkpt lat="44.1235" lon="6.33402">
        <ele>886.7</ele>
        <time>2021-03-02T12:20:14.813Z</time>
      </trkpt>
      <trkpt lat="44.12338" lon="6.3341">
        <ele>886.8</ele>
        <time>2021-03-02T12:20:18.651Z</time>
      </trkpt>
      <trkpt lat="44.12335" lon="6.33422">
        <ele>886.7</ele>
        <time>2021-03-02T12:20:21.859Z</time>
      </trkpt>
      <trkpt lat="44.1233" lon="6.33426">
        <ele>886.8</ele>
        <time>2021-03-02T12:20:26.000Z</time>
      </trkpt>
      <trkpt lat="44.12322" lon="6.33425">
        <ele>886.8</ele>
        <time>2021-03-02T12:20:29.000Z</time>
      </trkpt>
      <trkpt lat="44.1231" lon="6.33433">
        <ele>886.7</ele>
        <time>2021-03-02T12:20:32.000Z</time>
      </trkpt>
      <trkpt lat="44.12287" lon="6.33434">
        <ele>886.8</ele>
        <time>2021-03-02T12:20:38.000Z</time>
      </trkpt>
      <trkpt lat="44.12269" lon="6.33434">
        <ele>886.8</ele>
        <time>2021-03-02T12:20:41.000Z</time>
      </trkpt>
      <trkpt lat="44.12245" lon="6.3343">
        <ele>886.8</ele>
        <time>2021-03-02T12:20:47.000Z</time>
      </trkpt>
      <trkpt lat="44.12233" lon="6.33426">
        <ele>886.8</ele>
        <time>2021-03-02T12:20:50.000Z</time>
      </trkpt>
      <trkpt lat="44.12213" lon="6.3342">
        <ele>881.3</ele>
        <time>2021-03-02T12:20:54.040Z</time>
      </trkpt>
      <trkpt lat="44.12201" lon="6.33416">
        <ele>881.3</ele>
        <time>2021-03-02T12:20:59.000Z</time>
      </trkpt>
      <trkpt lat="44.12191" lon="6.33417">
        <ele>881.3</ele>
        <time>2021-03-02T12:21:00.980Z</time>
      </trkpt>
      <trkpt lat="44.12178" lon="6.33424">
        <ele>881.3</ele>
        <time>2021-03-02T12:21:03.994Z</time>
      </trkpt>
      <trkpt lat="44.12159" lon="6.33417">
        <ele>955.7</ele>
        <time>2021-03-02T12:21:07.984Z</time>
      </trkpt>
      <trkpt lat="44.12143" lon="6.334">
        <ele>878.1</ele>
        <time>2021-03-02T12:21:12.014Z</time>
      </trkpt>
      <trkpt lat="44.1213" lon="6.33391">
        <ele>878.1</ele>
        <time>2021-03-02T12:21:15.980Z</time>
      </trkpt>
      <trkpt lat="44.12157" lon="6.33385">
        <ele>876.4</ele>
        <time>2021-03-02T12:21:18.998Z</time>
      </trkpt>
      <trkpt lat="44.12189" lon="6.33386">
        <ele>876</ele>
        <time>2021-03-02T12:21:26.000Z</time>
      </trkpt>
      <trkpt lat="44.12223" lon="6.33392">
        <ele>876</ele>
        <time>2021-03-02T12:21:32.000Z</time>
      </trkpt>
      <trkpt lat="44.12242" lon="6.33397">
        <ele>876</ele>
        <time>2021-03-02T12:21:35.000Z</time>
      </trkpt>
      <trkpt lat="44.12283" lon="6.3339">
        <ele>876.1</ele>
        <time>2021-03-02T12:21:41.000Z</time>
      </trkpt>
      <trkpt lat="44.12305" lon="6.33379">
        <ele>869.1</ele>
        <time>2021-03-02T12:21:44.000Z</time>
      </trkpt>
      <trkpt lat="44.12348" lon="6.33357">
        <ele>869.1</ele>
        <time>2021-03-02T12:21:50.000Z</time>
      </trkpt>
      <trkpt lat="44.12371" lon="6.33359">
        <ele>869</ele>
        <time>2021-03-02T12:21:53.000Z</time>
      </trkpt>
      <trkpt lat="44.12411" lon="6.33322">
        <ele>868.9</ele>
        <time>2021-03-02T12:21:59.000Z</time>
      </trkpt>
      <trkpt lat="44.12422" lon="6.33249">
        <ele>869</ele>
        <time>2021-03-02T12:22:05.000Z</time>
      </trkpt>
      <trkpt lat="44.12423" lon="6.33211">
        <ele>868.9</ele>
        <time>2021-03-02T12:22:08.000Z</time>
      </trkpt>
      <trkpt lat="44.12438" lon="6.33156">
        <ele>868.9</ele>
        <time>2021-03-02T12:22:14.000Z</time>
      </trkpt>
      <trkpt lat="44.12457" lon="6.33141">
        <ele>868.9</ele>
        <time>2021-03-02T12:22:17.000Z</time>
      </trkpt>
      <trkpt lat="44.12456" lon="6.33115">
        <ele>868.9</ele>
        <time>2021-03-02T12:22:20.000Z</time>
      </trkpt>
      <trkpt lat="44.12492" lon="6.33076">
        <ele>868.9</ele>
        <time>2021-03-02T12:22:26.000Z</time>
      </trkpt>
      <trkpt lat="44.12533" lon="6.33046">
        <ele>868.9</ele>
        <time>2021-03-02T12:22:32.000Z</time>
      </trkpt>
      <trkpt lat="44.12554" lon="6.33051">
        <ele>868.9</ele>
        <time>2021-03-02T12:22:35.000Z</time>
      </trkpt>
      <trkpt lat="44.12572" lon="6.33034">
        <ele>868.9</ele>
        <time>2021-03-02T12:22:38.000Z</time>
      </trkpt>
      <trkpt lat="44.12596" lon="6.33005">
        <ele>869.1</ele>
        <time>2021-03-02T12:22:44.000Z</time>
      </trkpt>
      <trkpt lat="44.12585" lon="6.32997">
        <ele>837.3</ele>
        <time>2021-03-02T12:22:48.014Z</time>
      </trkpt>
      <trkpt lat="44.12572" lon="6.33004">
        <ele>836.8</ele>
        <time>2021-03-02T12:22:53.000Z</time>
      </trkpt>
      <trkpt lat="44.12558" lon="6.32997">
        <ele>836.2</ele>
        <time>2021-03-02T12:22:56.000Z</time>
      </trkpt>
      <trkpt lat="44.12543" lon="6.32979">
        <ele>836.1</ele>
        <time>2021-03-02T12:22:59.000Z</time>
      </trkpt>
      <trkpt lat="44.12531" lon="6.32959">
        <ele>835.8</ele>
        <time>2021-03-02T12:23:05.000Z</time>
      </trkpt>
      <trkpt lat="44.12516" lon="6.32929">
        <ele>835.9</ele>
        <time>2021-03-02T12:23:11.000Z</time>
      </trkpt>
      <trkpt lat="44.12514" lon="6.32921">
        <ele>833.6</ele>
        <time>2021-03-02T12:23:20.000Z</time>
      </trkpt>
      <trkpt lat="44.12506" lon="6.32904">
        <ele>833.6</ele>
        <time>2021-03-02T12:23:26.000Z</time>
      </trkpt>
      <trkpt lat="44.12486" lon="6.32884">
        <ele>830.8</ele>
        <time>2021-03-02T12:23:32.000Z</time>
      </trkpt>
      <trkpt lat="44.12459" lon="6.32859">
        <ele>830.8</ele>
        <time>2021-03-02T12:23:38.000Z</time>
      </trkpt>
      <trkpt lat="44.12462" lon="6.32843">
        <ele>830.7</ele>
        <time>2021-03-02T12:23:41.000Z</time>
      </trkpt>
      <trkpt lat="44.12458" lon="6.32833">
        <ele>820.8</ele>
        <time>2021-03-02T12:23:44.000Z</time>
      </trkpt>
      <trkpt lat="44.12452" lon="6.32832">
        <ele>820.8</ele>
        <time>2021-03-02T12:23:47.000Z</time>
      </trkpt>
      <trkpt lat="44.12438" lon="6.32825">
        <ele>817.3</ele>
        <time>2021-03-02T12:23:53.000Z</time>
      </trkpt>
      <trkpt lat="44.12432" lon="6.32823">
        <ele>807</ele>
        <time>2021-03-02T12:24:32.000Z</time>
      </trkpt>
      <trkpt lat="44.12428" lon="6.32824">
        <ele>803.3</ele>
        <time>2021-03-02T12:25:35.000Z</time>
      </trkpt>
      <trkpt lat="44.12432" lon="6.32823">
        <ele>803.1</ele>
        <time>2021-03-02T12:25:47.000Z</time>
      </trkpt>
      <trkpt lat="44.12428" lon="6.3282">
        <ele>802.4</ele>
        <time>2021-03-02T12:26:53.000Z</time>
      </trkpt>
      <trkpt lat="44.12417" lon="6.32814">
        <ele>803.5</ele>
        <time>2021-03-02T12:27:44.000Z</time>
      </trkpt>
      <trkpt lat="44.12406" lon="6.32824">
        <ele>804.7</ele>
        <time>2021-03-02T12:27:48.689Z</time>
      </trkpt>
      <trkpt lat="44.12397" lon="6.32824">
        <ele>805.2</ele>
        <time>2021-03-02T12:27:53.000Z</time>
      </trkpt>
      <trkpt lat="44.12389" lon="6.32829">
        <ele>806.5</ele>
        <time>2021-03-02T12:27:55.040Z</time>
      </trkpt>
      <trkpt lat="44.12376" lon="6.32841">
        <ele>807</ele>
        <time>2021-03-02T12:28:02.000Z</time>
      </trkpt>
      <trkpt lat="44.12371" lon="6.32844">
        <ele>808</ele>
        <time>2021-03-02T12:28:05.000Z</time>
      </trkpt>
      <trkpt lat="44.12366" lon="6.32847">
        <ele>808</ele>
        <time>2021-03-02T12:28:06.983Z</time>
      </trkpt>
      <trkpt lat="44.12361" lon="6.32851">
        <ele>808.1</ele>
        <time>2021-03-02T12:28:10.985Z</time>
      </trkpt>
      <trkpt lat="44.12359" lon="6.32843">
        <ele>807.9</ele>
        <time>2021-03-02T12:28:17.256Z</time>
      </trkpt>
      <trkpt lat="44.12358" lon="6.32836">
        <ele>809.9</ele>
        <time>2021-03-02T12:28:20.976Z</time>
      </trkpt>
      <trkpt lat="44.12356" lon="6.32829">
        <ele>809.6</ele>
        <time>2021-03-02T12:28:29.000Z</time>
      </trkpt>
      <trkpt lat="44.12352" lon="6.32828">
        <ele>809.5</ele>
        <time>2021-03-02T12:28:35.238Z</time>
      </trkpt>
      <trkpt lat="44.12351" lon="6.3282">
        <ele>809</ele>
        <time>2021-03-02T12:28:38.856Z</time>
      </trkpt>
      <trkpt lat="44.12349" lon="6.32814">
        <ele>808.9</ele>
        <time>2021-03-02T12:28:42.260Z</time>
      </trkpt>
      <trkpt lat="44.12348" lon="6.32804">
        <ele>808.3</ele>
        <time>2021-03-02T12:28:45.991Z</time>
      </trkpt>
      <trkpt lat="44.12344" lon="6.32794">
        <ele>808</ele>
        <time>2021-03-02T12:28:49.153Z</time>
      </trkpt>
      <trkpt lat="44.12339" lon="6.32784">
        <ele>808</ele>
        <time>2021-03-02T12:28:52.582Z</time>
      </trkpt>
      <trkpt lat="44.1233" lon="6.32777">
        <ele>807.6</ele>
        <time>2021-03-02T12:28:59.000Z</time>
      </trkpt>
      <trkpt lat="44.1233" lon="6.32766">
        <ele>807.6</ele>
        <time>2021-03-02T12:29:02.000Z</time>
      </trkpt>
      <trkpt lat="44.1233" lon="6.32752">
        <ele>806.8</ele>
        <time>2021-03-02T12:29:06.022Z</time>
      </trkpt>
      <trkpt lat="44.1233" lon="6.32744">
        <ele>806</ele>
        <time>2021-03-02T12:29:14.000Z</time>
      </trkpt>
      <trkpt lat="44.12335" lon="6.32737">
        <ele>806.1</ele>
        <time>2021-03-02T12:29:16.979Z</time>
      </trkpt>
      <trkpt lat="44.12333" lon="6.32727">
        <ele>806</ele>
        <time>2021-03-02T12:29:20.200Z</time>
      </trkpt>
      <trkpt lat="44.12329" lon="6.32715">
        <ele>806</ele>
        <time>2021-03-02T12:29:23.737Z</time>
      </trkpt>
      <trkpt lat="44.12323" lon="6.32708">
        <ele>806.6</ele>
        <time>2021-03-02T12:29:27.003Z</time>
      </trkpt>
      <trkpt lat="44.12318" lon="6.32703">
        <ele>806.6</ele>
        <time>2021-03-02T12:29:30.976Z</time>
      </trkpt>
      <trkpt lat="44.12313" lon="6.32701">
        <ele>806.6</ele>
        <time>2021-03-02T12:29:33.983Z</time>
      </trkpt>
      <trkpt lat="44.12306" lon="6.32704">
        <ele>807.8</ele>
        <time>2021-03-02T12:29:37.973Z</time>
      </trkpt>
      <trkpt lat="44.12295" lon="6.32706">
        <ele>808.5</ele>
        <time>2021-03-02T12:29:44.000Z</time>
      </trkpt>
      <trkpt lat="44.1229" lon="6.32707">
        <ele>808.8</ele>
        <time>2021-03-02T12:29:47.099Z</time>
      </trkpt>
      <trkpt lat="44.1229" lon="6.32698">
        <ele>809.2</ele>
        <time>2021-03-02T12:29:54.664Z</time>
      </trkpt>
      <trkpt lat="44.12286" lon="6.32692">
        <ele>810.8</ele>
        <time>2021-03-02T12:30:01.720Z</time>
      </trkpt>
      <trkpt lat="44.12281" lon="6.32685">
        <ele>812</ele>
        <time>2021-03-02T12:30:08.578Z</time>
      </trkpt>
      <trkpt lat="44.12276" lon="6.3268">
        <ele>812.1</ele>
        <time>2021-03-02T12:30:11.982Z</time>
      </trkpt>
      <trkpt lat="44.12273" lon="6.32674">
        <ele>812</ele>
        <time>2021-03-02T12:30:14.981Z</time>
      </trkpt>
      <trkpt lat="44.12267" lon="6.32668">
        <ele>814.4</ele>
        <time>2021-03-02T12:30:20.000Z</time>
      </trkpt>
      <trkpt lat="44.12266" lon="6.3266">
        <ele>815.7</ele>
        <time>2021-03-02T12:30:40.000Z</time>
      </trkpt>
      <trkpt lat="44.12265" lon="6.32651">
        <ele>815.5</ele>
        <time>2021-03-02T12:30:53.000Z</time>
      </trkpt>
      <trkpt lat="44.12261" lon="6.32645">
        <ele>816</ele>
        <time>2021-03-02T12:30:56.000Z</time>
      </trkpt>
      <trkpt lat="44.12256" lon="6.32639">
        <ele>816.4</ele>
        <time>2021-03-02T12:31:02.000Z</time>
      </trkpt>
      <trkpt lat="44.1225" lon="6.32637">
        <ele>817</ele>
        <time>2021-03-02T12:31:08.000Z</time>
      </trkpt>
      <trkpt lat="44.12246" lon="6.3263">
        <ele>817</ele>
        <time>2021-03-02T12:31:09.974Z</time>
      </trkpt>
      <trkpt lat="44.12243" lon="6.3262">
        <ele>817</ele>
        <time>2021-03-02T12:31:12.974Z</time>
      </trkpt>
      <trkpt lat="44.12243" lon="6.3261">
        <ele>817</ele>
        <time>2021-03-02T12:31:15.981Z</time>
      </trkpt>
      <trkpt lat="44.12244" lon="6.32599">
        <ele>818.6</ele>
        <time>2021-03-02T12:31:19.991Z</time>
      </trkpt>
      <trkpt lat="44.12239" lon="6.32588">
        <ele>820.3</ele>
        <time>2021-03-02T12:31:23.425Z</time>
      </trkpt>
      <trkpt lat="44.12235" lon="6.32578">
        <ele>820.3</ele>
        <time>2021-03-02T12:31:26.959Z</time>
      </trkpt>
      <trkpt lat="44.12233" lon="6.32567">
        <ele>820.2</ele>
        <time>2021-03-02T12:31:32.984Z</time>
      </trkpt>
      <trkpt lat="44.12228" lon="6.32557">
        <ele>823.1</ele>
        <time>2021-03-02T12:31:36.084Z</time>
      </trkpt>
      <trkpt lat="44.12226" lon="6.32546">
        <ele>823.2</ele>
        <time>2021-03-02T12:31:41.000Z</time>
      </trkpt>
      <trkpt lat="44.12225" lon="6.32537">
        <ele>824.9</ele>
        <time>2021-03-02T12:31:42.972Z</time>
      </trkpt>
      <trkpt lat="44.12227" lon="6.32527">
        <ele>824.9</ele>
        <time>2021-03-02T12:31:45.986Z</time>
      </trkpt>
      <trkpt lat="44.1223" lon="6.32521">
        <ele>824.9</ele>
        <time>2021-03-02T12:31:48.992Z</time>
      </trkpt>
      <trkpt lat="44.12235" lon="6.32515">
        <ele>827.4</ele>
        <time>2021-03-02T12:31:52.985Z</time>
      </trkpt>
      <trkpt lat="44.12241" lon="6.32509">
        <ele>829.4</ele>
        <time>2021-03-02T12:31:56.676Z</time>
      </trkpt>
      <trkpt lat="44.1225" lon="6.32503">
        <ele>829.5</ele>
        <time>2021-03-02T12:32:00.043Z</time>
      </trkpt>
      <trkpt lat="44.12258" lon="6.32494">
        <ele>832.5</ele>
        <time>2021-03-02T12:32:03.988Z</time>
      </trkpt>
      <trkpt lat="44.12266" lon="6.3248">
        <ele>832.5</ele>
        <time>2021-03-02T12:32:07.978Z</time>
      </trkpt>
      <trkpt lat="44.1227" lon="6.32468">
        <ele>832.5</ele>
        <time>2021-03-02T12:32:10.984Z</time>
      </trkpt>
      <trkpt lat="44.12268" lon="6.32457">
        <ele>832.5</ele>
        <time>2021-03-02T12:32:13.992Z</time>
      </trkpt>
      <trkpt lat="44.12262" lon="6.32445">
        <ele>832.4</ele>
        <time>2021-03-02T12:32:20.000Z</time>
      </trkpt>
      <trkpt lat="44.12259" lon="6.32436">
        <ele>832.4</ele>
        <time>2021-03-02T12:32:21.985Z</time>
      </trkpt>
      <trkpt lat="44.1226" lon="6.3242">
        <ele>841.7</ele>
        <time>2021-03-02T12:32:25.982Z</time>
      </trkpt>
      <trkpt lat="44.12261" lon="6.32407">
        <ele>842.3</ele>
        <time>2021-03-02T12:32:29.606Z</time>
      </trkpt>
      <trkpt lat="44.12262" lon="6.32398">
        <ele>842.2</ele>
        <time>2021-03-02T12:32:32.987Z</time>
      </trkpt>
      <trkpt lat="44.12264" lon="6.3239">
        <ele>842.2</ele>
        <time>2021-03-02T12:32:36.022Z</time>
      </trkpt>
      <trkpt lat="44.12263" lon="6.32381">
        <ele>845.9</ele>
        <time>2021-03-02T12:32:39.116Z</time>
      </trkpt>
      <trkpt lat="44.12262" lon="6.32374">
        <ele>845.9</ele>
        <time>2021-03-02T12:32:42.981Z</time>
      </trkpt>
      <trkpt lat="44.12264" lon="6.32364">
        <ele>847.3</ele>
        <time>2021-03-02T12:32:45.991Z</time>
      </trkpt>
      <trkpt lat="44.1227" lon="6.32356">
        <ele>847.4</ele>
        <time>2021-03-02T12:32:49.174Z</time>
      </trkpt>
      <trkpt lat="44.12274" lon="6.32351">
        <ele>849.2</ele>
        <time>2021-03-02T12:32:53.991Z</time>
      </trkpt>
      <trkpt lat="44.12271" lon="6.32344">
        <ele>856.8</ele>
        <time>2021-03-02T12:33:17.637Z</time>
      </trkpt>
      <trkpt lat="44.12265" lon="6.32349">
        <ele>856.7</ele>
        <time>2021-03-02T12:33:21.976Z</time>
      </trkpt>
      <trkpt lat="44.12254" lon="6.32352">
        <ele>856.7</ele>
        <time>2021-03-02T12:33:26.000Z</time>
      </trkpt>
      <trkpt lat="44.12237" lon="6.32356">
        <ele>856.8</ele>
        <time>2021-03-02T12:33:29.282Z</time>
      </trkpt>
      <trkpt lat="44.12236" lon="6.32367">
        <ele>853.3</ele>
        <time>2021-03-02T12:33:32.839Z</time>
      </trkpt>
      <trkpt lat="44.12226" lon="6.3237">
        <ele>853.2</ele>
        <time>2021-03-02T12:33:38.000Z</time>
      </trkpt>
      <trkpt lat="44.12222" lon="6.32363">
        <ele>852.2</ele>
        <time>2021-03-02T12:33:43.687Z</time>
      </trkpt>
      <trkpt lat="44.1222" lon="6.32354">
        <ele>851</ele>
        <time>2021-03-02T12:33:47.022Z</time>
      </trkpt>
      <trkpt lat="44.12223" lon="6.32346">
        <ele>850.9</ele>
        <time>2021-03-02T12:33:54.597Z</time>
      </trkpt>
      <trkpt lat="44.12216" lon="6.32337">
        <ele>851.5</ele>
        <time>2021-03-02T12:34:01.524Z</time>
      </trkpt>
      <trkpt lat="44.12209" lon="6.32336">
        <ele>851.7</ele>
        <time>2021-03-02T12:34:05.977Z</time>
      </trkpt>
      <trkpt lat="44.12209" lon="6.32323">
        <ele>852.3</ele>
        <time>2021-03-02T12:34:08.979Z</time>
      </trkpt>
      <trkpt lat="44.12211" lon="6.32309">
        <ele>852.3</ele>
        <time>2021-03-02T12:34:12.972Z</time>
      </trkpt>
      <trkpt lat="44.12209" lon="6.32298">
        <ele>852.3</ele>
        <time>2021-03-02T12:34:15.988Z</time>
      </trkpt>
      <trkpt lat="44.12208" lon="6.32286">
        <ele>855.7</ele>
        <time>2021-03-02T12:34:19.982Z</time>
      </trkpt>
      <trkpt lat="44.12208" lon="6.32275">
        <ele>857</ele>
        <time>2021-03-02T12:34:23.301Z</time>
      </trkpt>
      <trkpt lat="44.12206" lon="6.32265">
        <ele>857.1</ele>
        <time>2021-03-02T12:34:26.577Z</time>
      </trkpt>
      <trkpt lat="44.12207" lon="6.32256">
        <ele>858.6</ele>
        <time>2021-03-02T12:34:29.670Z</time>
      </trkpt>
      <trkpt lat="44.1221" lon="6.32248">
        <ele>858.8</ele>
        <time>2021-03-02T12:34:33.027Z</time>
      </trkpt>
      <trkpt lat="44.12211" lon="6.32239">
        <ele>858.8</ele>
        <time>2021-03-02T12:34:36.981Z</time>
      </trkpt>
      <trkpt lat="44.1221" lon="6.32224">
        <ele>860.6</ele>
        <time>2021-03-02T12:34:44.000Z</time>
      </trkpt>
      <trkpt lat="44.12207" lon="6.32234">
        <ele>864.7</ele>
        <time>2021-03-02T12:34:49.321Z</time>
      </trkpt>
      <trkpt lat="44.12201" lon="6.32232">
        <ele>868.2</ele>
        <time>2021-03-02T12:35:12.975Z</time>
      </trkpt>
      <trkpt lat="44.12198" lon="6.32237">
        <ele>868.2</ele>
        <time>2021-03-02T12:35:15.976Z</time>
      </trkpt>
      <trkpt lat="44.12195" lon="6.32248">
        <ele>867.5</ele>
        <time>2021-03-02T12:35:20.000Z</time>
      </trkpt>
      <trkpt lat="44.12193" lon="6.3226">
        <ele>866.8</ele>
        <time>2021-03-02T12:35:26.000Z</time>
      </trkpt>
      <trkpt lat="44.12187" lon="6.32267">
        <ele>865.5</ele>
        <time>2021-03-02T12:35:29.225Z</time>
      </trkpt>
      <trkpt lat="44.12189" lon="6.32258">
        <ele>864.9</ele>
        <time>2021-03-02T12:35:35.986Z</time>
      </trkpt>
      <trkpt lat="44.12189" lon="6.3225">
        <ele>865.5</ele>
        <time>2021-03-02T12:35:39.975Z</time>
      </trkpt>
      <trkpt lat="44.1219" lon="6.32243">
        <ele>865.5</ele>
        <time>2021-03-02T12:35:43.097Z</time>
      </trkpt>
      <trkpt lat="44.12192" lon="6.32233">
        <ele>866.1</ele>
        <time>2021-03-02T12:35:46.981Z</time>
      </trkpt>
      <trkpt lat="44.12195" lon="6.32222">
        <ele>866</ele>
        <time>2021-03-02T12:35:53.000Z</time>
      </trkpt>
      <trkpt lat="44.1219" lon="6.3222">
        <ele>870.4</ele>
        <time>2021-03-02T12:36:18.049Z</time>
      </trkpt>
      <trkpt lat="44.12192" lon="6.32209">
        <ele>872.3</ele>
        <time>2021-03-02T12:36:46.982Z</time>
      </trkpt>
      <trkpt lat="44.1219" lon="6.32199">
        <ele>873.4</ele>
        <time>2021-03-02T12:36:50.427Z</time>
      </trkpt>
      <trkpt lat="44.12188" lon="6.32192">
        <ele>873.8</ele>
        <time>2021-03-02T12:36:53.983Z</time>
      </trkpt>
      <trkpt lat="44.1218" lon="6.3219">
        <ele>875.3</ele>
        <time>2021-03-02T12:36:59.000Z</time>
      </trkpt>
      <trkpt lat="44.12182" lon="6.32197">
        <ele>879.4</ele>
        <time>2021-03-02T12:38:25.453Z</time>
      </trkpt>
      <trkpt lat="44.12184" lon="6.32203">
        <ele>878.7</ele>
        <time>2021-03-02T12:38:46.000Z</time>
      </trkpt>
      <trkpt lat="44.1218" lon="6.322">
        <ele>878.2</ele>
        <time>2021-03-02T12:40:38.182Z</time>
      </trkpt>
      <trkpt lat="44.12177" lon="6.32191">
        <ele>879.3</ele>
        <time>2021-03-02T12:41:02.261Z</time>
      </trkpt>
      <trkpt lat="44.12169" lon="6.32174">
        <ele>879.4</ele>
        <time>2021-03-02T12:41:05.986Z</time>
      </trkpt>
      <trkpt lat="44.1216" lon="6.32157">
        <ele>879.4</ele>
        <time>2021-03-02T12:41:08.992Z</time>
      </trkpt>
      <trkpt lat="44.12147" lon="6.32125">
        <ele>878.1</ele>
        <time>2021-03-02T12:41:14.000Z</time>
      </trkpt>
      <trkpt lat="44.12134" lon="6.32109">
        <ele>877.7</ele>
        <time>2021-03-02T12:41:16.868Z</time>
      </trkpt>
      <trkpt lat="44.12122" lon="6.32098">
        <ele>877.3</ele>
        <time>2021-03-02T12:41:23.090Z</time>
      </trkpt>
      <trkpt lat="44.12113" lon="6.32078">
        <ele>877.3</ele>
        <time>2021-03-02T12:41:26.990Z</time>
      </trkpt>
      <trkpt lat="44.12107" lon="6.3206">
        <ele>874.7</ele>
        <time>2021-03-02T12:41:30.979Z</time>
      </trkpt>
      <trkpt lat="44.12103" lon="6.32043">
        <ele>874.7</ele>
        <time>2021-03-02T12:41:33.985Z</time>
      </trkpt>
      <trkpt lat="44.12096" lon="6.32025">
        <ele>873.7</ele>
        <time>2021-03-02T12:41:37.001Z</time>
      </trkpt>
      <trkpt lat="44.1209" lon="6.32007">
        <ele>873.4</ele>
        <time>2021-03-02T12:41:40.187Z</time>
      </trkpt>
      <trkpt lat="44.12086" lon="6.3199">
        <ele>873.3</ele>
        <time>2021-03-02T12:41:43.999Z</time>
      </trkpt>
      <trkpt lat="44.12082" lon="6.31975">
        <ele>873.3</ele>
        <time>2021-03-02T12:41:47.986Z</time>
      </trkpt>
      <trkpt lat="44.12077" lon="6.31961">
        <ele>873.7</ele>
        <time>2021-03-02T12:41:51.157Z</time>
      </trkpt>
      <trkpt lat="44.12068" lon="6.3195">
        <ele>873.8</ele>
        <time>2021-03-02T12:41:55.020Z</time>
      </trkpt>
      <trkpt lat="44.12056" lon="6.31937">
        <ele>873.5</ele>
        <time>2021-03-02T12:41:58.981Z</time>
      </trkpt>
      <trkpt lat="44.12045" lon="6.31931">
        <ele>872.7</ele>
        <time>2021-03-02T12:42:02.391Z</time>
      </trkpt>
      <trkpt lat="44.12037" lon="6.31927">
        <ele>872.7</ele>
        <time>2021-03-02T12:42:05.983Z</time>
      </trkpt>
      <trkpt lat="44.1203" lon="6.31919">
        <ele>872.7</ele>
        <time>2021-03-02T12:42:08.991Z</time>
      </trkpt>
      <trkpt lat="44.12024" lon="6.31903">
        <ele>871.3</ele>
        <time>2021-03-02T12:42:12.980Z</time>
      </trkpt>
      <trkpt lat="44.12017" lon="6.31895">
        <ele>871.3</ele>
        <time>2021-03-02T12:42:16.014Z</time>
      </trkpt>
      <trkpt lat="44.12012" lon="6.31878">
        <ele>870.8</ele>
        <time>2021-03-02T12:42:19.991Z</time>
      </trkpt>
      <trkpt lat="44.12005" lon="6.31866">
        <ele>870.3</ele>
        <time>2021-03-02T12:42:23.156Z</time>
      </trkpt>
      <trkpt lat="44.11996" lon="6.31858">
        <ele>870.3</ele>
        <time>2021-03-02T12:42:27.025Z</time>
      </trkpt>
      <trkpt lat="44.11993" lon="6.3184">
        <ele>870.3</ele>
        <time>2021-03-02T12:42:32.000Z</time>
      </trkpt>
      <trkpt lat="44.11996" lon="6.3183">
        <ele>870.3</ele>
        <time>2021-03-02T12:42:33.981Z</time>
      </trkpt>
      <trkpt lat="44.11999" lon="6.31819">
        <ele>870.9</ele>
        <time>2021-03-02T12:42:36.991Z</time>
      </trkpt>
      <trkpt lat="44.11998" lon="6.31804">
        <ele>870.3</ele>
        <time>2021-03-02T12:42:40.020Z</time>
      </trkpt>
      <trkpt lat="44.11997" lon="6.31788">
        <ele>870.2</ele>
        <time>2021-03-02T12:42:44.051Z</time>
      </trkpt>
      <trkpt lat="44.11997" lon="6.31775">
        <ele>870.2</ele>
        <time>2021-03-02T12:42:47.982Z</time>
      </trkpt>
      <trkpt lat="44.11995" lon="6.31766">
        <ele>870.5</ele>
        <time>2021-03-02T12:42:51.105Z</time>
      </trkpt>
      <trkpt lat="44.11989" lon="6.31754">
        <ele>870.4</ele>
        <time>2021-03-02T12:42:54.977Z</time>
      </trkpt>
      <trkpt lat="44.11969" lon="6.31727">
        <ele>870.9</ele>
        <time>2021-03-02T12:42:59.000Z</time>
      </trkpt>
      <trkpt lat="44.11929" lon="6.317">
        <ele>870.1</ele>
        <time>2021-03-02T12:43:04.624Z</time>
      </trkpt>
      <trkpt lat="44.11928" lon="6.31683">
        <ele>870.1</ele>
        <time>2021-03-02T12:43:08.523Z</time>
      </trkpt>
      <trkpt lat="44.11921" lon="6.31682">
        <ele>870.2</ele>
        <time>2021-03-02T12:43:14.000Z</time>
      </trkpt>
      <trkpt lat="44.11925" lon="6.31699">
        <ele>870.3</ele>
        <time>2021-03-02T12:43:17.511Z</time>
      </trkpt>
      <trkpt lat="44.11928" lon="6.31705">
        <ele>867.8</ele>
        <time>2021-03-02T12:43:20.982Z</time>
      </trkpt>
      <trkpt lat="44.11923" lon="6.31703">
        <ele>865.4</ele>
        <time>2021-03-02T12:43:51.087Z</time>
      </trkpt>
      <trkpt lat="44.11928" lon="6.31702">
        <ele>864.3</ele>
        <time>2021-03-02T12:44:02.971Z</time>
      </trkpt>
      <trkpt lat="44.11919" lon="6.31702">
        <ele>862.6</ele>
        <time>2021-03-02T12:44:23.105Z</time>
      </trkpt>
      <trkpt lat="44.11914" lon="6.31704">
        <ele>862.2</ele>
        <time>2021-03-02T12:44:27.855Z</time>
      </trkpt>
      <trkpt lat="44.11905" lon="6.31708">
        <ele>862</ele>
        <time>2021-03-02T12:44:32.000Z</time>
      </trkpt>
      <trkpt lat="44.11899" lon="6.31709">
        <ele>861.7</ele>
        <time>2021-03-02T12:44:34.671Z</time>
      </trkpt>
      <trkpt lat="44.11898" lon="6.31697">
        <ele>861.9</ele>
        <time>2021-03-02T12:44:44.494Z</time>
      </trkpt>
      <trkpt lat="44.11895" lon="6.3169">
        <ele>861.9</ele>
        <time>2021-03-02T12:44:47.519Z</time>
      </trkpt>
      <trkpt lat="44.11893" lon="6.31684">
        <ele>865.3</ele>
        <time>2021-03-02T12:44:50.546Z</time>
      </trkpt>
      <trkpt lat="44.1189" lon="6.31678">
        <ele>865.4</ele>
        <time>2021-03-02T12:44:54.145Z</time>
      </trkpt>
      <trkpt lat="44.11886" lon="6.3167">
        <ele>866.6</ele>
        <time>2021-03-02T12:44:57.591Z</time>
      </trkpt>
      <trkpt lat="44.11882" lon="6.31664">
        <ele>866.6</ele>
        <time>2021-03-02T12:45:00.723Z</time>
      </trkpt>
      <trkpt lat="44.11879" lon="6.3166">
        <ele>866.6</ele>
        <time>2021-03-02T12:45:03.965Z</time>
      </trkpt>
      <trkpt lat="44.11875" lon="6.31655">
        <ele>868.8</ele>
        <time>2021-03-02T12:45:07.455Z</time>
      </trkpt>
      <trkpt lat="44.11864" lon="6.31651">
        <ele>870.4</ele>
        <time>2021-03-02T12:45:14.247Z</time>
      </trkpt>
      <trkpt lat="44.11863" lon="6.31641">
        <ele>871.6</ele>
        <time>2021-03-02T12:45:21.887Z</time>
      </trkpt>
      <trkpt lat="44.11864" lon="6.3163">
        <ele>872.9</ele>
        <time>2021-03-02T12:45:27.995Z</time>
      </trkpt>
      <trkpt lat="44.11866" lon="6.31621">
        <ele>875.6</ele>
        <time>2021-03-02T12:45:31.291Z</time>
      </trkpt>
      <trkpt lat="44.11866" lon="6.31613">
        <ele>875.8</ele>
        <time>2021-03-02T12:45:34.603Z</time>
      </trkpt>
      <trkpt lat="44.11866" lon="6.31606">
        <ele>877.2</ele>
        <time>2021-03-02T12:45:37.711Z</time>
      </trkpt>
      <trkpt lat="44.11864" lon="6.31594">
        <ele>879.1</ele>
        <time>2021-03-02T12:45:44.210Z</time>
      </trkpt>
      <trkpt lat="44.11856" lon="6.31587">
        <ele>879.5</ele>
        <time>2021-03-02T12:45:47.887Z</time>
      </trkpt>
      <trkpt lat="44.11849" lon="6.3158">
        <ele>880.2</ele>
        <time>2021-03-02T12:45:50.991Z</time>
      </trkpt>
      <trkpt lat="44.11842" lon="6.31571">
        <ele>880.2</ele>
        <time>2021-03-02T12:45:54.009Z</time>
      </trkpt>
      <trkpt lat="44.11822" lon="6.31563">
        <ele>880.2</ele>
        <time>2021-03-02T12:45:59.000Z</time>
      </trkpt>
      <trkpt lat="44.11817" lon="6.3156">
        <ele>880.2</ele>
        <time>2021-03-02T12:46:01.994Z</time>
      </trkpt>
      <trkpt lat="44.11821" lon="6.31541">
        <ele>880.4</ele>
        <time>2021-03-02T12:46:05.499Z</time>
      </trkpt>
      <trkpt lat="44.11821" lon="6.31525">
        <ele>880.5</ele>
        <time>2021-03-02T12:46:08.500Z</time>
      </trkpt>
      <trkpt lat="44.11823" lon="6.31509">
        <ele>880.7</ele>
        <time>2021-03-02T12:46:11.755Z</time>
      </trkpt>
      <trkpt lat="44.11818" lon="6.31493">
        <ele>880.8</ele>
        <time>2021-03-02T12:46:14.989Z</time>
      </trkpt>
      <trkpt lat="44.11787" lon="6.31465">
        <ele>880.8</ele>
        <time>2021-03-02T12:46:20.000Z</time>
      </trkpt>
      <trkpt lat="44.11773" lon="6.3145">
        <ele>880.8</ele>
        <time>2021-03-02T12:46:23.000Z</time>
      </trkpt>
      <trkpt lat="44.11771" lon="6.31421">
        <ele>878.9</ele>
        <time>2021-03-02T12:46:29.000Z</time>
      </trkpt>
      <trkpt lat="44.11762" lon="6.31392">
        <ele>879</ele>
        <time>2021-03-02T12:46:32.000Z</time>
      </trkpt>
      <trkpt lat="44.11761" lon="6.31352">
        <ele>878.9</ele>
        <time>2021-03-02T12:46:38.000Z</time>
      </trkpt>
      <trkpt lat="44.11772" lon="6.31328">
        <ele>878.2</ele>
        <time>2021-03-02T12:46:44.000Z</time>
      </trkpt>
      <trkpt lat="44.11774" lon="6.31313">
        <ele>878.7</ele>
        <time>2021-03-02T12:46:46.235Z</time>
      </trkpt>
      <trkpt lat="44.11767" lon="6.31307">
        <ele>878.7</ele>
        <time>2021-03-02T12:46:50.003Z</time>
      </trkpt>
      <trkpt lat="44.11774" lon="6.31278">
        <ele>879.1</ele>
        <time>2021-03-02T12:46:54.985Z</time>
      </trkpt>
      <trkpt lat="44.11781" lon="6.31268">
        <ele>879.5</ele>
        <time>2021-03-02T12:46:58.075Z</time>
      </trkpt>
      <trkpt lat="44.11789" lon="6.31259">
        <ele>879.7</ele>
        <time>2021-03-02T12:47:01.994Z</time>
      </trkpt>
      <trkpt lat="44.11801" lon="6.31248">
        <ele>879.7</ele>
        <time>2021-03-02T12:47:06.988Z</time>
      </trkpt>
      <trkpt lat="44.11811" lon="6.31249">
        <ele>879.7</ele>
        <time>2021-03-02T12:47:09.996Z</time>
      </trkpt>
      <trkpt lat="44.11821" lon="6.31256">
        <ele>879.7</ele>
        <time>2021-03-02T12:47:13.994Z</time>
      </trkpt>
      <trkpt lat="44.11827" lon="6.31248">
        <ele>881</ele>
        <time>2021-03-02T12:47:20.002Z</time>
      </trkpt>
      <trkpt lat="44.1182" lon="6.3124">
        <ele>881.1</ele>
        <time>2021-03-02T12:47:24.075Z</time>
      </trkpt>
      <trkpt lat="44.11816" lon="6.31232">
        <ele>881.7</ele>
        <time>2021-03-02T12:47:27.715Z</time>
      </trkpt>
      <trkpt lat="44.11814" lon="6.31222">
        <ele>881.7</ele>
        <time>2021-03-02T12:47:30.983Z</time>
      </trkpt>
      <trkpt lat="44.11814" lon="6.31215">
        <ele>881.7</ele>
        <time>2021-03-02T12:47:33.996Z</time>
      </trkpt>
      <trkpt lat="44.11809" lon="6.31205">
        <ele>884.1</ele>
        <time>2021-03-02T12:47:37.531Z</time>
      </trkpt>
      <trkpt lat="44.11809" lon="6.31198">
        <ele>884.1</ele>
        <time>2021-03-02T12:47:40.991Z</time>
      </trkpt>
      <trkpt lat="44.11811" lon="6.31186">
        <ele>884.4</ele>
        <time>2021-03-02T12:47:44.289Z</time>
      </trkpt>
      <trkpt lat="44.11814" lon="6.31175">
        <ele>884.4</ele>
        <time>2021-03-02T12:47:47.990Z</time>
      </trkpt>
      <trkpt lat="44.11815" lon="6.31166">
        <ele>884.4</ele>
        <time>2021-03-02T12:47:50.996Z</time>
      </trkpt>
      <trkpt lat="44.11822" lon="6.31164">
        <ele>887.3</ele>
        <time>2021-03-02T12:47:57.994Z</time>
      </trkpt>
      <trkpt lat="44.11823" lon="6.31178">
        <ele>888.3</ele>
        <time>2021-03-02T12:48:04.982Z</time>
      </trkpt>
      <trkpt lat="44.11828" lon="6.31188">
        <ele>888.9</ele>
        <time>2021-03-02T12:48:11.526Z</time>
      </trkpt>
      <trkpt lat="44.11834" lon="6.31193">
        <ele>889</ele>
        <time>2021-03-02T12:48:15.013Z</time>
      </trkpt>
      <trkpt lat="44.1184" lon="6.31199">
        <ele>889.6</ele>
        <time>2021-03-02T12:48:18.983Z</time>
      </trkpt>
      <trkpt lat="44.11844" lon="6.31206">
        <ele>889.7</ele>
        <time>2021-03-02T12:48:22.066Z</time>
      </trkpt>
      <trkpt lat="44.1185" lon="6.3121">
        <ele>889.7</ele>
        <time>2021-03-02T12:48:25.989Z</time>
      </trkpt>
      <trkpt lat="44.11858" lon="6.31221">
        <ele>891.1</ele>
        <time>2021-03-02T12:48:32.867Z</time>
      </trkpt>
      <trkpt lat="44.11863" lon="6.31228">
        <ele>891.1</ele>
        <time>2021-03-02T12:48:35.991Z</time>
      </trkpt>
      <trkpt lat="44.11869" lon="6.31236">
        <ele>891.4</ele>
        <time>2021-03-02T12:48:39.987Z</time>
      </trkpt>
      <trkpt lat="44.11876" lon="6.31239">
        <ele>892.1</ele>
        <time>2021-03-02T12:48:43.338Z</time>
      </trkpt>
      <trkpt lat="44.11886" lon="6.31241">
        <ele>892.1</ele>
        <time>2021-03-02T12:48:47.031Z</time>
      </trkpt>
      <trkpt lat="44.11892" lon="6.31244">
        <ele>892.1</ele>
        <time>2021-03-02T12:48:50.988Z</time>
      </trkpt>
      <trkpt lat="44.11898" lon="6.31242">
        <ele>892.1</ele>
        <time>2021-03-02T12:48:53.991Z</time>
      </trkpt>
      <trkpt lat="44.11911" lon="6.3124">
        <ele>893.5</ele>
        <time>2021-03-02T12:48:57.753Z</time>
      </trkpt>
      <trkpt lat="44.11921" lon="6.31242">
        <ele>893.4</ele>
        <time>2021-03-02T12:49:02.000Z</time>
      </trkpt>
      <trkpt lat="44.1193" lon="6.31251">
        <ele>894.4</ele>
        <time>2021-03-02T12:49:03.985Z</time>
      </trkpt>
      <trkpt lat="44.11938" lon="6.31258">
        <ele>894.8</ele>
        <time>2021-03-02T12:49:07.147Z</time>
      </trkpt>
      <trkpt lat="44.11946" lon="6.31264">
        <ele>895.3</ele>
        <time>2021-03-02T12:49:10.989Z</time>
      </trkpt>
      <trkpt lat="44.11951" lon="6.31267">
        <ele>895.3</ele>
        <time>2021-03-02T12:49:14.050Z</time>
      </trkpt>
      <trkpt lat="44.1196" lon="6.31268">
        <ele>898.2</ele>
        <time>2021-03-02T12:49:17.274Z</time>
      </trkpt>
      <trkpt lat="44.11968" lon="6.31275">
        <ele>898.4</ele>
        <time>2021-03-02T12:49:21.000Z</time>
      </trkpt>
      <trkpt lat="44.11975" lon="6.31278">
        <ele>898.4</ele>
        <time>2021-03-02T12:49:24.978Z</time>
      </trkpt>
      <trkpt lat="44.11984" lon="6.31279">
        <ele>900.1</ele>
        <time>2021-03-02T12:49:27.982Z</time>
      </trkpt>
      <trkpt lat="44.11991" lon="6.31279">
        <ele>901.1</ele>
        <time>2021-03-02T12:49:31.028Z</time>
      </trkpt>
      <trkpt lat="44.11999" lon="6.31281">
        <ele>901.4</ele>
        <time>2021-03-02T12:49:34.987Z</time>
      </trkpt>
      <trkpt lat="44.12007" lon="6.31284">
        <ele>901.4</ele>
        <time>2021-03-02T12:49:37.987Z</time>
      </trkpt>
      <trkpt lat="44.12015" lon="6.31291">
        <ele>901.4</ele>
        <time>2021-03-02T12:49:41.000Z</time>
      </trkpt>
      <trkpt lat="44.12023" lon="6.31297">
        <ele>902.8</ele>
        <time>2021-03-02T12:49:44.271Z</time>
      </trkpt>
      <trkpt lat="44.12028" lon="6.31294">
        <ele>903</ele>
        <time>2021-03-02T12:49:50.000Z</time>
      </trkpt>
      <trkpt lat="44.12027" lon="6.31283">
        <ele>905.9</ele>
        <time>2021-03-02T12:49:58.648Z</time>
      </trkpt>
      <trkpt lat="44.12027" lon="6.31275">
        <ele>906</ele>
        <time>2021-03-02T12:50:01.993Z</time>
      </trkpt>
      <trkpt lat="44.12034" lon="6.3128">
        <ele>907.1</ele>
        <time>2021-03-02T12:50:08.908Z</time>
      </trkpt>
      <trkpt lat="44.12035" lon="6.3127">
        <ele>908.5</ele>
        <time>2021-03-02T12:50:16.026Z</time>
      </trkpt>
      <trkpt lat="44.12034" lon="6.31263">
        <ele>910.8</ele>
        <time>2021-03-02T12:50:19.425Z</time>
      </trkpt>
      <trkpt lat="44.12028" lon="6.31254">
        <ele>911</ele>
        <time>2021-03-02T12:50:23.033Z</time>
      </trkpt>
      <trkpt lat="44.12023" lon="6.31246">
        <ele>912.7</ele>
        <time>2021-03-02T12:50:26.271Z</time>
      </trkpt>
      <trkpt lat="44.1202" lon="6.31236">
        <ele>912.9</ele>
        <time>2021-03-02T12:50:29.636Z</time>
      </trkpt>
      <trkpt lat="44.12018" lon="6.31228">
        <ele>914.1</ele>
        <time>2021-03-02T12:50:32.768Z</time>
      </trkpt>
      <trkpt lat="44.12023" lon="6.31225">
        <ele>914.1</ele>
        <time>2021-03-02T12:50:35.987Z</time>
      </trkpt>
      <trkpt lat="44.12031" lon="6.31231">
        <ele>914.1</ele>
        <time>2021-03-02T12:50:39.985Z</time>
      </trkpt>
      <trkpt lat="44.12039" lon="6.31234">
        <ele>915.7</ele>
        <time>2021-03-02T12:50:43.553Z</time>
      </trkpt>
      <trkpt lat="44.12045" lon="6.31239">
        <ele>916.2</ele>
        <time>2021-03-02T12:50:46.557Z</time>
      </trkpt>
      <trkpt lat="44.12054" lon="6.31245">
        <ele>916.7</ele>
        <time>2021-03-02T12:50:49.976Z</time>
      </trkpt>
      <trkpt lat="44.12058" lon="6.31247">
        <ele>918</ele>
        <time>2021-03-02T12:50:53.375Z</time>
      </trkpt>
      <trkpt lat="44.1206" lon="6.31241">
        <ele>917.9</ele>
        <time>2021-03-02T12:50:56.996Z</time>
      </trkpt>
      <trkpt lat="44.1206" lon="6.31227">
        <ele>920.3</ele>
        <time>2021-03-02T12:51:03.992Z</time>
      </trkpt>
      <trkpt lat="44.12055" lon="6.31216">
        <ele>920.2</ele>
        <time>2021-03-02T12:51:07.991Z</time>
      </trkpt>
      <trkpt lat="44.12052" lon="6.31207">
        <ele>920.2</ele>
        <time>2021-03-02T12:51:10.993Z</time>
      </trkpt>
      <trkpt lat="44.12049" lon="6.31199">
        <ele>923.3</ele>
        <time>2021-03-02T12:51:14.474Z</time>
      </trkpt>
      <trkpt lat="44.12045" lon="6.31192">
        <ele>923.4</ele>
        <time>2021-03-02T12:51:17.917Z</time>
      </trkpt>
      <trkpt lat="44.12036" lon="6.31186">
        <ele>924.2</ele>
        <time>2021-03-02T12:51:21.115Z</time>
      </trkpt>
      <trkpt lat="44.12025" lon="6.31179">
        <ele>924.2</ele>
        <time>2021-03-02T12:51:24.985Z</time>
      </trkpt>
      <trkpt lat="44.12019" lon="6.31173">
        <ele>924.6</ele>
        <time>2021-03-02T12:51:28.017Z</time>
      </trkpt>
      <trkpt lat="44.12013" lon="6.31164">
        <ele>924.7</ele>
        <time>2021-03-02T12:51:32.002Z</time>
      </trkpt>
      <trkpt lat="44.12004" lon="6.31155">
        <ele>924.6</ele>
        <time>2021-03-02T12:51:35.997Z</time>
      </trkpt>
      <trkpt lat="44.11993" lon="6.31144">
        <ele>925.3</ele>
        <time>2021-03-02T12:51:39.991Z</time>
      </trkpt>
      <trkpt lat="44.11987" lon="6.31136">
        <ele>925.6</ele>
        <time>2021-03-02T12:51:43.169Z</time>
      </trkpt>
      <trkpt lat="44.11981" lon="6.31127">
        <ele>925.6</ele>
        <time>2021-03-02T12:51:46.991Z</time>
      </trkpt>
      <trkpt lat="44.11977" lon="6.31114">
        <ele>925.6</ele>
        <time>2021-03-02T12:51:50.974Z</time>
      </trkpt>
      <trkpt lat="44.11964" lon="6.31101">
        <ele>926.7</ele>
        <time>2021-03-02T12:51:54.990Z</time>
      </trkpt>
      <trkpt lat="44.11951" lon="6.31085">
        <ele>927</ele>
        <time>2021-03-02T12:51:59.294Z</time>
      </trkpt>
      <trkpt lat="44.11942" lon="6.31071">
        <ele>927.1</ele>
        <time>2021-03-02T12:52:02.935Z</time>
      </trkpt>
      <trkpt lat="44.11936" lon="6.31061">
        <ele>928.2</ele>
        <time>2021-03-02T12:52:06.026Z</time>
      </trkpt>
      <trkpt lat="44.11934" lon="6.31051">
        <ele>928.3</ele>
        <time>2021-03-02T12:52:09.537Z</time>
      </trkpt>
      <trkpt lat="44.11946" lon="6.31056">
        <ele>928.8</ele>
        <time>2021-03-02T12:52:16.984Z</time>
      </trkpt>
      <trkpt lat="44.11952" lon="6.31057">
        <ele>930.9</ele>
        <time>2021-03-02T12:52:20.293Z</time>
      </trkpt>
      <trkpt lat="44.11958" lon="6.31061">
        <ele>930.9</ele>
        <time>2021-03-02T12:52:23.991Z</time>
      </trkpt>
      <trkpt lat="44.11964" lon="6.31063">
        <ele>930.9</ele>
        <time>2021-03-02T12:52:26.996Z</time>
      </trkpt>
      <trkpt lat="44.11975" lon="6.31072">
        <ele>932.4</ele>
        <time>2021-03-02T12:52:32.000Z</time>
      </trkpt>
      <trkpt lat="44.11983" lon="6.31082">
        <ele>932.4</ele>
        <time>2021-03-02T12:52:34.171Z</time>
      </trkpt>
      <trkpt lat="44.1199" lon="6.31086">
        <ele>933.8</ele>
        <time>2021-03-02T12:52:37.991Z</time>
      </trkpt>
      <trkpt lat="44.12" lon="6.31086">
        <ele>933.7</ele>
        <time>2021-03-02T12:52:41.838Z</time>
      </trkpt>
      <trkpt lat="44.12008" lon="6.31089">
        <ele>933.8</ele>
        <time>2021-03-02T12:52:44.989Z</time>
      </trkpt>
      <trkpt lat="44.12018" lon="6.31091">
        <ele>936.7</ele>
        <time>2021-03-02T12:52:48.982Z</time>
      </trkpt>
      <trkpt lat="44.12022" lon="6.31088">
        <ele>938.4</ele>
        <time>2021-03-02T12:52:52.047Z</time>
      </trkpt>
      <trkpt lat="44.12018" lon="6.31074">
        <ele>938.6</ele>
        <time>2021-03-02T12:52:55.985Z</time>
      </trkpt>
      <trkpt lat="44.1201" lon="6.31063">
        <ele>938.5</ele>
        <time>2021-03-02T12:52:59.985Z</time>
      </trkpt>
      <trkpt lat="44.12013" lon="6.31055">
        <ele>938.5</ele>
        <time>2021-03-02T12:53:03.978Z</time>
      </trkpt>
      <trkpt lat="44.12021" lon="6.31057">
        <ele>941</ele>
        <time>2021-03-02T12:53:06.985Z</time>
      </trkpt>
      <trkpt lat="44.12029" lon="6.31058">
        <ele>941.3</ele>
        <time>2021-03-02T12:53:10.028Z</time>
      </trkpt>
      <trkpt lat="44.12033" lon="6.3105">
        <ele>941.6</ele>
        <time>2021-03-02T12:53:13.978Z</time>
      </trkpt>
      <trkpt lat="44.12032" lon="6.31037">
        <ele>941.6</ele>
        <time>2021-03-02T12:53:20.984Z</time>
      </trkpt>
      <trkpt lat="44.12027" lon="6.31032">
        <ele>943.9</ele>
        <time>2021-03-02T12:53:24.992Z</time>
      </trkpt>
      <trkpt lat="44.12023" lon="6.31028">
        <ele>944.7</ele>
        <time>2021-03-02T12:53:28.054Z</time>
      </trkpt>
      <trkpt lat="44.12019" lon="6.31017">
        <ele>945</ele>
        <time>2021-03-02T12:53:31.975Z</time>
      </trkpt>
      <trkpt lat="44.12017" lon="6.31007">
        <ele>945</ele>
        <time>2021-03-02T12:53:35.982Z</time>
      </trkpt>
      <trkpt lat="44.12015" lon="6.31">
        <ele>945</ele>
        <time>2021-03-02T12:53:38.987Z</time>
      </trkpt>
      <trkpt lat="44.1201" lon="6.3099">
        <ele>948.1</ele>
        <time>2021-03-02T12:53:42.980Z</time>
      </trkpt>
      <trkpt lat="44.12004" lon="6.3098">
        <ele>948.8</ele>
        <time>2021-03-02T12:53:46.012Z</time>
      </trkpt>
      <trkpt lat="44.12004" lon="6.30969">
        <ele>949.5</ele>
        <time>2021-03-02T12:53:49.988Z</time>
      </trkpt>
      <trkpt lat="44.12002" lon="6.30962">
        <ele>949.5</ele>
        <time>2021-03-02T12:53:53.980Z</time>
      </trkpt>
      <trkpt lat="44.11998" lon="6.30956">
        <ele>951.3</ele>
        <time>2021-03-02T12:53:57.055Z</time>
      </trkpt>
      <trkpt lat="44.11997" lon="6.30949">
        <ele>951.3</ele>
        <time>2021-03-02T12:54:00.987Z</time>
      </trkpt>
      <trkpt lat="44.11994" lon="6.30939">
        <ele>953.1</ele>
        <time>2021-03-02T12:54:03.991Z</time>
      </trkpt>
      <trkpt lat="44.11992" lon="6.30928">
        <ele>953.1</ele>
        <time>2021-03-02T12:54:06.998Z</time>
      </trkpt>
      <trkpt lat="44.11985" lon="6.3091">
        <ele>955.5</ele>
        <time>2021-03-02T12:54:10.991Z</time>
      </trkpt>
      <trkpt lat="44.11981" lon="6.30898">
        <ele>956.7</ele>
        <time>2021-03-02T12:54:14.239Z</time>
      </trkpt>
      <trkpt lat="44.1198" lon="6.30889">
        <ele>956.6</ele>
        <time>2021-03-02T12:54:17.979Z</time>
      </trkpt>
      <trkpt lat="44.11976" lon="6.3088">
        <ele>956.7</ele>
        <time>2021-03-02T12:54:20.982Z</time>
      </trkpt>
      <trkpt lat="44.11971" lon="6.30871">
        <ele>956.7</ele>
        <time>2021-03-02T12:54:23.994Z</time>
      </trkpt>
      <trkpt lat="44.11961" lon="6.30856">
        <ele>958.8</ele>
        <time>2021-03-02T12:54:27.019Z</time>
      </trkpt>
      <trkpt lat="44.11951" lon="6.30841">
        <ele>958.7</ele>
        <time>2021-03-02T12:54:30.333Z</time>
      </trkpt>
      <trkpt lat="44.11937" lon="6.30826">
        <ele>960.1</ele>
        <time>2021-03-02T12:54:33.990Z</time>
      </trkpt>
      <trkpt lat="44.11928" lon="6.30812">
        <ele>960.1</ele>
        <time>2021-03-02T12:54:37.994Z</time>
      </trkpt>
      <trkpt lat="44.11919" lon="6.30797">
        <ele>960.1</ele>
        <time>2021-03-02T12:54:41.982Z</time>
      </trkpt>
      <trkpt lat="44.11914" lon="6.30787">
        <ele>962.2</ele>
        <time>2021-03-02T12:54:45.150Z</time>
      </trkpt>
      <trkpt lat="44.11909" lon="6.30779">
        <ele>962.2</ele>
        <time>2021-03-02T12:54:48.596Z</time>
      </trkpt>
      <trkpt lat="44.119" lon="6.30769">
        <ele>963.3</ele>
        <time>2021-03-02T12:54:51.987Z</time>
      </trkpt>
      <trkpt lat="44.11897" lon="6.30758">
        <ele>963.3</ele>
        <time>2021-03-02T12:54:55.000Z</time>
      </trkpt>
      <trkpt lat="44.11885" lon="6.30741">
        <ele>963.2</ele>
        <time>2021-03-02T12:54:58.992Z</time>
      </trkpt>
      <trkpt lat="44.11881" lon="6.30735">
        <ele>965.5</ele>
        <time>2021-03-02T12:55:02.251Z</time>
      </trkpt>
      <trkpt lat="44.11876" lon="6.30721">
        <ele>965.5</ele>
        <time>2021-03-02T12:55:05.795Z</time>
      </trkpt>
      <trkpt lat="44.11883" lon="6.30728">
        <ele>966.9</ele>
        <time>2021-03-02T12:55:09.030Z</time>
      </trkpt>
      <trkpt lat="44.11891" lon="6.30737">
        <ele>966.9</ele>
        <time>2021-03-02T12:55:12.988Z</time>
      </trkpt>
      <trkpt lat="44.11896" lon="6.30737">
        <ele>966.9</ele>
        <time>2021-03-02T12:55:17.000Z</time>
      </trkpt>
      <trkpt lat="44.11899" lon="6.30745">
        <ele>966.9</ele>
        <time>2021-03-02T12:55:18.991Z</time>
      </trkpt>
      <trkpt lat="44.11904" lon="6.30754">
        <ele>969.4</ele>
        <time>2021-03-02T12:55:22.987Z</time>
      </trkpt>
      <trkpt lat="44.11911" lon="6.30762">
        <ele>969.8</ele>
        <time>2021-03-02T12:55:26.339Z</time>
      </trkpt>
      <trkpt lat="44.1192" lon="6.3077">
        <ele>969.8</ele>
        <time>2021-03-02T12:55:29.987Z</time>
      </trkpt>
      <trkpt lat="44.11927" lon="6.30774">
        <ele>969.8</ele>
        <time>2021-03-02T12:55:32.988Z</time>
      </trkpt>
      <trkpt lat="44.11933" lon="6.30782">
        <ele>969.9</ele>
        <time>2021-03-02T12:55:35.995Z</time>
      </trkpt>
      <trkpt lat="44.11942" lon="6.30784">
        <ele>969.8</ele>
        <time>2021-03-02T12:55:40.004Z</time>
      </trkpt>
      <trkpt lat="44.11947" lon="6.30785">
        <ele>972.4</ele>
        <time>2021-03-02T12:55:43.047Z</time>
      </trkpt>
      <trkpt lat="44.11951" lon="6.30788">
        <ele>973.4</ele>
        <time>2021-03-02T12:55:46.059Z</time>
      </trkpt>
      <trkpt lat="44.11959" lon="6.30786">
        <ele>973.5</ele>
        <time>2021-03-02T12:55:49.997Z</time>
      </trkpt>
      <trkpt lat="44.11968" lon="6.3078">
        <ele>973.4</ele>
        <time>2021-03-02T12:55:53.987Z</time>
      </trkpt>
      <trkpt lat="44.1197" lon="6.30772">
        <ele>975.1</ele>
        <time>2021-03-02T12:55:57.083Z</time>
      </trkpt>
      <trkpt lat="44.1197" lon="6.30761">
        <ele>975.1</ele>
        <time>2021-03-02T12:56:01.037Z</time>
      </trkpt>
      <trkpt lat="44.11973" lon="6.3075">
        <ele>976.5</ele>
        <time>2021-03-02T12:56:04.990Z</time>
      </trkpt>
      <trkpt lat="44.11975" lon="6.3074">
        <ele>976.5</ele>
        <time>2021-03-02T12:56:08.074Z</time>
      </trkpt>
      <trkpt lat="44.11975" lon="6.30731">
        <ele>977.1</ele>
        <time>2021-03-02T12:56:11.988Z</time>
      </trkpt>
      <trkpt lat="44.11976" lon="6.30723">
        <ele>977.1</ele>
        <time>2021-03-02T12:56:14.988Z</time>
      </trkpt>
      <trkpt lat="44.1197" lon="6.30711">
        <ele>980.5</ele>
        <time>2021-03-02T12:56:18.988Z</time>
      </trkpt>
      <trkpt lat="44.11963" lon="6.30704">
        <ele>980.5</ele>
        <time>2021-03-02T12:56:21.997Z</time>
      </trkpt>
      <trkpt lat="44.11957" lon="6.30691">
        <ele>983.9</ele>
        <time>2021-03-02T12:56:25.728Z</time>
      </trkpt>
      <trkpt lat="44.1195" lon="6.30679">
        <ele>983.8</ele>
        <time>2021-03-02T12:56:28.989Z</time>
      </trkpt>
      <trkpt lat="44.11939" lon="6.30667">
        <ele>984.8</ele>
        <time>2021-03-02T12:56:32.046Z</time>
      </trkpt>
      <trkpt lat="44.11928" lon="6.30652">
        <ele>985</ele>
        <time>2021-03-02T12:56:35.999Z</time>
      </trkpt>
      <trkpt lat="44.11925" lon="6.30638">
        <ele>985.1</ele>
        <time>2021-03-02T12:56:39.990Z</time>
      </trkpt>
      <trkpt lat="44.11932" lon="6.30645">
        <ele>986.4</ele>
        <time>2021-03-02T12:56:43.985Z</time>
      </trkpt>
      <trkpt lat="44.11939" lon="6.30654">
        <ele>988.6</ele>
        <time>2021-03-02T12:56:47.388Z</time>
      </trkpt>
      <trkpt lat="44.11945" lon="6.30658">
        <ele>988.6</ele>
        <time>2021-03-02T12:56:50.999Z</time>
      </trkpt>
      <trkpt lat="44.11951" lon="6.3066">
        <ele>989.6</ele>
        <time>2021-03-02T12:56:54.099Z</time>
      </trkpt>
      <trkpt lat="44.11958" lon="6.30655">
        <ele>989.6</ele>
        <time>2021-03-02T12:56:57.424Z</time>
      </trkpt>
      <trkpt lat="44.11954" lon="6.30646">
        <ele>991</ele>
        <time>2021-03-02T12:57:03.992Z</time>
      </trkpt>
      <trkpt lat="44.1196" lon="6.30637">
        <ele>990.9</ele>
        <time>2021-03-02T12:57:11.000Z</time>
      </trkpt>
      <trkpt lat="44.11966" lon="6.3063">
        <ele>993.6</ele>
        <time>2021-03-02T12:57:14.816Z</time>
      </trkpt>
      <trkpt lat="44.1197" lon="6.30621">
        <ele>993.6</ele>
        <time>2021-03-02T12:57:18.510Z</time>
      </trkpt>
      <trkpt lat="44.1197" lon="6.30613">
        <ele>996.4</ele>
        <time>2021-03-02T12:57:21.988Z</time>
      </trkpt>
      <trkpt lat="44.1196" lon="6.30603">
        <ele>996.4</ele>
        <time>2021-03-02T12:57:26.036Z</time>
      </trkpt>
      <trkpt lat="44.11954" lon="6.30595">
        <ele>997.6</ele>
        <time>2021-03-02T12:57:29.184Z</time>
      </trkpt>
      <trkpt lat="44.11949" lon="6.30585">
        <ele>997.6</ele>
        <time>2021-03-02T12:57:32.991Z</time>
      </trkpt>
      <trkpt lat="44.11948" lon="6.30579">
        <ele>997.6</ele>
        <time>2021-03-02T12:57:36.039Z</time>
      </trkpt>
      <trkpt lat="44.11953" lon="6.30575">
        <ele>997.6</ele>
        <time>2021-03-02T12:57:39.985Z</time>
      </trkpt>
      <trkpt lat="44.11945" lon="6.30561">
        <ele>1001.4</ele>
        <time>2021-03-02T12:57:46.030Z</time>
      </trkpt>
      <trkpt lat="44.11942" lon="6.30538">
        <ele>1001.9</ele>
        <time>2021-03-02T12:57:50.053Z</time>
      </trkpt>
      <trkpt lat="44.1194" lon="6.30523">
        <ele>1002</ele>
        <time>2021-03-02T12:57:53.995Z</time>
      </trkpt>
      <trkpt lat="44.11938" lon="6.30515">
        <ele>1004</ele>
        <time>2021-03-02T12:57:57.784Z</time>
      </trkpt>
      <trkpt lat="44.11931" lon="6.30503">
        <ele>1003.9</ele>
        <time>2021-03-02T12:58:00.989Z</time>
      </trkpt>
      <trkpt lat="44.11922" lon="6.3049">
        <ele>1003.9</ele>
        <time>2021-03-02T12:58:03.999Z</time>
      </trkpt>
      <trkpt lat="44.11913" lon="6.30475">
        <ele>1005.1</ele>
        <time>2021-03-02T12:58:07.002Z</time>
      </trkpt>
      <trkpt lat="44.1191" lon="6.30462">
        <ele>1006.1</ele>
        <time>2021-03-02T12:58:10.072Z</time>
      </trkpt>
      <trkpt lat="44.11915" lon="6.30457">
        <ele>1006.6</ele>
        <time>2021-03-02T12:58:13.993Z</time>
      </trkpt>
      <trkpt lat="44.11921" lon="6.30458">
        <ele>1006.7</ele>
        <time>2021-03-02T12:58:16.993Z</time>
      </trkpt>
      <trkpt lat="44.11929" lon="6.30463">
        <ele>1006.7</ele>
        <time>2021-03-02T12:58:19.998Z</time>
      </trkpt>
      <trkpt lat="44.11933" lon="6.3046">
        <ele>1008</ele>
        <time>2021-03-02T12:58:23.225Z</time>
      </trkpt>
      <trkpt lat="44.11939" lon="6.30465">
        <ele>1008.3</ele>
        <time>2021-03-02T12:58:26.820Z</time>
      </trkpt>
      <trkpt lat="44.11943" lon="6.30468">
        <ele>1009.4</ele>
        <time>2021-03-02T12:58:30.156Z</time>
      </trkpt>
      <trkpt lat="44.1195" lon="6.30469">
        <ele>1009.4</ele>
        <time>2021-03-02T12:58:33.997Z</time>
      </trkpt>
      <trkpt lat="44.11961" lon="6.30464">
        <ele>1009.5</ele>
        <time>2021-03-02T12:58:37.882Z</time>
      </trkpt>
      <trkpt lat="44.11969" lon="6.30459">
        <ele>1012.2</ele>
        <time>2021-03-02T12:58:41.286Z</time>
      </trkpt>
      <trkpt lat="44.11977" lon="6.30456">
        <ele>1012.8</ele>
        <time>2021-03-02T12:58:44.999Z</time>
      </trkpt>
      <trkpt lat="44.11985" lon="6.30449">
        <ele>1015.5</ele>
        <time>2021-03-02T12:58:48.063Z</time>
      </trkpt>
      <trkpt lat="44.11992" lon="6.3044">
        <ele>1015.8</ele>
        <time>2021-03-02T12:58:51.189Z</time>
      </trkpt>
      <trkpt lat="44.11997" lon="6.30428">
        <ele>1015.7</ele>
        <time>2021-03-02T12:58:54.987Z</time>
      </trkpt>
      <trkpt lat="44.12001" lon="6.30421">
        <ele>1016.7</ele>
        <time>2021-03-02T12:58:59.000Z</time>
      </trkpt>
      <trkpt lat="44.12006" lon="6.30414">
        <ele>1017.7</ele>
        <time>2021-03-02T12:59:14.000Z</time>
      </trkpt>
      <trkpt lat="44.12007" lon="6.30408">
        <ele>1020.6</ele>
        <time>2021-03-02T12:59:59.000Z</time>
      </trkpt>
      <trkpt lat="44.12002" lon="6.30404">
        <ele>1021.9</ele>
        <time>2021-03-02T13:00:25.362Z</time>
      </trkpt>
      <trkpt lat="44.12" lon="6.30396">
        <ele>1020.5</ele>
        <time>2021-03-02T13:00:32.125Z</time>
      </trkpt>
      <trkpt lat="44.11997" lon="6.30384">
        <ele>1020.5</ele>
        <time>2021-03-02T13:00:36.002Z</time>
      </trkpt>
      <trkpt lat="44.11997" lon="6.30368">
        <ele>1018.8</ele>
        <time>2021-03-02T13:00:39.991Z</time>
      </trkpt>
      <trkpt lat="44.12003" lon="6.30356">
        <ele>1017</ele>
        <time>2021-03-02T13:00:43.508Z</time>
      </trkpt>
      <trkpt lat="44.12004" lon="6.30344">
        <ele>1016.5</ele>
        <time>2021-03-02T13:00:46.994Z</time>
      </trkpt>
      <trkpt lat="44.12006" lon="6.30333">
        <ele>1015.2</ele>
        <time>2021-03-02T13:00:50.680Z</time>
      </trkpt>
      <trkpt lat="44.12017" lon="6.30312">
        <ele>1015</ele>
        <time>2021-03-02T13:00:56.000Z</time>
      </trkpt>
      <trkpt lat="44.12018" lon="6.303">
        <ele>1015</ele>
        <time>2021-03-02T13:00:59.000Z</time>
      </trkpt>
      <trkpt lat="44.12012" lon="6.30286">
        <ele>1011.3</ele>
        <time>2021-03-02T13:01:01.041Z</time>
      </trkpt>
      <trkpt lat="44.12005" lon="6.30269">
        <ele>1010.3</ele>
        <time>2021-03-02T13:01:04.557Z</time>
      </trkpt>
      <trkpt lat="44.1201" lon="6.30251">
        <ele>1009.7</ele>
        <time>2021-03-02T13:01:07.993Z</time>
      </trkpt>
      <trkpt lat="44.12007" lon="6.30237">
        <ele>1008.2</ele>
        <time>2021-03-02T13:01:11.658Z</time>
      </trkpt>
      <trkpt lat="44.12003" lon="6.30221">
        <ele>1008</ele>
        <time>2021-03-02T13:01:14.991Z</time>
      </trkpt>
      <trkpt lat="44.12002" lon="6.30207">
        <ele>1007.9</ele>
        <time>2021-03-02T13:01:18.009Z</time>
      </trkpt>
      <trkpt lat="44.11996" lon="6.30191">
        <ele>1007.9</ele>
        <time>2021-03-02T13:01:21.993Z</time>
      </trkpt>
      <trkpt lat="44.1199" lon="6.3017">
        <ele>1004.6</ele>
        <time>2021-03-02T13:01:25.992Z</time>
      </trkpt>
      <trkpt lat="44.11989" lon="6.30154">
        <ele>1005.1</ele>
        <time>2021-03-02T13:01:29.309Z</time>
      </trkpt>
      <trkpt lat="44.11988" lon="6.30136">
        <ele>1005.1</ele>
        <time>2021-03-02T13:01:33.010Z</time>
      </trkpt>
      <trkpt lat="44.11987" lon="6.30116">
        <ele>1005.1</ele>
        <time>2021-03-02T13:01:37.000Z</time>
      </trkpt>
      <trkpt lat="44.11986" lon="6.30102">
        <ele>1005</ele>
        <time>2021-03-02T13:01:40.033Z</time>
      </trkpt>
      <trkpt lat="44.11977" lon="6.3009">
        <ele>1002.9</ele>
        <time>2021-03-02T13:01:43.995Z</time>
      </trkpt>
      <trkpt lat="44.1197" lon="6.30069">
        <ele>1002.3</ele>
        <time>2021-03-02T13:01:47.499Z</time>
      </trkpt>
      <trkpt lat="44.11969" lon="6.30055">
        <ele>1002.1</ele>
        <time>2021-03-02T13:01:51.026Z</time>
      </trkpt>
      <trkpt lat="44.1196" lon="6.3004">
        <ele>1002.1</ele>
        <time>2021-03-02T13:01:54.990Z</time>
      </trkpt>
      <trkpt lat="44.11954" lon="6.30028">
        <ele>1001.3</ele>
        <time>2021-03-02T13:01:57.992Z</time>
      </trkpt>
      <trkpt lat="44.11951" lon="6.3002">
        <ele>1001.3</ele>
        <time>2021-03-02T13:02:01.004Z</time>
      </trkpt>
      <trkpt lat="44.11953" lon="6.30003">
        <ele>1001.3</ele>
        <time>2021-03-02T13:02:04.997Z</time>
      </trkpt>
      <trkpt lat="44.11959" lon="6.2999">
        <ele>1000</ele>
        <time>2021-03-02T13:02:08.178Z</time>
      </trkpt>
      <trkpt lat="44.11965" lon="6.29974">
        <ele>999.9</ele>
        <time>2021-03-02T13:02:11.597Z</time>
      </trkpt>
      <trkpt lat="44.11967" lon="6.29953">
        <ele>998.4</ele>
        <time>2021-03-02T13:02:14.953Z</time>
      </trkpt>
      <trkpt lat="44.11973" lon="6.29939">
        <ele>998.4</ele>
        <time>2021-03-02T13:02:18.004Z</time>
      </trkpt>
      <trkpt lat="44.11981" lon="6.29927">
        <ele>998.4</ele>
        <time>2021-03-02T13:02:21.997Z</time>
      </trkpt>
      <trkpt lat="44.11984" lon="6.2991">
        <ele>998.5</ele>
        <time>2021-03-02T13:02:25.994Z</time>
      </trkpt>
      <trkpt lat="44.11989" lon="6.29893">
        <ele>993.6</ele>
        <time>2021-03-02T13:02:29.398Z</time>
      </trkpt>
      <trkpt lat="44.11991" lon="6.29876">
        <ele>993.6</ele>
        <time>2021-03-02T13:02:32.953Z</time>
      </trkpt>
      <trkpt lat="44.11987" lon="6.29832">
        <ele>992.5</ele>
        <time>2021-03-02T13:02:38.000Z</time>
      </trkpt>
      <trkpt lat="44.11982" lon="6.29801">
        <ele>992.5</ele>
        <time>2021-03-02T13:02:41.000Z</time>
      </trkpt>
      <trkpt lat="44.11981" lon="6.29781">
        <ele>992.6</ele>
        <time>2021-03-02T13:02:44.000Z</time>
      </trkpt>
      <trkpt lat="44.11984" lon="6.29769">
        <ele>992.6</ele>
        <time>2021-03-02T13:02:45.998Z</time>
      </trkpt>
      <trkpt lat="44.11982" lon="6.29754">
        <ele>992.7</ele>
        <time>2021-03-02T13:02:49.995Z</time>
      </trkpt>
      <trkpt lat="44.11974" lon="6.29743">
        <ele>985.1</ele>
        <time>2021-03-02T13:02:53.147Z</time>
      </trkpt>
      <trkpt lat="44.11967" lon="6.29727">
        <ele>983.9</ele>
        <time>2021-03-02T13:02:57.002Z</time>
      </trkpt>
      <trkpt lat="44.11961" lon="6.29709">
        <ele>984</ele>
        <time>2021-03-02T13:03:00.987Z</time>
      </trkpt>
      <trkpt lat="44.11962" lon="6.29696">
        <ele>984</ele>
        <time>2021-03-02T13:03:03.992Z</time>
      </trkpt>
      <trkpt lat="44.11967" lon="6.29691">
        <ele>979.2</ele>
        <time>2021-03-02T13:03:07.037Z</time>
      </trkpt>
      <trkpt lat="44.11977" lon="6.29662">
        <ele>978</ele>
        <time>2021-03-02T13:03:10.042Z</time>
      </trkpt>
      <trkpt lat="44.11974" lon="6.29638">
        <ele>977.1</ele>
        <time>2021-03-02T13:03:14.010Z</time>
      </trkpt>
      <trkpt lat="44.1198" lon="6.29627">
        <ele>977</ele>
        <time>2021-03-02T13:03:17.987Z</time>
      </trkpt>
      <trkpt lat="44.11969" lon="6.29607">
        <ele>971.9</ele>
        <time>2021-03-02T13:03:24.023Z</time>
      </trkpt>
      <trkpt lat="44.1196" lon="6.29594">
        <ele>971</ele>
        <time>2021-03-02T13:03:27.719Z</time>
      </trkpt>
      <trkpt lat="44.11956" lon="6.29586">
        <ele>968.4</ele>
        <time>2021-03-02T13:03:30.828Z</time>
      </trkpt>
      <trkpt lat="44.11942" lon="6.29565">
        <ele>968</ele>
        <time>2021-03-02T13:03:35.000Z</time>
      </trkpt>
      <trkpt lat="44.11938" lon="6.29553">
        <ele>968</ele>
        <time>2021-03-02T13:03:36.986Z</time>
      </trkpt>
      <trkpt lat="44.1194" lon="6.29545">
        <ele>968</ele>
        <time>2021-03-02T13:03:39.990Z</time>
      </trkpt>
      <trkpt lat="44.11938" lon="6.29528">
        <ele>961.2</ele>
        <time>2021-03-02T13:03:43.998Z</time>
      </trkpt>
      <trkpt lat="44.11935" lon="6.29514">
        <ele>961.1</ele>
        <time>2021-03-02T13:03:48.010Z</time>
      </trkpt>
      <trkpt lat="44.11932" lon="6.29501">
        <ele>954.4</ele>
        <time>2021-03-02T13:03:51.985Z</time>
      </trkpt>
      <trkpt lat="44.11926" lon="6.29488">
        <ele>952.2</ele>
        <time>2021-03-02T13:03:55.075Z</time>
      </trkpt>
      <trkpt lat="44.11927" lon="6.29475">
        <ele>951.9</ele>
        <time>2021-03-02T13:04:02.000Z</time>
      </trkpt>
      <trkpt lat="44.11919" lon="6.29463">
        <ele>952</ele>
        <time>2021-03-02T13:04:08.000Z</time>
      </trkpt>
      <trkpt lat="44.11917" lon="6.29455">
        <ele>946.1</ele>
        <time>2021-03-02T13:04:15.036Z</time>
      </trkpt>
      <trkpt lat="44.11912" lon="6.29444">
        <ele>942.8</ele>
        <time>2021-03-02T13:04:26.000Z</time>
      </trkpt>
      <trkpt lat="44.11903" lon="6.2944">
        <ele>942.7</ele>
        <time>2021-03-02T13:04:29.000Z</time>
      </trkpt>
      <trkpt lat="44.11899" lon="6.29434">
        <ele>939</ele>
        <time>2021-03-02T13:04:35.000Z</time>
      </trkpt>
      <trkpt lat="44.11911" lon="6.29422">
        <ele>936</ele>
        <time>2021-03-02T13:04:41.000Z</time>
      </trkpt>
      <trkpt lat="44.11919" lon="6.29421">
        <ele>933</ele>
        <time>2021-03-02T13:04:44.000Z</time>
      </trkpt>
      <trkpt lat="44.11922" lon="6.29417">
        <ele>930.7</ele>
        <time>2021-03-02T13:04:46.034Z</time>
      </trkpt>
      <trkpt lat="44.11925" lon="6.29409">
        <ele>926.5</ele>
        <time>2021-03-02T13:04:56.000Z</time>
      </trkpt>
      <trkpt lat="44.11925" lon="6.29403">
        <ele>923.7</ele>
        <time>2021-03-02T13:04:58.069Z</time>
      </trkpt>
      <trkpt lat="44.11914" lon="6.29396">
        <ele>922.4</ele>
        <time>2021-03-02T13:05:05.000Z</time>
      </trkpt>
      <trkpt lat="44.1191" lon="6.2939">
        <ele>920.3</ele>
        <time>2021-03-02T13:05:08.000Z</time>
      </trkpt>
      <trkpt lat="44.11915" lon="6.29382">
        <ele>920.2</ele>
        <time>2021-03-02T13:05:14.000Z</time>
      </trkpt>
      <trkpt lat="44.1192" lon="6.29379">
        <ele>920.1</ele>
        <time>2021-03-02T13:05:17.000Z</time>
      </trkpt>
      <trkpt lat="44.11926" lon="6.29377">
        <ele>909.5</ele>
        <time>2021-03-02T13:05:19.048Z</time>
      </trkpt>
      <trkpt lat="44.11938" lon="6.29378">
        <ele>907.7</ele>
        <time>2021-03-02T13:05:26.000Z</time>
      </trkpt>
      <trkpt lat="44.11943" lon="6.29375">
        <ele>904.9</ele>
        <time>2021-03-02T13:05:29.000Z</time>
      </trkpt>
      <trkpt lat="44.11938" lon="6.29367">
        <ele>899.8</ele>
        <time>2021-03-02T13:05:34.046Z</time>
      </trkpt>
      <trkpt lat="44.1194" lon="6.29353">
        <ele>897.1</ele>
        <time>2021-03-02T13:05:41.000Z</time>
      </trkpt>
      <trkpt lat="44.11948" lon="6.29336">
        <ele>897.1</ele>
        <time>2021-03-02T13:05:47.000Z</time>
      </trkpt>
      <trkpt lat="44.11947" lon="6.29321">
        <ele>885.5</ele>
        <time>2021-03-02T13:05:50.000Z</time>
      </trkpt>
      <trkpt lat="44.11941" lon="6.29305">
        <ele>880.1</ele>
        <time>2021-03-02T13:05:52.036Z</time>
      </trkpt>
      <trkpt lat="44.11926" lon="6.29284">
        <ele>878.7</ele>
        <time>2021-03-02T13:05:59.000Z</time>
      </trkpt>
      <trkpt lat="44.11912" lon="6.29286">
        <ele>878.6</ele>
        <time>2021-03-02T13:06:05.000Z</time>
      </trkpt>
      <trkpt lat="44.11915" lon="6.29291">
        <ele>865</ele>
        <time>2021-03-02T13:06:17.000Z</time>
      </trkpt>
      <trkpt lat="44.11911" lon="6.29286">
        <ele>857.1</ele>
        <time>2021-03-02T13:06:53.000Z</time>
      </trkpt>
      <trkpt lat="44.11909" lon="6.29279">
        <ele>854.8</ele>
        <time>2021-03-02T13:06:59.000Z</time>
      </trkpt>
      <trkpt lat="44.11876" lon="6.29256">
        <ele>854.9</ele>
        <time>2021-03-02T13:07:05.000Z</time>
      </trkpt>
      <trkpt lat="44.11868" lon="6.29251">
        <ele>854.8</ele>
        <time>2021-03-02T13:07:08.000Z</time>
      </trkpt>
      <trkpt lat="44.11844" lon="6.29228">
        <ele>848.5</ele>
        <time>2021-03-02T13:07:14.000Z</time>
      </trkpt>
      <trkpt lat="44.11834" lon="6.29214">
        <ele>844.6</ele>
        <time>2021-03-02T13:07:17.000Z</time>
      </trkpt>
      <trkpt lat="44.11828" lon="6.2921">
        <ele>844.6</ele>
        <time>2021-03-02T13:07:20.000Z</time>
      </trkpt>
      <trkpt lat="44.11811" lon="6.29198">
        <ele>844.4</ele>
        <time>2021-03-02T13:07:26.000Z</time>
      </trkpt>
      <trkpt lat="44.11807" lon="6.29191">
        <ele>844.5</ele>
        <time>2021-03-02T13:07:29.000Z</time>
      </trkpt>
      <trkpt lat="44.11799" lon="6.29187">
        <ele>831.3</ele>
        <time>2021-03-02T13:07:35.000Z</time>
      </trkpt>
      <trkpt lat="44.11784" lon="6.29178">
        <ele>822</ele>
        <time>2021-03-02T13:07:50.000Z</time>
      </trkpt>
      <trkpt lat="44.11775" lon="6.29172">
        <ele>822</ele>
        <time>2021-03-02T13:07:53.000Z</time>
      </trkpt>
      <trkpt lat="44.11766" lon="6.29168">
        <ele>819.3</ele>
        <time>2021-03-02T13:07:55.050Z</time>
      </trkpt>
      <trkpt lat="44.11764" lon="6.29156">
        <ele>818.5</ele>
        <time>2021-03-02T13:08:02.000Z</time>
      </trkpt>
      <trkpt lat="44.1174" lon="6.29132">
        <ele>818.5</ele>
        <time>2021-03-02T13:08:08.000Z</time>
      </trkpt>
      <trkpt lat="44.1172" lon="6.29092">
        <ele>818.5</ele>
        <time>2021-03-02T13:08:14.000Z</time>
      </trkpt>
      <trkpt lat="44.11713" lon="6.29074">
        <ele>818.5</ele>
        <time>2021-03-02T13:08:17.000Z</time>
      </trkpt>
      <trkpt lat="44.11707" lon="6.29068">
        <ele>787.2</ele>
        <time>2021-03-02T13:09:59.000Z</time>
      </trkpt>
      <trkpt lat="44.11692" lon="6.29058">
        <ele>787.2</ele>
        <time>2021-03-02T13:10:02.000Z</time>
      </trkpt>
      <trkpt lat="44.11677" lon="6.29059">
        <ele>786</ele>
        <time>2021-03-02T13:10:04.035Z</time>
      </trkpt>
      <trkpt lat="44.11671" lon="6.29044">
        <ele>785.7</ele>
        <time>2021-03-02T13:10:11.000Z</time>
      </trkpt>
      <trkpt lat="44.11669" lon="6.29025">
        <ele>784.9</ele>
        <time>2021-03-02T13:10:14.000Z</time>
      </trkpt>
      <trkpt lat="44.1166" lon="6.29008">
        <ele>784.9</ele>
        <time>2021-03-02T13:10:17.000Z</time>
      </trkpt>
      <trkpt lat="44.11637" lon="6.28975">
        <ele>783.7</ele>
        <time>2021-03-02T13:10:23.000Z</time>
      </trkpt>
      <trkpt lat="44.1163" lon="6.28962">
        <ele>782.5</ele>
        <time>2021-03-02T13:10:26.000Z</time>
      </trkpt>
      <trkpt lat="44.11613" lon="6.28939">
        <ele>782.5</ele>
        <time>2021-03-02T13:10:32.000Z</time>
      </trkpt>
      <trkpt lat="44.11609" lon="6.28925">
        <ele>782.5</ele>
        <time>2021-03-02T13:10:35.000Z</time>
      </trkpt>
      <trkpt lat="44.11604" lon="6.28909">
        <ele>782.5</ele>
        <time>2021-03-02T13:10:38.000Z</time>
      </trkpt>
      <trkpt lat="44.11602" lon="6.28872">
        <ele>781.3</ele>
        <time>2021-03-02T13:10:44.000Z</time>
      </trkpt>
      <trkpt lat="44.11599" lon="6.28858">
        <ele>781</ele>
        <time>2021-03-02T13:10:45.991Z</time>
      </trkpt>
      <trkpt lat="44.11596" lon="6.28836">
        <ele>781</ele>
        <time>2021-03-02T13:10:50.049Z</time>
      </trkpt>
      <trkpt lat="44.11595" lon="6.28811">
        <ele>780.8</ele>
        <time>2021-03-02T13:10:54.059Z</time>
      </trkpt>
      <trkpt lat="44.11594" lon="6.28794">
        <ele>780.8</ele>
        <time>2021-03-02T13:10:57.991Z</time>
      </trkpt>
      <trkpt lat="44.11596" lon="6.28787">
        <ele>780.8</ele>
        <time>2021-03-02T13:11:02.000Z</time>
      </trkpt>
      <trkpt lat="44.11594" lon="6.28775">
        <ele>780.9</ele>
        <time>2021-03-02T13:11:04.994Z</time>
      </trkpt>
      <trkpt lat="44.11593" lon="6.28763">
        <ele>780.9</ele>
        <time>2021-03-02T13:11:07.999Z</time>
      </trkpt>
      <trkpt lat="44.11591" lon="6.28754">
        <ele>780.6</ele>
        <time>2021-03-02T13:11:11.597Z</time>
      </trkpt>
      <trkpt lat="44.11591" lon="6.28746">
        <ele>780.6</ele>
        <time>2021-03-02T13:11:15.162Z</time>
      </trkpt>
      <trkpt lat="44.11588" lon="6.28731">
        <ele>781.4</ele>
        <time>2021-03-02T13:11:18.994Z</time>
      </trkpt>
      <trkpt lat="44.11584" lon="6.28717">
        <ele>781.4</ele>
        <time>2021-03-02T13:11:23.046Z</time>
      </trkpt>
      <trkpt lat="44.11581" lon="6.28699">
        <ele>782.2</ele>
        <time>2021-03-02T13:11:26.455Z</time>
      </trkpt>
      <trkpt lat="44.11578" lon="6.28685">
        <ele>782.2</ele>
        <time>2021-03-02T13:11:29.988Z</time>
      </trkpt>
      <trkpt lat="44.11577" lon="6.2867">
        <ele>783.3</ele>
        <time>2021-03-02T13:11:33.103Z</time>
      </trkpt>
      <trkpt lat="44.11566" lon="6.28658">
        <ele>783.3</ele>
        <time>2021-03-02T13:11:36.605Z</time>
      </trkpt>
      <trkpt lat="44.11547" lon="6.2863">
        <ele>783.7</ele>
        <time>2021-03-02T13:11:41.000Z</time>
      </trkpt>
      <trkpt lat="44.11539" lon="6.28619">
        <ele>783.7</ele>
        <time>2021-03-02T13:11:42.996Z</time>
      </trkpt>
      <trkpt lat="44.11525" lon="6.28612">
        <ele>783.8</ele>
        <time>2021-03-02T13:11:46.993Z</time>
      </trkpt>
      <trkpt lat="44.11504" lon="6.28582">
        <ele>783.8</ele>
        <time>2021-03-02T13:11:53.000Z</time>
      </trkpt>
      <trkpt lat="44.11496" lon="6.28577">
        <ele>783.8</ele>
        <time>2021-03-02T13:11:54.996Z</time>
      </trkpt>
      <trkpt lat="44.11485" lon="6.28572">
        <ele>779.3</ele>
        <time>2021-03-02T13:11:59.002Z</time>
      </trkpt>
      <trkpt lat="44.1148" lon="6.28557">
        <ele>776.9</ele>
        <time>2021-03-02T13:12:02.934Z</time>
      </trkpt>
      <trkpt lat="44.11473" lon="6.28552">
        <ele>776.9</ele>
        <time>2021-03-02T13:12:06.025Z</time>
      </trkpt>
      <trkpt lat="44.11464" lon="6.28537">
        <ele>776.9</ele>
        <time>2021-03-02T13:12:10.002Z</time>
      </trkpt>
      <trkpt lat="44.11431" lon="6.28528">
        <ele>774.4</ele>
        <time>2021-03-02T13:12:14.991Z</time>
      </trkpt>
      <trkpt lat="44.11418" lon="6.2852">
        <ele>773.4</ele>
        <time>2021-03-02T13:12:19.000Z</time>
      </trkpt>
      <trkpt lat="44.11396" lon="6.28499">
        <ele>772.4</ele>
        <time>2021-03-02T13:12:22.041Z</time>
      </trkpt>
      <trkpt lat="44.11374" lon="6.2846">
        <ele>772.1</ele>
        <time>2021-03-02T13:12:29.000Z</time>
      </trkpt>
      <trkpt lat="44.11359" lon="6.28442">
        <ele>772.1</ele>
        <time>2021-03-02T13:12:31.998Z</time>
      </trkpt>
      <trkpt lat="44.11353" lon="6.28434">
        <ele>772.1</ele>
        <time>2021-03-02T13:12:34.998Z</time>
      </trkpt>
      <trkpt lat="44.1134" lon="6.28433">
        <ele>772.2</ele>
        <time>2021-03-02T13:12:37.999Z</time>
      </trkpt>
      <trkpt lat="44.11331" lon="6.28441">
        <ele>772.2</ele>
        <time>2021-03-02T13:12:41.986Z</time>
      </trkpt>
      <trkpt lat="44.11322" lon="6.28446">
        <ele>772.2</ele>
        <time>2021-03-02T13:12:44.995Z</time>
      </trkpt>
      <trkpt lat="44.11312" lon="6.28441">
        <ele>764</ele>
        <time>2021-03-02T13:12:48.654Z</time>
      </trkpt>
      <trkpt lat="44.11277" lon="6.28431">
        <ele>764</ele>
        <time>2021-03-02T13:12:53.000Z</time>
      </trkpt>
      <trkpt lat="44.11264" lon="6.28427">
        <ele>763.9</ele>
        <time>2021-03-02T13:12:56.000Z</time>
      </trkpt>
      <trkpt lat="44.11267" lon="6.2842">
        <ele>763.9</ele>
        <time>2021-03-02T13:12:58.087Z</time>
      </trkpt>
      <trkpt lat="44.11252" lon="6.28417">
        <ele>763.9</ele>
        <time>2021-03-02T13:13:01.296Z</time>
      </trkpt>
      <trkpt lat="44.11245" lon="6.28404">
        <ele>763.9</ele>
        <time>2021-03-02T13:13:04.693Z</time>
      </trkpt>
      <trkpt lat="44.11234" lon="6.28402">
        <ele>755.9</ele>
        <time>2021-03-02T13:13:07.956Z</time>
      </trkpt>
      <trkpt lat="44.11224" lon="6.28388">
        <ele>755.8</ele>
        <time>2021-03-02T13:13:10.984Z</time>
      </trkpt>
      <trkpt lat="44.11203" lon="6.28374">
        <ele>753.7</ele>
        <time>2021-03-02T13:13:17.000Z</time>
      </trkpt>
      <trkpt lat="44.11169" lon="6.28363">
        <ele>753.8</ele>
        <time>2021-03-02T13:13:23.000Z</time>
      </trkpt>
      <trkpt lat="44.11137" lon="6.28341">
        <ele>753.9</ele>
        <time>2021-03-02T13:13:29.000Z</time>
      </trkpt>
      <trkpt lat="44.11133" lon="6.28336">
        <ele>750</ele>
        <time>2021-03-02T13:13:32.000Z</time>
      </trkpt>
      <trkpt lat="44.1113" lon="6.28323">
        <ele>744.5</ele>
        <time>2021-03-02T13:14:21.109Z</time>
      </trkpt>
      <trkpt lat="44.11121" lon="6.2831">
        <ele>743.7</ele>
        <time>2021-03-02T13:14:28.115Z</time>
      </trkpt>
      <trkpt lat="44.11115" lon="6.28306">
        <ele>742.4</ele>
        <time>2021-03-02T13:14:31.309Z</time>
      </trkpt>
      <trkpt lat="44.11113" lon="6.28297">
        <ele>742.6</ele>
        <time>2021-03-02T13:14:34.736Z</time>
      </trkpt>
      <trkpt lat="44.11111" lon="6.28286">
        <ele>742.5</ele>
        <time>2021-03-02T13:14:37.754Z</time>
      </trkpt>
      <trkpt lat="44.11109" lon="6.28281">
        <ele>742.5</ele>
        <time>2021-03-02T13:14:40.773Z</time>
      </trkpt>
      <trkpt lat="44.11105" lon="6.28271">
        <ele>742.5</ele>
        <time>2021-03-02T13:14:43.927Z</time>
      </trkpt>
      <trkpt lat="44.11097" lon="6.28253">
        <ele>741.5</ele>
        <time>2021-03-02T13:14:47.176Z</time>
      </trkpt>
      <trkpt lat="44.11095" lon="6.28241">
        <ele>741.5</ele>
        <time>2021-03-02T13:14:50.795Z</time>
      </trkpt>
      <trkpt lat="44.11096" lon="6.28228">
        <ele>742.4</ele>
        <time>2021-03-02T13:14:54.035Z</time>
      </trkpt>
      <trkpt lat="44.11094" lon="6.28214">
        <ele>742.4</ele>
        <time>2021-03-02T13:14:57.330Z</time>
      </trkpt>
      <trkpt lat="44.11098" lon="6.282">
        <ele>743.5</ele>
        <time>2021-03-02T13:15:00.726Z</time>
      </trkpt>
      <trkpt lat="44.11107" lon="6.28188">
        <ele>743.6</ele>
        <time>2021-03-02T13:15:05.000Z</time>
      </trkpt>
      <trkpt lat="44.11115" lon="6.28174">
        <ele>743.6</ele>
        <time>2021-03-02T13:15:07.692Z</time>
      </trkpt>
      <trkpt lat="44.1112" lon="6.28166">
        <ele>742.2</ele>
        <time>2021-03-02T13:15:11.077Z</time>
      </trkpt>
      <trkpt lat="44.11122" lon="6.28153">
        <ele>742.6</ele>
        <time>2021-03-02T13:15:14.374Z</time>
      </trkpt>
      <trkpt lat="44.11123" lon="6.2814">
        <ele>743.7</ele>
        <time>2021-03-02T13:15:18.151Z</time>
      </trkpt>
      <trkpt lat="44.11119" lon="6.28123">
        <ele>743.6</ele>
        <time>2021-03-02T13:15:23.000Z</time>
      </trkpt>
      <trkpt lat="44.11106" lon="6.28112">
        <ele>744.4</ele>
        <time>2021-03-02T13:15:25.053Z</time>
      </trkpt>
      <trkpt lat="44.11092" lon="6.28074">
        <ele>744.4</ele>
        <time>2021-03-02T13:15:32.000Z</time>
      </trkpt>
      <trkpt lat="44.11122" lon="6.28003">
        <ele>748.5</ele>
        <time>2021-03-02T13:15:41.000Z</time>
      </trkpt>
      <trkpt lat="44.11131" lon="6.27977">
        <ele>749</ele>
        <time>2021-03-02T13:15:44.000Z</time>
      </trkpt>
      <trkpt lat="44.11145" lon="6.27944">
        <ele>749</ele>
        <time>2021-03-02T13:15:50.000Z</time>
      </trkpt>
      <trkpt lat="44.1115" lon="6.27922">
        <ele>749</ele>
        <time>2021-03-02T13:15:53.000Z</time>
      </trkpt>
      <trkpt lat="44.11148" lon="6.279">
        <ele>749</ele>
        <time>2021-03-02T13:15:56.000Z</time>
      </trkpt>
      <trkpt lat="44.11133" lon="6.27875">
        <ele>748.9</ele>
        <time>2021-03-02T13:16:02.000Z</time>
      </trkpt>
      <trkpt lat="44.111" lon="6.27843">
        <ele>747.3</ele>
        <time>2021-03-02T13:16:08.000Z</time>
      </trkpt>
      <trkpt lat="44.11083" lon="6.27826">
        <ele>747.2</ele>
        <time>2021-03-02T13:16:11.000Z</time>
      </trkpt>
      <trkpt lat="44.11062" lon="6.27782">
        <ele>747.2</ele>
        <time>2021-03-02T13:16:17.000Z</time>
      </trkpt>
      <trkpt lat="44.11062" lon="6.27754">
        <ele>747.3</ele>
        <time>2021-03-02T13:16:20.000Z</time>
      </trkpt>
      <trkpt lat="44.11056" lon="6.27698">
        <ele>747.2</ele>
        <time>2021-03-02T13:16:26.000Z</time>
      </trkpt>
      <trkpt lat="44.11061" lon="6.27649">
        <ele>747.1</ele>
        <time>2021-03-02T13:16:32.000Z</time>
      </trkpt>
      <trkpt lat="44.11046" lon="6.27611">
        <ele>747.1</ele>
        <time>2021-03-02T13:16:38.000Z</time>
      </trkpt>
      <trkpt lat="44.11032" lon="6.27598">
        <ele>747.1</ele>
        <time>2021-03-02T13:16:41.000Z</time>
      </trkpt>
      <trkpt lat="44.11031" lon="6.27565">
        <ele>747.2</ele>
        <time>2021-03-02T13:16:47.000Z</time>
      </trkpt>
      <trkpt lat="44.11031" lon="6.27554">
        <ele>713.6</ele>
        <time>2021-03-02T13:16:50.993Z</time>
      </trkpt>
      <trkpt lat="44.11033" lon="6.27547">
        <ele>711.6</ele>
        <time>2021-03-02T13:17:02.000Z</time>
      </trkpt>
      <trkpt lat="44.1104" lon="6.27553">
        <ele>706.9</ele>
        <time>2021-03-02T13:17:23.000Z</time>
      </trkpt>
      <trkpt lat="44.11047" lon="6.27562">
        <ele>707</ele>
        <time>2021-03-02T13:17:26.000Z</time>
      </trkpt>
      <trkpt lat="44.11067" lon="6.2757">
        <ele>705.7</ele>
        <time>2021-03-02T13:17:32.000Z</time>
      </trkpt>
      <trkpt lat="44.1108" lon="6.2757">
        <ele>705.7</ele>
        <time>2021-03-02T13:17:35.000Z</time>
      </trkpt>
      <trkpt lat="44.111" lon="6.27584">
        <ele>701.5</ele>
        <time>2021-03-02T13:17:41.000Z</time>
      </trkpt>
      <trkpt lat="44.11101" lon="6.27597">
        <ele>700.2</ele>
        <time>2021-03-02T13:17:42.982Z</time>
      </trkpt>
      <trkpt lat="44.11106" lon="6.27606">
        <ele>699.5</ele>
        <time>2021-03-02T13:17:50.000Z</time>
      </trkpt>
      <trkpt lat="44.11123" lon="6.276">
        <ele>695.2</ele>
        <time>2021-03-02T13:17:54.042Z</time>
      </trkpt>
      <trkpt lat="44.11139" lon="6.27589">
        <ele>695.2</ele>
        <time>2021-03-02T13:17:59.000Z</time>
      </trkpt>
      <trkpt lat="44.11161" lon="6.27567">
        <ele>695.2</ele>
        <time>2021-03-02T13:18:05.000Z</time>
      </trkpt>
      <trkpt lat="44.11166" lon="6.2756">
        <ele>695.2</ele>
        <time>2021-03-02T13:18:08.000Z</time>
      </trkpt>
      <trkpt lat="44.11178" lon="6.27541">
        <ele>697.9</ele>
        <time>2021-03-02T13:18:14.000Z</time>
      </trkpt>
      <trkpt lat="44.11188" lon="6.27522">
        <ele>696.1</ele>
        <time>2021-03-02T13:18:20.000Z</time>
      </trkpt>
      <trkpt lat="44.11198" lon="6.27506">
        <ele>694.4</ele>
        <time>2021-03-02T13:18:26.000Z</time>
      </trkpt>
      <trkpt lat="44.11206" lon="6.27495">
        <ele>688.7</ele>
        <time>2021-03-02T13:18:28.015Z</time>
      </trkpt>
      <trkpt lat="44.11216" lon="6.27482">
        <ele>688.3</ele>
        <time>2021-03-02T13:18:35.000Z</time>
      </trkpt>
      <trkpt lat="44.11231" lon="6.27475">
        <ele>684.7</ele>
        <time>2021-03-02T13:18:41.000Z</time>
      </trkpt>
      <trkpt lat="44.11237" lon="6.27479">
        <ele>682.5</ele>
        <time>2021-03-02T13:18:43.021Z</time>
      </trkpt>
      <trkpt lat="44.11245" lon="6.27473">
        <ele>682.5</ele>
        <time>2021-03-02T13:18:47.993Z</time>
      </trkpt>
      <trkpt lat="44.11253" lon="6.27462">
        <ele>677.8</ele>
        <time>2021-03-02T13:18:51.141Z</time>
      </trkpt>
      <trkpt lat="44.11257" lon="6.27455">
        <ele>677.8</ele>
        <time>2021-03-02T13:18:55.004Z</time>
      </trkpt>
      <trkpt lat="44.11269" lon="6.27443">
        <ele>674.5</ele>
        <time>2021-03-02T13:18:58.995Z</time>
      </trkpt>
      <trkpt lat="44.11274" lon="6.27442">
        <ele>673.5</ele>
        <time>2021-03-02T13:19:02.733Z</time>
      </trkpt>
      <trkpt lat="44.11285" lon="6.27437">
        <ele>673.4</ele>
        <time>2021-03-02T13:19:05.995Z</time>
      </trkpt>
      <trkpt lat="44.1129" lon="6.27434">
        <ele>667.8</ele>
        <time>2021-03-02T13:19:17.000Z</time>
      </trkpt>
      <trkpt lat="44.11297" lon="6.27442">
        <ele>730.5</ele>
        <time>2021-03-02T13:19:33.011Z</time>
      </trkpt>
      <trkpt lat="44.11304" lon="6.27449">
        <ele>730.5</ele>
        <time>2021-03-02T13:19:37.022Z</time>
      </trkpt>
      <trkpt lat="44.11316" lon="6.27457">
        <ele>729.2</ele>
        <time>2021-03-02T13:19:41.000Z</time>
      </trkpt>
      <trkpt lat="44.11322" lon="6.27461">
        <ele>729.2</ele>
        <time>2021-03-02T13:19:44.997Z</time>
      </trkpt>
      <trkpt lat="44.11336" lon="6.27472">
        <ele>726.8</ele>
        <time>2021-03-02T13:19:48.997Z</time>
      </trkpt>
      <trkpt lat="44.11346" lon="6.27483">
        <ele>725.2</ele>
        <time>2021-03-02T13:19:52.335Z</time>
      </trkpt>
      <trkpt lat="44.11363" lon="6.27505">
        <ele>725.1</ele>
        <time>2021-03-02T13:19:55.543Z</time>
      </trkpt>
      <trkpt lat="44.11373" lon="6.27523">
        <ele>721.5</ele>
        <time>2021-03-02T13:19:58.913Z</time>
      </trkpt>
      <trkpt lat="44.11381" lon="6.27536">
        <ele>721.5</ele>
        <time>2021-03-02T13:20:02.002Z</time>
      </trkpt>
      <trkpt lat="44.11395" lon="6.27559">
        <ele>718.3</ele>
        <time>2021-03-02T13:20:05.497Z</time>
      </trkpt>
      <trkpt lat="44.11401" lon="6.27576">
        <ele>718.1</ele>
        <time>2021-03-02T13:20:08.952Z</time>
      </trkpt>
      <trkpt lat="44.11407" lon="6.27582">
        <ele>714.3</ele>
        <time>2021-03-02T13:20:12.003Z</time>
      </trkpt>
      <trkpt lat="44.11414" lon="6.27583">
        <ele>711.5</ele>
        <time>2021-03-02T13:20:15.370Z</time>
      </trkpt>
      <trkpt lat="44.11413" lon="6.27573">
        <ele>710.6</ele>
        <time>2021-03-02T13:20:18.945Z</time>
      </trkpt>
      <trkpt lat="44.11418" lon="6.2754">
        <ele>664.3</ele>
        <time>2021-03-02T13:20:29.000Z</time>
      </trkpt>
      <trkpt lat="44.11425" lon="6.27522">
        <ele>664.3</ele>
        <time>2021-03-02T13:20:32.000Z</time>
      </trkpt>
      <trkpt lat="44.11437" lon="6.27511">
        <ele>701.2</ele>
        <time>2021-03-02T13:20:35.000Z</time>
      </trkpt>
      <trkpt lat="44.11447" lon="6.27486">
        <ele>701.3</ele>
        <time>2021-03-02T13:20:38.000Z</time>
      </trkpt>
      <trkpt lat="44.11438" lon="6.27472">
        <ele>697.9</ele>
        <time>2021-03-02T13:20:40.042Z</time>
      </trkpt>
      <trkpt lat="44.11429" lon="6.27466">
        <ele>696.2</ele>
        <time>2021-03-02T13:20:45.053Z</time>
      </trkpt>
      <trkpt lat="44.11423" lon="6.27462">
        <ele>696.1</ele>
        <time>2021-03-02T13:20:50.000Z</time>
      </trkpt>
      <trkpt lat="44.11413" lon="6.27448">
        <ele>694.3</ele>
        <time>2021-03-02T13:20:56.000Z</time>
      </trkpt>
      <trkpt lat="44.11409" lon="6.27442">
        <ele>691.4</ele>
        <time>2021-03-02T13:20:59.000Z</time>
      </trkpt>
      <trkpt lat="44.11409" lon="6.27435">
        <ele>690.8</ele>
        <time>2021-03-02T13:21:05.000Z</time>
      </trkpt>
      <trkpt lat="44.11412" lon="6.27442">
        <ele>688.4</ele>
        <time>2021-03-02T13:21:27.999Z</time>
      </trkpt>
      <trkpt lat="44.11418" lon="6.27451">
        <ele>687.7</ele>
        <time>2021-03-02T13:21:31.764Z</time>
      </trkpt>
      <trkpt lat="44.11422" lon="6.27461">
        <ele>687.5</ele>
        <time>2021-03-02T13:21:35.006Z</time>
      </trkpt>
      <trkpt lat="44.11423" lon="6.27477">
        <ele>687.4</ele>
        <time>2021-03-02T13:21:39.002Z</time>
      </trkpt>
      <trkpt lat="44.11422" lon="6.27491">
        <ele>687.4</ele>
        <time>2021-03-02T13:21:42.995Z</time>
      </trkpt>
      <trkpt lat="44.1142" lon="6.275">
        <ele>687.3</ele>
        <time>2021-03-02T13:21:46.008Z</time>
      </trkpt>
      <trkpt lat="44.11422" lon="6.27517">
        <ele>687.7</ele>
        <time>2021-03-02T13:21:49.765Z</time>
      </trkpt>
      <trkpt lat="44.11426" lon="6.27529">
        <ele>687.9</ele>
        <time>2021-03-02T13:21:53.061Z</time>
      </trkpt>
      <trkpt lat="44.11429" lon="6.27543">
        <ele>688</ele>
        <time>2021-03-02T13:21:56.064Z</time>
      </trkpt>
      <trkpt lat="44.11432" lon="6.2756">
        <ele>688.1</ele>
        <time>2021-03-02T13:21:59.684Z</time>
      </trkpt>
      <trkpt lat="44.11432" lon="6.27578">
        <ele>688.7</ele>
        <time>2021-03-02T13:22:02.796Z</time>
      </trkpt>
      <trkpt lat="44.11431" lon="6.27599">
        <ele>689.3</ele>
        <time>2021-03-02T13:22:06.098Z</time>
      </trkpt>
      <trkpt lat="44.11433" lon="6.27621">
        <ele>689.5</ele>
        <time>2021-03-02T13:22:09.579Z</time>
      </trkpt>
      <trkpt lat="44.11437" lon="6.27632">
        <ele>689.4</ele>
        <time>2021-03-02T13:22:12.999Z</time>
      </trkpt>
      <trkpt lat="44.11451" lon="6.27651">
        <ele>689.5</ele>
        <time>2021-03-02T13:22:17.000Z</time>
      </trkpt>
      <trkpt lat="44.11455" lon="6.2766">
        <ele>689.5</ele>
        <time>2021-03-02T13:22:19.035Z</time>
      </trkpt>
      <trkpt lat="44.11459" lon="6.2767">
        <ele>690.1</ele>
        <time>2021-03-02T13:22:22.994Z</time>
      </trkpt>
      <trkpt lat="44.1146" lon="6.27686">
        <ele>690.6</ele>
        <time>2021-03-02T13:22:26.047Z</time>
      </trkpt>
      <trkpt lat="44.11462" lon="6.27703">
        <ele>690.6</ele>
        <time>2021-03-02T13:22:29.996Z</time>
      </trkpt>
      <trkpt lat="44.11464" lon="6.27713">
        <ele>690.6</ele>
        <time>2021-03-02T13:22:32.999Z</time>
      </trkpt>
      <trkpt lat="44.11467" lon="6.27722">
        <ele>690.7</ele>
        <time>2021-03-02T13:22:36.001Z</time>
      </trkpt>
      <trkpt lat="44.11474" lon="6.27736">
        <ele>691.2</ele>
        <time>2021-03-02T13:22:40.029Z</time>
      </trkpt>
      <trkpt lat="44.11482" lon="6.27748">
        <ele>691.5</ele>
        <time>2021-03-02T13:22:43.065Z</time>
      </trkpt>
      <trkpt lat="44.11493" lon="6.27763">
        <ele>691.6</ele>
        <time>2021-03-02T13:22:46.881Z</time>
      </trkpt>
      <trkpt lat="44.11497" lon="6.27771">
        <ele>691.7</ele>
        <time>2021-03-02T13:22:50.009Z</time>
      </trkpt>
      <trkpt lat="44.11503" lon="6.27786">
        <ele>691.9</ele>
        <time>2021-03-02T13:22:54.023Z</time>
      </trkpt>
      <trkpt lat="44.11509" lon="6.27797">
        <ele>691.9</ele>
        <time>2021-03-02T13:22:57.458Z</time>
      </trkpt>
      <trkpt lat="44.11518" lon="6.27815">
        <ele>693</ele>
        <time>2021-03-02T13:23:02.000Z</time>
      </trkpt>
      <trkpt lat="44.11524" lon="6.27842">
        <ele>692.6</ele>
        <time>2021-03-02T13:23:04.265Z</time>
      </trkpt>
      <trkpt lat="44.11529" lon="6.27862">
        <ele>692.7</ele>
        <time>2021-03-02T13:23:08.009Z</time>
      </trkpt>
      <trkpt lat="44.11537" lon="6.27883">
        <ele>692.6</ele>
        <time>2021-03-02T13:23:12.044Z</time>
      </trkpt>
      <trkpt lat="44.11538" lon="6.27899">
        <ele>692.6</ele>
        <time>2021-03-02T13:23:15.051Z</time>
      </trkpt>
      <trkpt lat="44.11541" lon="6.27919">
        <ele>692.6</ele>
        <time>2021-03-02T13:23:19.015Z</time>
      </trkpt>
      <trkpt lat="44.11542" lon="6.27936">
        <ele>698.6</ele>
        <time>2021-03-02T13:23:22.051Z</time>
      </trkpt>
      <trkpt lat="44.11541" lon="6.27953">
        <ele>698.8</ele>
        <time>2021-03-02T13:23:25.059Z</time>
      </trkpt>
      <trkpt lat="44.11539" lon="6.27972">
        <ele>698.7</ele>
        <time>2021-03-02T13:23:28.944Z</time>
      </trkpt>
      <trkpt lat="44.11546" lon="6.27984">
        <ele>698.8</ele>
        <time>2021-03-02T13:23:31.991Z</time>
      </trkpt>
      <trkpt lat="44.11548" lon="6.28005">
        <ele>698.7</ele>
        <time>2021-03-02T13:23:35.988Z</time>
      </trkpt>
      <trkpt lat="44.1155" lon="6.28023">
        <ele>698.8</ele>
        <time>2021-03-02T13:23:38.999Z</time>
      </trkpt>
      <trkpt lat="44.1155" lon="6.28045">
        <ele>698.9</ele>
        <time>2021-03-02T13:23:42.986Z</time>
      </trkpt>
      <trkpt lat="44.11551" lon="6.28066">
        <ele>693.6</ele>
        <time>2021-03-02T13:23:45.995Z</time>
      </trkpt>
      <trkpt lat="44.11554" lon="6.28081">
        <ele>694.6</ele>
        <time>2021-03-02T13:23:49.037Z</time>
      </trkpt>
      <trkpt lat="44.11559" lon="6.2809">
        <ele>695.1</ele>
        <time>2021-03-02T13:23:52.993Z</time>
      </trkpt>
      <trkpt lat="44.11564" lon="6.28095">
        <ele>695.1</ele>
        <time>2021-03-02T13:23:55.995Z</time>
      </trkpt>
      <trkpt lat="44.1157" lon="6.28096">
        <ele>695.1</ele>
        <time>2021-03-02T13:23:59.006Z</time>
      </trkpt>
      <trkpt lat="44.11597" lon="6.28099">
        <ele>694.9</ele>
        <time>2021-03-02T13:24:05.000Z</time>
      </trkpt>
      <trkpt lat="44.11607" lon="6.28106">
        <ele>694.9</ele>
        <time>2021-03-02T13:24:11.000Z</time>
      </trkpt>
      <trkpt lat="44.11632" lon="6.28073">
        <ele>730.6</ele>
        <time>2021-03-02T13:24:29.000Z</time>
      </trkpt>
      <trkpt lat="44.11643" lon="6.28053">
        <ele>730.5</ele>
        <time>2021-03-02T13:24:32.000Z</time>
      </trkpt>
      <trkpt lat="44.11666" lon="6.28014">
        <ele>730.6</ele>
        <time>2021-03-02T13:24:38.000Z</time>
      </trkpt>
      <trkpt lat="44.11678" lon="6.27992">
        <ele>730.6</ele>
        <time>2021-03-02T13:24:41.000Z</time>
      </trkpt>
      <trkpt lat="44.11693" lon="6.27961">
        <ele>729</ele>
        <time>2021-03-02T13:24:45.133Z</time>
      </trkpt>
      <trkpt lat="44.11702" lon="6.2797">
        <ele>728.9</ele>
        <time>2021-03-02T13:24:50.000Z</time>
      </trkpt>
      <trkpt lat="44.11711" lon="6.27979">
        <ele>729</ele>
        <time>2021-03-02T13:24:52.454Z</time>
      </trkpt>
      <trkpt lat="44.11718" lon="6.27973">
        <ele>729</ele>
        <time>2021-03-02T13:24:55.545Z</time>
      </trkpt>
      <trkpt lat="44.11732" lon="6.27992">
        <ele>728.4</ele>
        <time>2021-03-02T13:24:58.811Z</time>
      </trkpt>
      <trkpt lat="44.11752" lon="6.28024">
        <ele>728.4</ele>
        <time>2021-03-02T13:25:05.000Z</time>
      </trkpt>
      <trkpt lat="44.11776" lon="6.28049">
        <ele>728.9</ele>
        <time>2021-03-02T13:25:11.000Z</time>
      </trkpt>
      <trkpt lat="44.11787" lon="6.28062">
        <ele>728.9</ele>
        <time>2021-03-02T13:25:14.000Z</time>
      </trkpt>
      <trkpt lat="44.11792" lon="6.28068">
        <ele>728.9</ele>
        <time>2021-03-02T13:25:17.000Z</time>
      </trkpt>
      <trkpt lat="44.11818" lon="6.28096">
        <ele>728.9</ele>
        <time>2021-03-02T13:25:23.000Z</time>
      </trkpt>
      <trkpt lat="44.11829" lon="6.28109">
        <ele>728.9</ele>
        <time>2021-03-02T13:25:26.000Z</time>
      </trkpt>
      <trkpt lat="44.11853" lon="6.28099">
        <ele>728.8</ele>
        <time>2021-03-02T13:25:32.000Z</time>
      </trkpt>
      <trkpt lat="44.11859" lon="6.28078">
        <ele>736.5</ele>
        <time>2021-03-02T13:25:34.103Z</time>
      </trkpt>
      <trkpt lat="44.11874" lon="6.28042">
        <ele>736.2</ele>
        <time>2021-03-02T13:25:41.000Z</time>
      </trkpt>
      <trkpt lat="44.11887" lon="6.28005">
        <ele>736.2</ele>
        <time>2021-03-02T13:25:47.000Z</time>
      </trkpt>
      <trkpt lat="44.11896" lon="6.28005">
        <ele>736.3</ele>
        <time>2021-03-02T13:25:50.000Z</time>
      </trkpt>
      <trkpt lat="44.11914" lon="6.28007">
        <ele>733.6</ele>
        <time>2021-03-02T13:25:52.032Z</time>
      </trkpt>
      <trkpt lat="44.1194" lon="6.28016">
        <ele>733.3</ele>
        <time>2021-03-02T13:25:59.000Z</time>
      </trkpt>
      <trkpt lat="44.11944" lon="6.28022">
        <ele>732.7</ele>
        <time>2021-03-02T13:26:00.996Z</time>
      </trkpt>
      <trkpt lat="44.11989" lon="6.28034">
        <ele>732.6</ele>
        <time>2021-03-02T13:26:08.000Z</time>
      </trkpt>
      <trkpt lat="44.1202" lon="6.28046">
        <ele>732.7</ele>
        <time>2021-03-02T13:26:14.000Z</time>
      </trkpt>
      <trkpt lat="44.12036" lon="6.28053">
        <ele>732.7</ele>
        <time>2021-03-02T13:26:17.000Z</time>
      </trkpt>
      <trkpt lat="44.12054" lon="6.28059">
        <ele>732.7</ele>
        <time>2021-03-02T13:26:20.000Z</time>
      </trkpt>
      <trkpt lat="44.12071" lon="6.28066">
        <ele>732.2</ele>
        <time>2021-03-02T13:26:22.092Z</time>
      </trkpt>
      <trkpt lat="44.12101" lon="6.28076">
        <ele>732</ele>
        <time>2021-03-02T13:26:29.000Z</time>
      </trkpt>
      <trkpt lat="44.12112" lon="6.28078">
        <ele>732.1</ele>
        <time>2021-03-02T13:26:32.000Z</time>
      </trkpt>
      <trkpt lat="44.12131" lon="6.28089">
        <ele>731</ele>
        <time>2021-03-02T13:26:38.000Z</time>
      </trkpt>
      <trkpt lat="44.12138" lon="6.28088">
        <ele>731</ele>
        <time>2021-03-02T13:26:41.000Z</time>
      </trkpt>
      <trkpt lat="44.12149" lon="6.2809">
        <ele>731</ele>
        <time>2021-03-02T13:26:44.000Z</time>
      </trkpt>
      <trkpt lat="44.12186" lon="6.28108">
        <ele>731</ele>
        <time>2021-03-02T13:26:50.000Z</time>
      </trkpt>
      <trkpt lat="44.12204" lon="6.2812">
        <ele>731</ele>
        <time>2021-03-02T13:26:53.000Z</time>
      </trkpt>
      <trkpt lat="44.12235" lon="6.28141">
        <ele>731</ele>
        <time>2021-03-02T13:26:59.000Z</time>
      </trkpt>
      <trkpt lat="44.12245" lon="6.28146">
        <ele>731</ele>
        <time>2021-03-02T13:27:02.000Z</time>
      </trkpt>
      <trkpt lat="44.12294" lon="6.28182">
        <ele>731</ele>
        <time>2021-03-02T13:27:11.000Z</time>
      </trkpt>
      <trkpt lat="44.1231" lon="6.28193">
        <ele>731</ele>
        <time>2021-03-02T13:27:14.000Z</time>
      </trkpt>
      <trkpt lat="44.12342" lon="6.28216">
        <ele>731</ele>
        <time>2021-03-02T13:27:20.000Z</time>
      </trkpt>
      <trkpt lat="44.12374" lon="6.28239">
        <ele>731</ele>
        <time>2021-03-02T13:27:26.000Z</time>
      </trkpt>
      <trkpt lat="44.12405" lon="6.28258">
        <ele>731</ele>
        <time>2021-03-02T13:27:32.000Z</time>
      </trkpt>
      <trkpt lat="44.12436" lon="6.28274">
        <ele>731</ele>
        <time>2021-03-02T13:27:38.000Z</time>
      </trkpt>
      <trkpt lat="44.1245" lon="6.28279">
        <ele>731</ele>
        <time>2021-03-02T13:27:41.000Z</time>
      </trkpt>
      <trkpt lat="44.12482" lon="6.28288">
        <ele>731</ele>
        <time>2021-03-02T13:27:47.000Z</time>
      </trkpt>
      <trkpt lat="44.12499" lon="6.28294">
        <ele>731</ele>
        <time>2021-03-02T13:27:50.000Z</time>
      </trkpt>
      <trkpt lat="44.12532" lon="6.28305">
        <ele>731</ele>
        <time>2021-03-02T13:27:56.000Z</time>
      </trkpt>
      <trkpt lat="44.1255" lon="6.28311">
        <ele>731</ele>
        <time>2021-03-02T13:27:59.000Z</time>
      </trkpt>
      <trkpt lat="44.12585" lon="6.28321">
        <ele>731</ele>
        <time>2021-03-02T13:28:05.000Z</time>
      </trkpt>
      <trkpt lat="44.12603" lon="6.28324">
        <ele>731</ele>
        <time>2021-03-02T13:28:08.000Z</time>
      </trkpt>
      <trkpt lat="44.12638" lon="6.28334">
        <ele>731</ele>
        <time>2021-03-02T13:28:14.000Z</time>
      </trkpt>
      <trkpt lat="44.12652" lon="6.28338">
        <ele>731</ele>
        <time>2021-03-02T13:28:17.000Z</time>
      </trkpt>
      <trkpt lat="44.12665" lon="6.28348">
        <ele>731</ele>
        <time>2021-03-02T13:28:20.000Z</time>
      </trkpt>
      <trkpt lat="44.12678" lon="6.28366">
        <ele>731</ele>
        <time>2021-03-02T13:28:22.054Z</time>
      </trkpt>
      <trkpt lat="44.12703" lon="6.28402">
        <ele>731</ele>
        <time>2021-03-02T13:28:29.000Z</time>
      </trkpt>
      <trkpt lat="44.12716" lon="6.28418">
        <ele>731</ele>
        <time>2021-03-02T13:28:32.000Z</time>
      </trkpt>
      <trkpt lat="44.1274" lon="6.28452">
        <ele>731</ele>
        <time>2021-03-02T13:28:38.000Z</time>
      </trkpt>
      <trkpt lat="44.12765" lon="6.28486">
        <ele>731</ele>
        <time>2021-03-02T13:28:44.000Z</time>
      </trkpt>
      <trkpt lat="44.12778" lon="6.28503">
        <ele>731</ele>
        <time>2021-03-02T13:28:47.000Z</time>
      </trkpt>
      <trkpt lat="44.12801" lon="6.28537">
        <ele>731</ele>
        <time>2021-03-02T13:28:53.000Z</time>
      </trkpt>
      <trkpt lat="44.12812" lon="6.28554">
        <ele>731</ele>
        <time>2021-03-02T13:28:56.000Z</time>
      </trkpt>
      <trkpt lat="44.12824" lon="6.28571">
        <ele>731</ele>
        <time>2021-03-02T13:28:59.000Z</time>
      </trkpt>
      <trkpt lat="44.12835" lon="6.28588">
        <ele>731</ele>
        <time>2021-03-02T13:29:02.000Z</time>
      </trkpt>
      <trkpt lat="44.12853" lon="6.28617">
        <ele>731</ele>
        <time>2021-03-02T13:29:08.000Z</time>
      </trkpt>
      <trkpt lat="44.12873" lon="6.28649">
        <ele>755.3</ele>
        <time>2021-03-02T13:29:14.000Z</time>
      </trkpt>
      <trkpt lat="44.12889" lon="6.28675">
        <ele>755.3</ele>
        <time>2021-03-02T13:29:19.027Z</time>
      </trkpt>
      <trkpt lat="44.12875" lon="6.28714">
        <ele>755.3</ele>
        <time>2021-03-02T13:29:26.000Z</time>
      </trkpt>
      <trkpt lat="44.12854" lon="6.28745">
        <ele>755.4</ele>
        <time>2021-03-02T13:29:32.000Z</time>
      </trkpt>
      <trkpt lat="44.12836" lon="6.28783">
        <ele>755.4</ele>
        <time>2021-03-02T13:29:38.000Z</time>
      </trkpt>
      <trkpt lat="44.12853" lon="6.28821">
        <ele>755.4</ele>
        <time>2021-03-02T13:29:44.000Z</time>
      </trkpt>
      <trkpt lat="44.12867" lon="6.2886">
        <ele>746.2</ele>
        <time>2021-03-02T13:29:50.000Z</time>
      </trkpt>
      <trkpt lat="44.12871" lon="6.28882">
        <ele>746.2</ele>
        <time>2021-03-02T13:29:53.000Z</time>
      </trkpt>
      <trkpt lat="44.1288" lon="6.28902">
        <ele>746.2</ele>
        <time>2021-03-02T13:29:56.000Z</time>
      </trkpt>
      <trkpt lat="44.12898" lon="6.28939">
        <ele>746.2</ele>
        <time>2021-03-02T13:30:02.000Z</time>
      </trkpt>
      <trkpt lat="44.12907" lon="6.28959">
        <ele>746.2</ele>
        <time>2021-03-02T13:30:05.000Z</time>
      </trkpt>
      <trkpt lat="44.12927" lon="6.28999">
        <ele>746.2</ele>
        <time>2021-03-02T13:30:11.000Z</time>
      </trkpt>
      <trkpt lat="44.12937" lon="6.29019">
        <ele>746.2</ele>
        <time>2021-03-02T13:30:14.000Z</time>
      </trkpt>
      <trkpt lat="44.12958" lon="6.2906">
        <ele>746.2</ele>
        <time>2021-03-02T13:30:20.000Z</time>
      </trkpt>
      <trkpt lat="44.12967" lon="6.29081">
        <ele>746.2</ele>
        <time>2021-03-02T13:30:23.000Z</time>
      </trkpt>
      <trkpt lat="44.12985" lon="6.2912">
        <ele>746.2</ele>
        <time>2021-03-02T13:30:29.000Z</time>
      </trkpt>
      <trkpt lat="44.12996" lon="6.29137">
        <ele>746.2</ele>
        <time>2021-03-02T13:30:32.000Z</time>
      </trkpt>
      <trkpt lat="44.13026" lon="6.29119">
        <ele>746.2</ele>
        <time>2021-03-02T13:30:38.000Z</time>
      </trkpt>
      <trkpt lat="44.1304" lon="6.29104">
        <ele>746.2</ele>
        <time>2021-03-02T13:30:41.000Z</time>
      </trkpt>
      <trkpt lat="44.13068" lon="6.29076">
        <ele>746.2</ele>
        <time>2021-03-02T13:30:47.000Z</time>
      </trkpt>
      <trkpt lat="44.13083" lon="6.29066">
        <ele>746.2</ele>
        <time>2021-03-02T13:30:50.000Z</time>
      </trkpt>
      <trkpt lat="44.13098" lon="6.29058">
        <ele>746.2</ele>
        <time>2021-03-02T13:30:53.000Z</time>
      </trkpt>
      <trkpt lat="44.13109" lon="6.29011">
        <ele>746.2</ele>
        <time>2021-03-02T13:30:59.000Z</time>
      </trkpt>
      <trkpt lat="44.1311" lon="6.28983">
        <ele>746.2</ele>
        <time>2021-03-02T13:31:02.000Z</time>
      </trkpt>
      <trkpt lat="44.13115" lon="6.28937">
        <ele>746.2</ele>
        <time>2021-03-02T13:31:08.000Z</time>
      </trkpt>
      <trkpt lat="44.13117" lon="6.28894">
        <ele>746.2</ele>
        <time>2021-03-02T13:31:14.000Z</time>
      </trkpt>
      <trkpt lat="44.13122" lon="6.2885">
        <ele>746.2</ele>
        <time>2021-03-02T13:31:20.000Z</time>
      </trkpt>
      <trkpt lat="44.13129" lon="6.28811">
        <ele>746.2</ele>
        <time>2021-03-02T13:31:26.000Z</time>
      </trkpt>
      <trkpt lat="44.13132" lon="6.2879">
        <ele>746.2</ele>
        <time>2021-03-02T13:31:29.000Z</time>
      </trkpt>
      <trkpt lat="44.13134" lon="6.28744">
        <ele>746.2</ele>
        <time>2021-03-02T13:31:35.000Z</time>
      </trkpt>
      <trkpt lat="44.13135" lon="6.28701">
        <ele>746.2</ele>
        <time>2021-03-02T13:31:41.000Z</time>
      </trkpt>
      <trkpt lat="44.13135" lon="6.28682">
        <ele>746.2</ele>
        <time>2021-03-02T13:31:44.000Z</time>
      </trkpt>
      <trkpt lat="44.13139" lon="6.28636">
        <ele>746.2</ele>
        <time>2021-03-02T13:31:50.000Z</time>
      </trkpt>
      <trkpt lat="44.13141" lon="6.28612">
        <ele>746.2</ele>
        <time>2021-03-02T13:31:53.000Z</time>
      </trkpt>
      <trkpt lat="44.1314" lon="6.28589">
        <ele>746.2</ele>
        <time>2021-03-02T13:31:56.000Z</time>
      </trkpt>
      <trkpt lat="44.13138" lon="6.28566">
        <ele>746.2</ele>
        <time>2021-03-02T13:31:59.000Z</time>
      </trkpt>
      <trkpt lat="44.13136" lon="6.28521">
        <ele>746.2</ele>
        <time>2021-03-02T13:32:05.000Z</time>
      </trkpt>
      <trkpt lat="44.13149" lon="6.28514">
        <ele>746.2</ele>
        <time>2021-03-02T13:32:08.000Z</time>
      </trkpt>
      <trkpt lat="44.13178" lon="6.28525">
        <ele>746.2</ele>
        <time>2021-03-02T13:32:14.000Z</time>
      </trkpt>
      <trkpt lat="44.13188" lon="6.28525">
        <ele>746</ele>
        <time>2021-03-02T13:32:18.163Z</time>
      </trkpt>
      <trkpt lat="44.13184" lon="6.28522">
        <ele>746</ele>
        <time>2021-03-02T13:32:26.000Z</time>
      </trkpt>
    </trkseg>
  </trk>
</gpx>